[[{"header":{"parameterUnit":"m.s-1","parameterCategory":1,"la1":30.6,"la2":29.2853,"lo1":-89.7004,"lo2":-87.6739,"dy":0.0162,"dx":0.0183,"nx":112,"ny":82,"refTime":"2026-05-11T00:00:00:Z","depth":0,"parameterNumber":2,"parameterNumberName":"U-component_of_WINDS"},"data":[0.0,0.0,0.0,0.0,0.0,0.0,0.0,0.0,0.0,0.0,0.0,0.0,0.0,0.0,0.0,0.0,0.0,0.0,0.0,0.0,0.0,0.0,0.0,0.0,0.0,0.0,0.0,0.0,0.0,0.0,0.0,0.0,0.0,0.0,0.0,0.0,0.0,0.0,0.0,0.0,0.0,0.0,0.0,0.0,0.0,0.0,0.0,0.0,0.0,0.0,0.0,0.0,0.0,0.0,0.0,0.0,0.0,0.0,0.0,0.0,0.0,0.0,0.0,0.0,0.0,0.0,0.0,0.0,0.0,0.0,0.0,0.0,0.0,0.0,0.0,0.0,0.0,0.0,0.0,0.0,0.0,0.0,0.0,0.0,0.0,0.0,0.0,0.0,0.0,0.0,-4.5332,-4.6191,-4.7545,-4.775,-4.6143,-4.7291,-4.7078,-4.4646,0.0,0.0,0.0,0.0,0.0,0.0,0.0,0.0,0.0,0.0,0.0,0.0,0.0,0.0,0.0,0.0,0.0,0.0,0.0,0.0,0.0,0.0,0.0,0.0,0.0,0.0,0.0,0.0,0.0,0.0,0.0,0.0,0.0,0.0,0.0,0.0,0.0,0.0,0.0,0.0,0.0,0.0,0.0,0.0,0.0,0.0,0.0,0.0,0.0,0.0,0.0,0.0,0.0,0.0,0.0,0.0,0.0,0.0,0.0,0.0,0.0,0.0,0.0,0.0,0.0,0.0,0.0,0.0,0.0,0.0,0.0,0.0,0.0,0.0,0.0,0.0,0.0,0.0,0.0,0.0,0.0,0.0,0.0,0.0,0.0,0.0,0.0,0.0,0.0,0.0,0.0,0.0,0.0,0.0,0.0,0.0,0.0,0.0,0.0,0.0,0.0,0.0,0.0,0.0,-4.5311,-4.6135,-4.6978,-4.7092,-4.6085,-4.6749,-4.6422,-4.4608,0.0,0.0,0.0,0.0,0.0,0.0,0.0,0.0,0.0,0.0,0.0,0.0,0.0,0.0,0.0,0.0,0.0,0.0,0.0,0.0,0.0,0.0,0.0,0.0,0.0,0.0,0.0,0.0,0.0,0.0,0.0,0.0,0.0,0.0,0.0,0.0,0.0,0.0,0.0,0.0,0.0,0.0,0.0,0.0,0.0,0.0,0.0,0.0,0.0,0.0,0.0,0.0,0.0,0.0,0.0,0.0,0.0,0.0,0.0,0.0,0.0,0.0,0.0,0.0,0.0,0.0,0.0,0.0,0.0,0.0,0.0,0.0,0.0,0.0,0.0,0.0,0.0,0.0,0.0,0.0,0.0,0.0,0.0,0.0,0.0,0.0,0.0,0.0,0.0,0.0,0.0,0.0,0.0,0.0,0.0,0.0,0.0,0.0,0.0,0.0,0.0,0.0,0.0,-4.5467,-4.5832,-4.6152,-4.6869,-4.6945,-4.6064,-4.66,-4.6286,-4.4608,-4.3615,0.0,0.0,0.0,0.0,0.0,0.0,0.0,0.0,0.0,0.0,0.0,0.0,0.0,0.0,0.0,0.0,0.0,0.0,0.0,0.0,0.0,0.0,0.0,0.0,0.0,0.0,0.0,0.0,0.0,0.0,0.0,0.0,0.0,0.0,0.0,0.0,0.0,0.0,0.0,0.0,0.0,0.0,0.0,0.0,0.0,0.0,0.0,0.0,0.0,0.0,0.0,0.0,0.0,0.0,0.0,0.0,0.0,0.0,0.0,0.0,0.0,0.0,0.0,0.0,0.0,0.0,0.0,0.0,0.0,0.0,0.0,0.0,0.0,0.0,0.0,0.0,0.0,0.0,0.0,0.0,0.0,0.0,0.0,0.0,0.0,0.0,0.0,0.0,0.0,0.0,0.0,0.0,0.0,0.0,0.0,0.0,0.0,0.0,0.0,0.0,0.0,0.0,-4.6165,-4.6248,-4.6184,-4.6676,-4.6727,-4.603,-4.6238,-4.5785,-4.4299,-4.3123,0.0,0.0,0.0,0.0,0.0,0.0,0.0,0.0,0.0,0.0,0.0,0.0,0.0,0.0,0.0,0.0,0.0,0.0,0.0,0.0,0.0,0.0,0.0,0.0,0.0,0.0,0.0,0.0,0.0,0.0,0.0,0.0,0.0,0.0,0.0,0.0,0.0,0.0,0.0,0.0,0.0,0.0,0.0,0.0,0.0,0.0,0.0,0.0,0.0,0.0,0.0,0.0,0.0,0.0,0.0,0.0,0.0,0.0,0.0,0.0,0.0,0.0,0.0,0.0,0.0,0.0,0.0,0.0,0.0,0.0,0.0,0.0,0.0,0.0,0.0,0.0,0.0,0.0,0.0,0.0,0.0,0.0,0.0,0.0,0.0,0.0,0.0,0.0,0.0,0.0,0.0,0.0,0.0,0.0,0.0,0.0,0.0,0.0,0.0,0.0,0.0,0.0,-4.5745,-4.6189,-4.6112,-4.6104,-4.6039,-4.5917,-4.5148,-4.428,-4.3354,-4.1659,0.0,0.0,0.0,0.0,0.0,0.0,0.0,0.0,0.0,0.0,0.0,0.0,0.0,0.0,0.0,0.0,0.0,0.0,0.0,0.0,0.0,0.0,0.0,0.0,0.0,0.0,0.0,0.0,0.0,0.0,0.0,0.0,0.0,0.0,0.0,0.0,0.0,0.0,0.0,0.0,0.0,0.0,0.0,0.0,0.0,0.0,0.0,0.0,0.0,0.0,0.0,0.0,0.0,0.0,0.0,0.0,0.0,0.0,0.0,0.0,0.0,0.0,0.0,0.0,0.0,0.0,0.0,0.0,0.0,0.0,0.0,0.0,0.0,0.0,0.0,0.0,0.0,0.0,0.0,0.0,0.0,0.0,0.0,0.0,0.0,0.0,0.0,0.0,0.0,0.0,0.0,0.0,0.0,0.0,0.0,0.0,0.0,0.0,0.0,0.0,0.0,0.0,-4.5706,-4.6186,-4.6167,-4.606,-4.5761,-4.5194,-4.4754,-4.3894,-4.2486,0.0,0.0,0.0,0.0,0.0,0.0,0.0,0.0,0.0,0.0,0.0,0.0,0.0,0.0,0.0,0.0,0.0,0.0,0.0,0.0,0.0,0.0,0.0,0.0,0.0,0.0,0.0,0.0,0.0,0.0,0.0,0.0,0.0,0.0,0.0,0.0,0.0,0.0,0.0,0.0,0.0,0.0,0.0,0.0,0.0,0.0,0.0,0.0,0.0,0.0,0.0,0.0,0.0,0.0,0.0,0.0,0.0,0.0,0.0,0.0,0.0,0.0,0.0,0.0,0.0,0.0,0.0,0.0,0.0,0.0,0.0,0.0,0.0,0.0,0.0,0.0,0.0,0.0,0.0,0.0,0.0,0.0,0.0,0.0,0.0,0.0,0.0,0.0,0.0,0.0,0.0,0.0,0.0,0.0,0.0,0.0,0.0,0.0,0.0,0.0,0.0,0.0,-4.4506,-4.5528,-4.6089,-4.5797,-4.5652,-4.5237,-4.4354,-4.3903,-4.3045,-4.1579,0.0,0.0,0.0,0.0,0.0,0.0,0.0,0.0,0.0,0.0,0.0,0.0,0.0,0.0,0.0,0.0,0.0,0.0,0.0,0.0,0.0,0.0,0.0,0.0,0.0,0.0,0.0,0.0,0.0,0.0,0.0,0.0,0.0,0.0,0.0,0.0,0.0,0.0,0.0,0.0,0.0,0.0,0.0,0.0,0.0,0.0,0.0,0.0,0.0,0.0,0.0,0.0,0.0,0.0,0.0,0.0,0.0,0.0,0.0,0.0,0.0,0.0,0.0,0.0,0.0,0.0,0.0,0.0,0.0,0.0,0.0,0.0,0.0,0.0,0.0,0.0,0.0,0.0,0.0,0.0,0.0,0.0,0.0,0.0,0.0,0.0,0.0,0.0,0.0,0.0,0.0,0.0,0.0,0.0,0.0,0.0,0.0,0.0,0.0,0.0,0.0,0.0,-4.3666,-4.5138,-4.5816,-4.4881,-4.4738,-4.4319,-4.3463,-4.2466,-4.1521,0.0,0.0,0.0,0.0,0.0,0.0,0.0,0.0,0.0,0.0,0.0,0.0,0.0,0.0,0.0,0.0,0.0,0.0,0.0,0.0,0.0,0.0,0.0,0.0,0.0,0.0,0.0,0.0,0.0,0.0,0.0,0.0,0.0,0.0,0.0,0.0,0.0,0.0,0.0,0.0,0.0,0.0,0.0,0.0,0.0,0.0,0.0,0.0,0.0,0.0,0.0,0.0,0.0,0.0,0.0,0.0,0.0,0.0,0.0,0.0,0.0,0.0,0.0,0.0,0.0,0.0,0.0,0.0,0.0,0.0,0.0,0.0,0.0,0.0,0.0,0.0,0.0,0.0,0.0,0.0,0.0,0.0,0.0,0.0,0.0,0.0,0.0,0.0,0.0,0.0,0.0,0.0,0.0,0.0,0.0,0.0,0.0,0.0,0.0,0.0,0.0,0.0,0.0,-4.1872,-4.3371,-4.4314,-4.3994,-4.3888,-4.3496,-4.2629,-4.2157,-4.1289,-3.9842,0.0,0.0,0.0,0.0,0.0,0.0,0.0,0.0,0.0,0.0,0.0,0.0,0.0,0.0,0.0,0.0,0.0,0.0,0.0,0.0,0.0,0.0,0.0,0.0,0.0,0.0,0.0,0.0,0.0,0.0,0.0,0.0,0.0,0.0,0.0,0.0,0.0,0.0,0.0,0.0,0.0,0.0,0.0,0.0,0.0,0.0,0.0,0.0,0.0,0.0,0.0,0.0,0.0,0.0,0.0,0.0,0.0,0.0,0.0,0.0,0.0,0.0,0.0,0.0,0.0,0.0,0.0,0.0,0.0,0.0,0.0,0.0,0.0,0.0,0.0,0.0,0.0,0.0,0.0,0.0,0.0,0.0,0.0,0.0,0.0,0.0,0.0,0.0,0.0,0.0,0.0,0.0,0.0,0.0,0.0,0.0,0.0,0.0,0.0,0.0,0.0,0.0,-4.1152,-4.2635,-4.3546,-4.3164,-4.3033,-4.2626,-4.1767,-4.1196,-4.0345,-3.9013,0.0,0.0,0.0,0.0,0.0,0.0,0.0,0.0,0.0,0.0,0.0,0.0,0.0,0.0,0.0,0.0,0.0,0.0,0.0,0.0,0.0,0.0,0.0,0.0,0.0,0.0,0.0,0.0,0.0,0.0,0.0,0.0,0.0,0.0,0.0,0.0,0.0,0.0,0.0,0.0,0.0,0.0,0.0,0.0,0.0,0.0,0.0,0.0,0.0,0.0,0.0,0.0,0.0,0.0,0.0,0.0,0.0,0.0,0.0,0.0,0.0,0.0,0.0,0.0,0.0,0.0,0.0,0.0,0.0,0.0,0.0,0.0,0.0,0.0,0.0,0.0,0.0,0.0,0.0,0.0,0.0,0.0,0.0,0.0,0.0,0.0,0.0,0.0,0.0,0.0,0.0,0.0,0.0,0.0,0.0,0.0,0.0,0.0,0.0,0.0,0.0,0.0,-4.084,-4.2305,-4.3045,-4.2246,-4.2127,-4.1733,-4.0863,-3.9935,-3.9026,-3.8137,0.0,0.0,0.0,0.0,0.0,0.0,0.0,0.0,0.0,0.0,0.0,0.0,0.0,0.0,0.0,0.0,0.0,0.0,0.0,0.0,0.0,0.0,0.0,0.0,0.0,0.0,0.0,0.0,0.0,0.0,0.0,0.0,0.0,0.0,0.0,0.0,0.0,0.0,0.0,0.0,0.0,0.0,0.0,0.0,0.0,0.0,0.0,0.0,0.0,0.0,0.0,0.0,0.0,0.0,0.0,0.0,0.0,0.0,0.0,0.0,-4.5594,0.0,0.0,0.0,0.0,0.0,0.0,0.0,0.0,0.0,0.0,0.0,0.0,0.0,0.0,0.0,0.0,0.0,0.0,0.0,0.0,0.0,0.0,0.0,0.0,0.0,0.0,0.0,0.0,0.0,0.0,0.0,0.0,0.0,0.0,0.0,0.0,0.0,0.0,0.0,0.0,0.0,-3.8125,-3.9648,-4.0624,-4.0376,-4.0896,-4.0892,-4.0023,-3.967,-3.8816,-3.7259,-3.6292,0.0,0.0,0.0,0.0,0.0,0.0,0.0,0.0,0.0,0.0,0.0,0.0,0.0,0.0,0.0,0.0,0.0,0.0,0.0,0.0,0.0,0.0,0.0,0.0,0.0,0.0,0.0,0.0,0.0,0.0,0.0,0.0,0.0,0.0,0.0,0.0,0.0,0.0,0.0,0.0,0.0,0.0,0.0,0.0,0.0,0.0,0.0,0.0,0.0,0.0,0.0,0.0,0.0,0.0,0.0,0.0,0.0,0.0,0.0,0.0,-4.5622,0.0,0.0,0.0,0.0,0.0,0.0,0.0,0.0,0.0,0.0,0.0,0.0,0.0,0.0,0.0,0.0,0.0,0.0,0.0,0.0,0.0,0.0,0.0,0.0,0.0,0.0,0.0,0.0,0.0,0.0,0.0,0.0,0.0,0.0,0.0,0.0,0.0,0.0,0.0,0.0,-3.7246,-3.8457,-3.9257,-3.9229,-3.9564,-3.9592,-3.9121,-3.86,-3.7918,-3.6999,-3.5664,0.0,0.0,0.0,0.0,0.0,0.0,0.0,0.0,0.0,0.0,0.0,0.0,0.0,0.0,0.0,0.0,0.0,0.0,0.0,0.0,0.0,0.0,0.0,0.0,0.0,0.0,0.0,0.0,0.0,0.0,0.0,0.0,0.0,0.0,0.0,0.0,0.0,0.0,0.0,0.0,0.0,0.0,0.0,0.0,0.0,0.0,0.0,0.0,0.0,0.0,0.0,0.0,0.0,-4.6858,-4.6848,-4.6829,-4.6713,-4.6269,-4.5577,-4.5586,-4.5614,-4.5612,-4.5514,0.0,0.0,0.0,0.0,0.0,0.0,0.0,0.0,0.0,0.0,0.0,0.0,0.0,0.0,0.0,0.0,0.0,0.0,0.0,0.0,0.0,0.0,0.0,0.0,-3.6796,-3.6387,0.0,0.0,0.0,0.0,0.0,0.0,0.0,0.0,0.0,0.0,0.0,0.0,-3.6953,-3.7832,-3.8378,-3.8374,-3.8463,-3.8422,-3.8219,-3.7478,-3.6964,-3.6794,-3.5227,-3.3956,0.0,0.0,0.0,0.0,0.0,0.0,0.0,0.0,0.0,0.0,0.0,0.0,0.0,0.0,0.0,0.0,0.0,0.0,0.0,0.0,0.0,0.0,0.0,0.0,0.0,0.0,0.0,0.0,0.0,0.0,0.0,0.0,-4.4748,-4.5553,0.0,0.0,0.0,0.0,0.0,0.0,0.0,0.0,0.0,0.0,0.0,0.0,0.0,-4.5192,-4.5855,-4.6011,-4.6533,-4.7479,-4.6915,-4.6635,-4.6615,-4.5985,-4.5628,-4.5513,-4.5577,0.0,-4.5635,-4.4872,0.0,0.0,0.0,0.0,0.0,0.0,0.0,0.0,0.0,0.0,0.0,0.0,0.0,0.0,0.0,0.0,0.0,0.0,0.0,0.0,0.0,0.0,-3.9116,-3.8403,-3.7575,-3.6996,0.0,-3.6564,-3.5991,-3.5991,-3.5993,0.0,0.0,0.0,0.0,0.0,0.0,0.0,-3.6055,-3.6934,-3.7461,-3.7478,-3.8139,-3.8247,-3.7422,-3.7247,-3.6833,-3.6021,-3.4962,-3.4008,-3.3136,-3.2254,0.0,0.0,0.0,0.0,0.0,0.0,0.0,0.0,0.0,0.0,0.0,0.0,0.0,0.0,0.0,0.0,0.0,0.0,0.0,0.0,0.0,0.0,0.0,0.0,0.0,0.0,0.0,0.0,0.0,-4.4337,-4.5163,-4.5624,-4.5498,-4.5204,0.0,0.0,0.0,0.0,0.0,0.0,0.0,0.0,0.0,-4.5519,-4.5538,-4.5749,-4.6222,-4.635,-4.6708,-4.7248,-4.6536,-4.6287,-4.6418,-4.5666,-4.5381,-4.5448,-4.554,-4.5334,-4.4889,-4.4529,-4.4132,-4.3631,0.0,0.0,0.0,0.0,-4.1229,-4.126,-4.0881,-4.0486,0.0,-4.0176,0.0,0.0,0.0,0.0,0.0,0.0,0.0,0.0,0.0,0.0,-3.7991,-3.7694,-3.6973,-3.6391,-3.6454,-3.5834,-3.5408,0.0,-3.6007,-3.5991,-3.5991,0.0,0.0,0.0,0.0,-3.3594,-3.4434,-3.4863,-3.5117,-3.5117,-3.5448,-3.5719,-3.5786,-3.5767,-3.5775,-3.5843,-3.4972,-3.4074,-3.3185,-3.2275,-3.142,0.0,0.0,0.0,0.0,0.0,0.0,0.0,0.0,0.0,0.0,0.0,0.0,0.0,0.0,0.0,0.0,0.0,0.0,0.0,0.0,0.0,0.0,0.0,0.0,0.0,0.0,0.0,0.0,-4.4975,-4.583,-4.6048,-4.6282,-4.6122,0.0,0.0,0.0,0.0,0.0,0.0,-4.5229,-4.5301,-4.5578,-4.617,-4.6188,-4.6257,-4.6372,-4.6517,-4.6688,-4.6895,-4.5973,-4.5653,-4.5827,-4.4944,-4.4592,-4.4729,-4.487,-4.4577,-4.3962,-4.4042,-4.3541,-4.2681,-4.1855,-4.1151,-4.058,-4.0571,-4.0619,-4.064,-4.0655,-4.0642,-4.0604,-4.041,0.0,-3.7783,-3.7589,0.0,0.0,0.0,0.0,-3.707,-3.7496,-3.7224,-3.6803,-3.6665,-3.6174,-3.5704,-3.5564,-3.509,-3.4872,0.0,-3.549,-3.5321,-3.5321,0.0,0.0,0.0,0.0,-3.248,-3.3301,-3.3398,-3.3398,-3.3398,-3.3398,-3.3652,-3.4313,-3.4324,-3.458,-3.5225,-3.4585,-3.3794,-3.294,-3.223,-3.1465,-3.0638,0.0,0.0,0.0,0.0,0.0,0.0,0.0,0.0,0.0,0.0,0.0,0.0,0.0,0.0,0.0,0.0,0.0,0.0,0.0,0.0,0.0,0.0,0.0,0.0,0.0,0.0,0.0,0.0,0.0,-4.7385,-4.7679,0.0,0.0,0.0,0.0,-4.5718,-4.5146,-4.5125,-4.6008,-4.6098,-4.6151,-4.6188,-4.6188,-4.6239,-4.6305,-4.644,-4.6538,-4.6597,-4.5232,-4.4616,-4.464,-4.3327,-4.2768,-4.2849,-4.3051,-4.3111,-4.3073,-4.3135,-4.2643,-4.1777,-4.092,-4.0535,-4.0516,-4.0504,-4.0504,-4.0504,-4.0504,-4.0504,-4.0369,-3.9619,-3.8195,-3.6643,-3.5945,-3.5664,0.0,0.0,-3.6276,-3.6723,-3.5931,-3.6228,-3.6535,-3.5842,-3.5631,-3.5412,-3.4718,-3.4598,-3.4633,0.0,-3.4102,-3.3523,-3.3523,0.0,-3.246,-3.3338,-3.2734,-3.248,-3.3301,-3.3398,-3.3398,-3.3398,-3.3398,-3.3418,-3.3456,-3.3453,-3.3484,-3.3521,-3.3429,-3.2964,-3.2101,-3.2022,-3.1572,-3.0716,-3.0803,0.0,0.0,0.0,0.0,0.0,0.0,0.0,0.0,0.0,0.0,0.0,0.0,0.0,0.0,0.0,0.0,0.0,0.0,0.0,0.0,0.0,0.0,0.0,0.0,0.0,0.0,0.0,0.0,-4.6799,-4.7291,0.0,-4.6801,-4.5955,-4.559,-4.5883,-4.5662,-4.5883,-4.6691,-4.6783,-4.7022,-4.7537,-4.7059,-4.6801,-4.6819,-4.6357,-4.5892,-4.5423,-4.3876,-4.3267,-4.3479,-4.2566,-4.2281,-4.2555,-4.3261,-4.3024,-4.2119,-4.2225,-4.2085,-4.1712,-4.0835,-4.0496,-4.0496,-4.0496,-4.0496,-4.0496,-4.0496,-4.0169,-3.9496,-3.8084,-3.7219,-3.6553,-3.5759,-3.5578,-3.5589,-3.5589,-3.5821,-3.5988,-3.5637,-3.5733,-3.5725,-3.4899,-3.4729,-3.4555,-3.378,-3.3212,-3.2876,-3.2956,-3.32,-3.34,-3.34,-3.2684,-3.2219,-3.2512,-3.1871,-3.1463,-3.1756,-3.1796,-3.1796,-3.1796,-3.1797,-3.2012,-3.2578,-3.2636,-3.2849,-3.3367,-3.2844,-3.2395,-3.2082,-3.147,-3.1042,-3.0774,-3.0796,-3.0794,0.0,0.0,0.0,0.0,0.0,0.0,0.0,0.0,0.0,0.0,0.0,0.0,0.0,0.0,0.0,0.0,0.0,0.0,0.0,0.0,0.0,0.0,0.0,0.0,0.0,-4.4966,-4.6131,-4.6315,-4.7059,-4.7381,-4.6879,-4.6441,-4.6323,-4.6653,-4.6452,-4.6673,-4.7461,-4.7498,-4.7608,-4.7902,-4.7369,-4.6837,-4.6305,-4.5773,-4.4983,-4.3932,-4.2625,-4.1976,-4.1921,-4.1315,-4.1174,-4.1468,-4.2246,-4.2009,-4.1112,-4.1201,-4.1264,-4.1206,-4.0704,-4.0496,-4.0496,-4.0496,-4.0496,-4.0458,-4.0189,-3.9361,-3.8238,-3.7084,-3.6519,-3.6199,-3.5649,-3.5522,-3.5579,-3.5579,-3.5579,-3.5554,-3.5515,-3.5277,-3.4917,-3.4347,-3.4006,-3.3618,-3.2792,-3.2236,-3.1802,-3.1575,-3.2068,-3.2523,-3.2526,-3.2047,-3.1663,-3.1665,-3.1222,-3.0894,-3.0894,-3.0896,-3.0897,-3.0897,-3.0898,-3.1133,-3.1719,-3.1758,-3.1992,-3.2516,-3.1984,-3.1663,-3.1669,-3.1051,-3.0758,-3.0791,-3.0823,-3.0832,-3.0838,0.0,0.0,0.0,0.0,0.0,0.0,0.0,0.0,0.0,0.0,0.0,0.0,0.0,0.0,0.0,0.0,0.0,0.0,0.0,0.0,0.0,0.0,0.0,-4.4163,-4.5533,-4.6428,-4.6035,-4.7082,-4.7677,-4.7307,-4.6998,-4.7191,-4.8113,-4.7532,-4.748,-4.8269,-4.8288,-4.7901,-4.7113,-4.7058,-4.6269,-4.4709,-4.4636,-4.3846,-4.2286,-4.1523,-4.0775,-4.0089,-3.956,-3.9382,-3.9514,-3.9856,-4.0045,-4.0077,-4.0148,-4.0167,-4.0196,-4.0417,-4.0489,-4.0489,-4.0489,-4.0477,-4.0342,-3.9515,-3.8104,-3.6692,-3.6673,-3.6135,-3.55,-3.55,-3.55,-3.55,-3.55,-3.55,-3.5481,-3.5462,-3.4834,-3.4186,-3.4129,-3.3468,-3.264,-3.1838,-3.1718,-3.1536,-3.0748,-3.0695,-3.0782,-3.0798,-3.0799,-3.0794,-3.0799,-3.083,0.0,-3.0855,-3.0837,-3.0819,-3.0819,-3.082,-3.082,-3.082,-3.084,-3.0859,-3.0858,-3.0818,-3.0795,-3.0791,-3.0805,-3.0805,-3.0791,-3.0875,-3.0898,-3.0859,0.0,0.0,0.0,0.0,0.0,0.0,0.0,0.0,0.0,0.0,0.0,0.0,0.0,0.0,0.0,0.0,0.0,0.0,0.0,0.0,0.0,-4.3753,-4.4558,-4.4493,-4.532,-4.597,-4.6062,-4.6118,-4.627,-4.656,-4.6966,-4.7436,-4.7875,-4.7949,-4.8086,-4.8306,-4.7736,-4.7333,-4.7113,-4.5975,-4.515,-4.4691,-4.3552,-4.2745,-4.2286,-4.0924,-4.0181,-4.0019,-3.9867,-3.9587,-3.9256,-4.0032,-4.0096,-3.967,-3.9739,-3.9765,-3.9797,-4.0148,-4.0314,-4.0349,-4.0411,-4.0095,-3.9419,-3.793,-3.7103,-3.6596,-3.6019,-3.5673,-3.55,-3.55,-3.55,-3.55,-3.55,-3.55,-3.5346,-3.4718,-3.4379,-3.3898,-3.2679,-3.2199,-3.1807,-3.0943,-3.0807,-3.0786,-3.0559,-3.0557,-3.0607,-3.0709,-3.0726,-3.0749,-3.0783,-3.0311,0.0,-2.9968,-2.9406,-2.9017,-2.9017,-2.9001,-2.9002,-2.9002,-2.9588,-2.9959,-2.9959,-3.0527,-3.0879,-3.0879,-3.0878,-3.0878,-3.0878,-3.0898,-3.0586,0.0,0.0,0.0,0.0,0.0,0.0,0.0,0.0,0.0,0.0,0.0,0.0,0.0,0.0,0.0,0.0,0.0,0.0,0.0,0.0,0.0,0.0,-4.4665,-4.5529,-4.5529,-4.5618,-4.5671,-4.5584,-4.5461,-4.5554,-4.6035,-4.6712,-4.723,-4.7563,-4.7953,-4.8043,-4.7771,-4.7332,-4.6782,-4.6122,-4.5186,-4.4397,-4.3699,-4.2782,-4.1956,-4.1277,-4.0341,-3.9748,-3.9448,-3.9491,-3.932,0.0,-3.9653,-3.9701,-3.9351,-3.9089,-3.8975,0.0,0.0,0.0,0.0,0.0,-3.9133,-3.8065,-3.7038,-3.6481,-3.6115,-3.5654,-3.55,-3.55,-3.55,-3.55,-3.55,-3.55,-3.5231,-3.4834,-3.434,-3.3686,-3.291,-3.1929,-3.1429,-3.1025,-3.0504,-3.0142,-2.9913,-2.9904,-2.9636,0.0,-2.9513,-2.9878,-3.0041,-2.9758,-2.931,-2.9011,-2.9011,-2.8568,-2.8261,-2.8261,-2.8267,-2.8252,-2.8253,-2.8742,0.0,0.0,0.0,-3.0526,-3.0878,-3.0898,0.0,0.0,0.0,0.0,0.0,0.0,0.0,0.0,-3.0703,-3.0879,0.0,0.0,0.0,0.0,0.0,0.0,0.0,0.0,0.0,0.0,0.0,0.0,0.0,0.0,0.0,0.0,-4.5513,-4.6629,-4.6461,-4.5983,-4.5449,-4.4969,-4.5029,-4.5283,-4.5658,-4.6231,-4.673,-4.7169,-4.7554,-4.7554,-4.6977,0.0,0.0,0.0,0.0,-4.3846,-4.2304,-4.2213,-4.1405,-3.99,-3.9808,-3.9386,-3.8707,-3.8747,-3.8822,-3.8881,-3.8989,-3.905,-3.8956,-3.8292,-3.7977,-3.7984,-3.8954,-3.946,-3.9572,-3.8918,-3.7822,-3.6652,-3.6582,0.0,0.0,-3.5493,-3.5493,-3.55,-3.55,-3.5423,-3.5346,-3.5346,-3.4737,-3.4032,-3.3936,-3.2814,-3.1679,-3.1583,-3.0962,-3.0365,-3.0269,-2.964,-2.9069,-2.8973,-2.8396,-2.7873,-2.7769,-2.8586,-2.9004,-2.8302,-2.8116,-2.8035,-2.8035,-2.7967,-2.7895,-2.7895,0.0,0.0,-2.7902,-2.8045,-2.8148,-2.8153,-2.8961,-2.9804,-3.0566,-3.0605,-3.0605,-3.0605,-2.9843,-2.9452,-2.9452,-2.8689,-2.8707,-2.9468,-3.0347,-3.0816,0.0,0.0,0.0,0.0,0.0,0.0,0.0,0.0,0.0,0.0,0.0,0.0,0.0,0.0,0.0,-4.3232,-4.479,-4.5629,-4.4549,-4.493,-4.5341,-4.55,-4.5055,-4.4831,-4.514,-4.5503,-4.595,-4.6454,-4.6528,-4.6576,-4.667,-4.5736,-4.5021,-4.4727,-4.4066,-4.3259,-4.2304,-4.1645,-4.0855,-3.9882,0.0,0.0,-3.8707,-3.8704,-3.8738,-3.8735,-3.8765,-3.8427,-3.7831,-3.7679,-3.7237,-3.6703,-3.7336,-3.8067,-3.8588,-3.7252,-3.6658,-3.646,-3.5795,-3.548,-3.5357,-3.5405,-3.546,-3.55,-3.55,-3.5007,0.0,-3.4449,-3.3814,-3.3006,-3.2352,-3.1948,-3.1525,-3.0827,-3.0519,-3.0212,-2.9506,-2.9223,-2.8915,-2.8261,-2.8011,-2.767,-2.6964,-2.7636,-2.8237,-2.8122,-2.7514,-2.7068,-2.7068,-2.6462,-2.6015,-2.6015,-2.6018,-2.6031,-2.6093,-2.6759,-2.7184,-2.7255,-2.8073,-2.8628,-2.8806,-2.8807,-2.8807,-2.8807,-2.8631,-2.8551,-2.8548,-2.8372,-2.8389,-2.8579,-2.9447,-3.023,0.0,0.0,0.0,0.0,0.0,0.0,0.0,0.0,0.0,0.0,0.0,-3.8451,-3.9771,0.0,-4.2157,-4.2735,-4.3734,-4.4264,-4.3762,-4.4032,-4.4423,-4.494,-4.4761,-4.4682,-4.4886,-4.5186,-4.5546,-4.601,-4.5983,-4.5878,-4.5766,-4.5055,-4.4472,-4.4069,-4.37,-4.291,-4.1717,-4.1297,-4.0506,-3.9294,-3.8891,-3.8707,-3.8707,-3.8707,-3.8707,-3.8707,-3.8707,-3.823,-3.7437,-3.6597,-3.6009,-3.5634,-3.5539,-3.6097,-3.6904,-3.6217,-3.5796,-3.5552,-3.5177,-3.5122,-3.5231,-3.5331,-3.5117,-3.4853,-3.4853,-3.4237,-3.3545,-3.3545,-3.2949,-3.2218,-3.1795,-3.1391,-3.0942,-3.05,-3.0077,-2.9621,-2.9184,-2.8434,-2.7736,-2.7332,-2.6909,-2.6467,-2.6015,-2.6347,-2.6672,-2.675,-2.6412,-2.6158,-2.6158,-2.5763,-2.5508,-2.5508,-2.5508,-2.5506,-2.5543,-2.5977,-2.6459,-2.6929,-2.7353,-2.7792,-2.8229,-2.8248,-2.8248,-2.8248,-2.7858,-2.7642,-2.7641,-2.7212,-2.7211,-2.766,-2.8095,-2.876,0.0,0.0,0.0,0.0,0.0,0.0,0.0,-3.6492,-3.6676,-3.7322,-3.7424,-3.7868,-3.9411,-4.0497,-4.1422,-4.2149,-4.2627,-4.2989,-4.3218,-4.3206,-4.3426,-4.4093,-4.4412,-4.4626,-4.4765,-4.4968,-4.5257,-4.5658,-4.541,-4.5121,-4.4814,-4.4299,-4.3743,-4.3157,-4.306,-4.2341,-4.0875,-4.0873,-4.0139,-3.8707,-3.8707,-3.8707,-3.8707,-3.8707,-3.8615,-3.845,-3.812,-3.7606,-3.689,-3.5389,-3.4766,-3.4711,-3.4099,-3.4399,-3.5188,-3.5364,-3.5075,-3.4643,-3.4735,-3.4889,-3.5062,-3.5193,-3.4756,-3.4166,-3.4166,-3.3429,-3.2609,-3.2609,-3.2058,-3.143,-3.143,-3.0905,-3.0348,-3.0175,-2.9585,-2.8994,-2.8673,-2.7544,-2.6544,-2.639,-2.5788,-2.5308,-2.5308,-2.5308,-2.5327,-2.5372,-2.5432,-2.5464,-2.5464,-2.5464,-2.5464,-2.5464,-2.5313,-2.5236,-2.5249,-2.5446,-2.5883,-2.6578,-2.6638,-2.6936,-2.7651,-2.767,-2.767,-2.767,-2.7048,-2.6721,-2.673,-2.6048,-2.6053,-2.6742,-2.6742,-2.7309,-3.6123,-3.6085,-3.6211,-3.6242,-3.6383,-3.6492,0.0,-3.6492,-3.6645,-3.7131,-3.7678,-3.832,-3.9103,-4.0505,-4.1422,-4.1053,-4.1682,-4.2145,-4.201,-4.2491,-4.3047,-4.3608,-4.4224,-4.4615,-4.4626,-4.4654,-4.4831,-4.523,-4.4279,-4.3892,-4.4432,-4.2847,-4.1996,-4.2156,-4.1635,-4.0946,-4.0029,-4.0029,-3.9588,-3.8707,-3.8707,-3.8707,-3.8707,-3.8707,-3.8303,-3.7547,-3.605,-3.5353,-3.5206,-3.4321,-3.3935,-3.3935,-3.3839,-3.387,-3.401,-3.4278,-3.4391,-3.4443,-3.4583,-3.4711,-3.486,-3.4982,-3.4581,-3.4018,-3.4018,-3.2878,-3.1585,-3.1632,-3.1084,-3.0459,-3.0459,-3.0375,-3.0113,-2.9352,-2.9071,-2.8617,-2.7193,-2.674,-2.6365,-2.5596,-2.5365,-2.5308,-2.5308,-2.5308,-2.5308,-2.5317,-2.5322,-2.5322,-2.5322,-2.5322,-2.5322,-2.5322,-2.4677,-2.4274,-2.4331,-2.5059,-2.5541,-2.5651,-2.5651,-2.5693,-2.5793,-2.5793,-2.5793,-2.5793,-2.5761,-2.5764,-2.5763,-2.5722,-2.5755,-2.5844,-2.5844,-2.6722,-3.5948,-3.5847,-3.5943,-3.6133,-3.5983,-3.5753,-3.5907,-3.5523,-3.5447,-3.641,-3.7012,-3.7637,-3.8732,-3.9667,-4.0243,-4.0011,-4.0299,-4.0642,-4.1003,-4.1804,-4.2568,-4.3248,-4.408,-4.4615,-4.4615,-4.4615,-4.4523,-4.4353,-4.3674,-4.3095,-4.2678,-4.1902,-4.1359,-4.1071,-4.0972,-4.0542,-3.9737,-3.9804,-3.9417,-3.8575,-3.8658,-3.8707,-3.8707,-3.8707,-3.8267,-3.7419,-3.572,-3.5004,-3.4949,-3.4137,-3.3807,-3.3807,-3.3807,-3.3807,-3.3802,-3.3921,-3.3998,-3.4074,-3.4209,-3.4337,-3.4467,-3.4612,-3.3876,-3.2943,-3.2943,-3.1767,-3.0435,-3.0544,-3.0357,-3.0133,-3.0133,-2.9777,-2.9344,-2.8975,-2.8134,-2.7268,-2.6628,-2.6118,-2.569,-2.5301,-2.5273,-2.5307,-2.5307,-2.5298,-2.5308,-2.5308,-2.5308,-2.5308,-2.5308,-2.5308,-2.5308,-2.5308,-2.4576,-2.4112,-2.4138,-2.4057,-2.4198,-2.4707,-2.4745,-2.4978,-2.5482,-2.5501,-2.5501,-2.5501,-2.5538,-2.5551,-2.5598,-2.5626,-2.5648,-2.5644,-2.5687,-2.6083,-3.5756,-3.5535,-3.548,-3.5733,-3.5354,-3.4957,-3.5078,-3.462,-3.4545,-3.5795,-3.6256,-3.6815,-3.8105,-3.8762,-3.9125,-3.9125,-3.929,-3.9661,-4.0385,-4.136,-4.2269,-4.3005,-4.3993,-4.4615,-4.4615,-4.4412,-4.4128,-4.3722,-4.2894,-4.2089,-4.1342,-4.0745,-4.0261,-3.9857,-3.9878,-3.9637,-3.9108,-3.9261,-3.9051,-3.8478,-3.8643,-3.8707,-3.8689,-3.8248,-3.7588,-3.6725,-3.5279,-3.4674,-3.4619,-3.4045,-3.3807,-3.3807,-3.3807,-3.3807,-3.3807,-3.3807,-3.3807,-3.382,-3.3934,-3.4049,-3.4146,-3.4057,-3.3141,-3.209,-3.1845,-3.0791,-2.9671,-2.9775,-2.9886,-2.995,-2.995,-2.9331,-2.8662,-2.8438,-2.7279,-2.6179,-2.6041,-2.556,-2.5171,-2.5201,-2.5247,-2.5311,-2.5311,-2.5293,-2.5308,-2.5308,-2.5308,-2.5308,-2.5308,-2.5308,-2.5115,-2.4654,-2.4292,-2.4006,-2.3769,-2.3207,-2.3145,-2.3779,-2.3817,-2.4107,-2.4725,-2.4764,-2.4764,-2.4764,-2.4768,-2.4807,-2.4862,-2.5107,-2.5211,-2.5254,-2.5539,-2.5669,-3.5504,-3.5138,-3.4723,-3.4723,-3.4486,-3.4209,-3.406,-3.4134,-3.4485,-3.5512,-3.5735,-3.6092,-3.7229,-3.7973,-3.8422,-3.8422,-3.899,-3.9661,-4.0385,-4.136,-4.2269,-4.3005,-4.3993,-4.4615,-4.4615,-4.3893,-4.3508,-4.3688,-4.1656,-4.0568,-4.0977,-3.9116,-3.8149,-3.8449,-3.7913,-3.7685,-3.7863,-3.8053,-3.8238,-3.8417,-3.8593,-3.8707,-3.8652,-3.7074,-3.5899,-3.5041,-3.4211,-3.3844,-3.3825,-3.3807,-3.3807,-3.3807,-3.3807,-3.3807,-3.3807,-3.3807,-3.3807,-3.382,-3.3868,-3.3998,-3.3994,-3.3275,-3.2542,-3.1752,-3.098,-3.0176,-2.9531,-2.9589,-2.9699,-2.9816,-2.9816,-2.9154,-2.8312,-2.7522,-2.6665,-2.5819,-2.5182,-2.5063,-2.5121,-2.5187,-2.5255,-2.5311,-2.5311,-2.5293,-2.5308,-2.5308,-2.5308,-2.5308,-2.5308,-2.5308,-2.4673,-2.3047,-2.361,-2.3764,-2.2913,-2.2816,-2.2821,-2.284,-2.284,-2.2859,-2.2879,-2.2879,-2.2879,-2.2879,-2.2944,-2.2991,-2.2979,-2.3822,-2.4279,-2.4366,-2.5209,-2.5602,-3.4848,-3.44,-3.3952,-3.4075,-3.3653,-3.3243,-3.3317,-3.2954,-3.2956,-3.4136,-3.4283,-3.476,-3.651,-3.7315,-3.7883,-3.8317,-3.8975,-3.9811,-4.1069,-4.1677,-4.2446,-4.3626,-4.4248,-4.4615,-4.4615,-4.3876,-4.3217,-4.2807,-4.124,-3.9968,-3.918,-3.8304,-3.7682,-3.7358,-3.7312,-3.7394,-3.7523,-3.7774,-3.7983,-3.8136,-3.7885,-3.7546,-3.7074,-3.594,-3.5279,-3.4968,-3.4156,-3.3807,-3.3807,-3.3807,-3.3807,-3.3807,-3.3807,-3.3807,-3.3807,-3.3807,-3.3807,-3.3788,-3.3834,-3.3855,-3.3766,-3.2999,-3.2207,-3.1413,-3.0611,-2.9806,-2.9181,-2.931,-2.9394,-2.9474,-2.9474,-2.8456,-2.7362,-2.7101,-2.5952,-2.4909,-2.4813,-2.4881,-2.4994,-2.5107,-2.5184,-2.5239,-2.5239,-2.5222,-2.5238,-2.5238,-2.5264,-2.5308,-2.5308,-2.5308,-2.5077,-2.4519,-2.3735,-2.3124,-2.2816,-2.1773,-2.137,-2.1908,-2.1947,-2.2197,-2.2778,-2.2797,-2.2797,-2.2797,-2.2827,-2.286,-2.291,-2.3763,-2.4214,-2.4258,-2.5127,-2.5565,-3.4219,-3.3649,-3.3171,-3.3307,-3.3035,-3.2719,-3.2808,-3.2642,-3.2779,-3.3788,-3.3741,-3.4038,-3.5818,-3.6656,-3.7285,-3.7943,-3.902,-4.0082,-4.105,-4.1881,-4.2719,-4.3642,-4.4232,-4.4615,-4.4615,-4.3623,-4.2811,-4.2337,-4.0519,-3.9057,-3.8172,-3.7458,-3.6924,-3.6588,-3.6756,-3.6935,-3.7147,-3.7357,-3.7524,-3.76,-3.708,-3.6479,-3.5826,-3.5261,-3.4839,-3.4546,-3.4027,-3.3807,-3.3807,-3.3807,-3.3807,-3.3807,-3.3807,-3.3807,-3.3807,-3.3807,-3.3807,-3.3807,-3.3807,-3.3807,-3.3623,-3.254,-3.1825,-3.1213,-3.0099,-2.9409,-2.9028,-2.9123,-2.9203,-2.9259,-2.9259,-2.8064,-2.6868,-2.683,-2.557,-2.4408,-2.4586,-2.4723,-2.4865,-2.4972,-2.5076,-2.513,-2.5136,-2.5162,-2.5201,-2.5192,-2.5238,-2.5163,-2.4874,-2.5086,-2.5143,-2.4874,-2.388,-2.3093,-2.279,-2.1517,-2.0826,-2.1022,-2.1041,-2.1291,-2.1853,-2.1872,-2.1872,-2.1872,-2.1865,-2.1882,-2.1937,-2.3101,-2.3677,-2.374,-2.4904,-2.5487,-3.3619,-3.2961,-3.2437,-3.2437,-3.2571,-3.2675,-3.2542,-3.3126,-3.3833,-3.44,-3.3918,-3.3873,-3.525,-3.6013,-3.6656,-3.73,-3.9095,-4.0429,-4.0523,-4.1974,-4.3041,-4.3135,-4.401,-4.4581,-4.4547,-4.3166,-4.2252,-4.2185,0.0,-3.7895,-3.7946,-3.6593,-3.5927,-3.6182,-3.6204,-3.6353,-3.6681,-3.6801,-3.6841,-3.6817,-3.6212,-3.5561,-3.4935,-3.4935,-3.4527,-3.3807,-3.3807,-3.3807,-3.3807,-3.3807,-3.3807,-3.3807,-3.3807,-3.3807,-3.3807,-3.3807,-3.3807,-3.3807,-3.3807,-3.3807,-3.3532,-3.1916,-3.1397,-3.1103,-2.9482,-2.9005,-2.9017,-2.9085,-2.9134,-2.9189,-2.9189,-2.7996,-2.6777,-2.6712,-2.5475,-2.433,-2.4461,-2.4586,-2.4715,-2.4791,-2.4905,-2.4993,-2.4987,-2.5099,-2.5193,-2.5201,-2.5206,-2.4919,-2.4152,-2.4732,-2.4905,-2.4133,-2.4018,-2.3654,-2.2777,-2.1952,-2.1128,-2.025,-2.0193,-2.0193,-2.0193,-2.0193,-2.0193,-2.0193,-2.0193,-2.0193,-2.0193,-2.188,-2.2734,-2.2838,-2.4581,-2.541,-3.2946,-3.2258,-3.175,-3.175,-3.2153,-3.2542,-3.2512,-3.3051,-3.3741,-3.4369,-3.3559,-3.332,-3.5175,-3.5639,-3.6118,-3.7225,-3.9095,-4.0631,-4.1238,-4.2273,-4.3218,-4.3789,-4.4282,-4.435,-4.3775,-4.2844,-4.183,-4.0747,-3.8954,-3.7675,-3.7123,-3.6277,-3.5883,-3.6058,-3.6144,-3.6314,-3.6544,-3.6332,-3.6096,-3.5773,-3.511,-3.453,-3.4037,-3.4037,-3.3954,-3.3807,-3.3807,-3.3807,-3.3807,-3.3807,-3.3807,-3.3807,-3.3807,-3.3807,-3.3807,-3.3807,-3.3807,-3.3807,-3.3807,-3.3807,-3.3532,-3.1916,-3.1397,-3.1103,-2.9482,-2.9005,-2.9005,-2.9028,-2.904,-2.9051,-2.9051,-2.7868,-2.6654,-2.6636,-2.5404,-2.4256,-2.433,-2.4426,-2.451,-2.4629,-2.4757,-2.4861,-2.4922,-2.5032,-2.5144,-2.5184,-2.5195,-2.513,-2.4919,-2.5077,-2.5116,-2.4924,-2.4363,-2.3654,-2.2777,-2.1952,-2.1128,-2.025,-2.0193,-2.0193,-2.0193,-2.0193,-2.0193,-2.0193,-2.0193,-2.0193,-2.0193,-2.188,-2.2734,-2.2838,-2.4538,-2.5351,-3.2303,-3.1795,-3.1511,-3.1511,-3.2213,-3.2946,-3.2946,-3.3694,-3.4397,-3.4488,-3.3664,-3.338,-3.4801,-3.5055,-3.5564,-3.715,-3.8856,-4.0218,-4.1003,-4.2194,-4.317,-4.3609,-4.3914,-4.391,-4.3426,-4.2455,-4.1204,-3.9732,-3.8565,-3.7584,-3.6846,-3.6113,-3.58,-3.5997,-3.6062,-3.6208,-3.6402,-3.5634,-3.5186,-3.5047,-3.4159,-3.3671,-3.3526,-3.3615,-3.3712,-3.3807,0.0,-3.3807,-3.3807,-3.3807,-3.3807,-3.3807,-3.3807,-3.3807,-3.3807,-3.3807,-3.3807,-3.3807,-3.3807,-3.3807,-3.3532,-3.1916,-3.1397,-3.1103,-2.9482,-2.9005,-2.9005,-2.9005,-2.9005,-2.9005,-2.9005,-2.8069,-2.7034,-2.6675,-2.564,-2.4641,-2.4321,-2.4311,-2.4392,-2.4495,-2.4626,-2.4734,-2.479,-2.4898,-2.4992,-2.5051,-2.5063,-2.5075,-2.5068,-2.5145,-2.5198,-2.5198,-2.4791,-2.4025,-2.2761,-2.2245,-2.146,-2.0235,-2.0158,-2.0158,-2.0158,-2.0158,-2.0158,-2.0158,-2.0158,-2.0158,-2.0158,-2.1843,-2.2681,-2.2806,-2.4484,-2.5283,-3.1854,-3.1511,-3.1525,-3.1615,-3.2497,-3.338,-3.3469,-3.4397,-3.507,-3.4503,-3.3829,-3.3589,-3.4369,-3.4503,-3.51,-3.6985,-3.8482,-3.9631,-4.0263,-4.1895,-4.3025,-4.3086,-4.328,-4.3358,-4.324,-4.2016,-4.0561,-3.8971,-3.8261,-3.7533,-3.6694,-3.5994,-3.5734,-3.5997,-3.6019,-3.6127,-3.6301,-3.4946,-3.4392,-3.458,-3.34,-3.3008,-3.3276,-3.3455,-3.3629,-3.378,-3.378,0.0,-3.3793,-3.3793,-3.3775,-3.3807,-3.3807,-3.3807,-3.3807,-3.3807,-3.3807,-3.3807,-3.3807,-3.3807,-3.355,-3.2045,-3.1488,-3.1109,-2.961,-2.9078,-2.9005,-2.9005,-2.9005,-2.9005,-2.9005,-2.8411,-2.7603,-2.6796,-2.5988,-2.5182,-2.4366,-2.4247,-2.4303,-2.4364,-2.4469,-2.4572,-2.466,-2.4719,-2.4794,-2.4861,-2.4874,-2.4874,-2.4874,-2.5044,-2.5168,-2.5168,-2.5168,-2.4456,-2.2713,-2.2579,-2.1878,-2.0198,-2.0103,-2.0108,-2.0093,-2.0093,-2.0093,-2.0093,-2.0093,-2.0093,-2.0093,-2.1683,-2.2521,-2.2742,-2.4293,-2.5089,-3.1854,-3.1511,-3.163,-3.2183,-3.2512,-3.2826,-3.3365,-3.3679,-3.3814,-3.3694,-3.314,-3.3051,-3.4279,-3.4503,-3.4983,-3.6417,-3.8212,-3.9465,-3.9637,-4.1598,-4.3025,-4.3086,-4.328,-4.3139,-4.254,-4.1711,-4.0341,-3.8261,-3.7973,-3.7297,-3.587,-3.5667,-3.5734,-3.5997,-3.6101,-3.6208,-3.6301,-3.4921,-3.4314,-3.4485,-3.3178,-3.2753,-3.3147,-3.322,-3.3397,-3.3629,-3.3629,0.0,-3.3712,-3.3712,-3.3753,-3.3807,-3.3807,-3.3807,-3.3807,-3.3807,-3.3807,-3.3807,-3.3807,-3.3807,-3.3642,-3.2706,-3.1935,-3.1231,-3.0283,-2.9537,-2.9005,-2.9005,-2.9005,-2.9005,-2.9005,-2.8411,-2.7603,-2.6796,-2.5988,-2.5172,-2.4365,-2.4209,-2.4218,-2.4219,-2.4303,-2.4375,-2.4442,-2.4553,-2.4653,-2.4719,-2.4727,-2.4727,-2.4727,-2.4865,-2.4942,-2.4942,-2.4942,-2.4277,-2.2582,-2.2498,-2.1798,-2.0111,-2.0069,-2.0108,-2.0093,-2.0093,-2.0093,-2.0093,-2.0093,-2.0093,-2.0093,-2.1115,-2.1971,-2.2723,-2.3675,-2.4509,-3.2273,-3.1765,-3.166,-3.2318,-3.2512,-3.2691,-3.335,-3.3499,-3.3395,-3.3051,-3.2736,-3.2706,-3.3335,-3.3739,-3.4412,-3.5759,-3.733,-3.8607,-3.9395,-4.122,-4.2478,-4.2514,-4.2712,-4.254,-4.1796,-4.1052,-3.9868,-3.8041,-3.7905,-3.7246,-3.5684,-3.5667,-3.5756,-3.5905,-3.6036,-3.5934,-3.5565,-3.455,-3.3908,-3.3608,-3.272,-3.2421,-3.2687,-3.2832,-3.3006,-3.3187,-3.3276,0.0,-3.3498,-3.3601,-3.3712,-3.3807,-3.3807,-3.3807,-3.3807,-3.3807,-3.3807,-3.3807,-3.3807,-3.3532,-3.3109,-3.2729,-3.2063,-3.1176,-2.9941,-2.9317,-2.9005,-2.9005,-2.9005,-2.9005,-2.9005,-2.8712,-2.8117,-2.6877,-2.5676,-2.4677,-2.4281,-2.419,-2.419,-2.419,-2.4228,-2.4257,-2.4338,-2.4428,-2.4515,-2.4545,-2.4543,-2.4543,-2.4543,-2.4596,-2.4674,-2.4775,-2.4801,-2.4122,-2.2437,-2.2357,-2.1706,-2.005,-2.0015,-2.0055,-2.0088,-2.0093,-2.0093,-2.0093,-2.0093,-2.0093,-2.0093,-2.0962,-2.1603,-2.2053,-2.3304,-2.4113,-3.2736,-3.2108,-3.1869,-3.2557,-3.2512,-3.2512,-3.3305,-3.3275,-3.2931,-3.2378,-3.2273,-3.2318,-3.2452,-3.2931,-3.3724,-3.507,-3.6252,-3.7496,-3.8872,-4.0654,-4.1786,-4.1762,-4.2078,-4.1999,-4.1271,-4.0375,-3.9334,-3.8007,-3.7577,-3.6867,-3.5667,-3.5689,-3.5773,-3.5795,-3.5905,-3.5634,-3.4903,-3.4216,-3.3502,-3.2784,-3.2292,-3.2126,-3.2283,-3.2454,-3.2621,-3.2765,-3.2941,0.0,0.0,-3.3426,-3.3629,-3.378,-3.378,-3.3793,-3.3807,-3.3807,-3.3697,-3.3532,-3.3532,-3.3018,-3.2307,-3.2142,-3.1659,-3.0907,-2.9629,-2.9133,-2.9005,-2.9005,-2.9005,-2.9005,-2.9005,-2.8877,-2.8345,-2.6741,-2.5254,-2.419,-2.419,-2.419,-2.419,-2.419,-2.42,-2.4219,-2.4275,-2.4312,-2.4358,-2.4365,-2.4355,-2.4355,-2.4355,-2.4355,-2.4426,-2.458,-2.4629,-2.3959,-2.2311,-2.2224,-2.1576,-1.9981,-1.9934,-2.001,-2.0079,-2.0236,-2.0337,-2.0365,-2.0542,-2.0642,-2.0647,-2.1325,-2.1746,-2.1975,-2.3288,-2.3995,-3.2856,-3.2467,-3.2557,-3.3245,-3.2497,-3.1929,-3.3215,-3.2572,-3.1675,-3.16,-3.1585,-3.178,-3.2378,-3.2557,-3.3036,-3.4352,-3.519,-3.6155,-3.7474,-3.9661,-4.1076,-4.101,-4.176,-4.1999,-4.1271,-3.9935,-3.8768,-3.7973,-3.6597,-3.5752,-3.56,-3.5622,-3.5667,-3.5795,-3.5817,-3.5526,-3.492,-3.4117,-3.3405,-3.2784,-3.2143,-3.1965,-3.2214,-3.2283,-3.2437,-3.2621,-3.2702,0.0,0.0,-3.3205,-3.3426,-3.3712,-3.3712,-3.3753,-3.3807,-3.3807,-3.3348,-3.2711,-3.2711,-3.2173,-3.1384,-3.0668,-3.0375,-3.0283,-3.0136,-2.9574,-2.9005,-2.9005,-2.9005,-2.9005,-2.9005,-2.8466,-2.7493,-2.5888,-2.4842,-2.419,-2.419,-2.419,-2.419,-2.419,-2.4199,-2.4199,-2.4209,-2.4209,-2.4218,-2.4218,-2.4218,-2.4218,-2.4218,-2.4218,-2.4228,-2.4247,-2.4356,-2.3773,-2.2154,-2.2085,-2.1466,-1.9907,-1.9867,-1.9936,-2.0004,-2.0714,-2.1122,-2.1192,-2.198,-2.2364,-2.2371,-2.2448,-2.2906,-2.3665,-2.3837,-2.432,-3.4029,-3.3261,-3.2901,-3.386,-3.2796,-3.1854,-3.32,-3.2452,-3.1511,-3.1511,-3.1511,-3.1585,-3.1854,-3.2572,-3.3275,-3.3799,-3.513,-3.6408,-3.7269,-3.8952,-4.0032,-3.9836,-4.0606,-4.0906,-4.0239,-3.9337,-3.8343,-3.7313,-3.6231,-3.56,-3.56,-3.56,-3.5419,-3.5028,-3.5011,-3.4495,-3.3352,-3.3104,-3.2616,-3.1908,-3.1752,-3.1746,-3.1839,-3.1948,-3.2002,-3.2002,-3.2231,0.0,0.0,-3.288,-3.319,-3.3484,-3.3587,-3.3712,-3.3733,-3.3256,-3.2858,-3.2528,-3.2045,-3.1347,-3.0613,-3.0301,-2.9879,-2.9482,-2.9482,-2.9244,-2.9005,-2.9005,-2.9005,-2.9005,-2.9005,-2.8033,-2.6796,-2.5668,-2.4787,-2.419,-2.419,-2.419,-2.419,-2.419,-2.419,-2.419,-2.419,-2.419,-2.419,-2.419,-2.419,-2.419,-2.419,-2.419,-2.419,-2.419,-2.4247,-2.3639,-2.2015,-2.1932,-2.1306,-1.9716,-2.0162,-2.0502,-2.054,-2.1387,-2.189,-2.1969,-2.235,-2.2552,-2.2601,-2.2601,-2.2772,-2.3135,-2.3665,-2.4091,-3.511,-3.4182,-3.3532,-3.4373,-3.3171,-3.2093,-3.3245,-3.2452,-3.1511,-3.1511,-3.1511,-3.157,-3.1765,-3.2587,-3.3335,-3.3724,-3.4966,-3.615,-3.6833,-3.8105,-3.884,-3.8565,-3.9365,-3.9649,-3.89,-3.826,-3.7491,-3.6512,-3.5926,-3.56,-3.56,-3.56,-3.5267,-3.4506,-3.4489,-3.38,-3.231,-3.2388,-3.2074,-3.1295,-3.143,-3.1542,-3.1598,-3.1671,-3.1671,-3.1617,-3.1839,0.0,0.0,-3.2555,-3.2943,-3.3276,-3.343,-3.3587,-3.3629,-3.2842,-3.2402,-3.2072,-3.1286,-3.0509,-2.9861,-2.9861,-2.9464,-2.9005,-2.9005,-2.9005,-2.9005,-2.9005,-2.9005,-2.8895,-2.8418,-2.7446,-2.6337,-2.5301,-2.4622,-2.419,-2.419,-2.419,-2.419,-2.419,-2.419,-2.419,-2.419,-2.419,-2.419,-2.419,-2.419,-2.419,-2.419,-2.419,-2.419,-2.419,-2.419,-2.3557,-2.1941,-2.1835,-2.1301,-1.994,-2.048,-2.0959,-2.1213,-2.2114,-2.2641,-2.2715,-2.3019,-2.3207,-2.3271,-2.3271,-2.3271,-2.329,-2.3919,-2.4211,-3.59,-3.5202,-3.4678,-3.4693,-3.3592,-3.2677,-3.335,-3.2452,-3.1511,-3.1511,-3.1511,-3.1705,-3.2377,-3.2512,-3.2946,-3.4279,-3.4518,-3.4885,-3.5866,-3.7015,-3.7577,-3.715,-3.8193,-3.846,-3.7328,-3.6627,-3.6038,-3.5645,-3.56,0.0,-3.56,-3.56,-3.5267,-3.4506,-3.4489,-3.38,-3.231,-3.2293,-3.1961,-3.1295,-3.1295,-3.1411,-3.1598,-3.1538,-3.1538,-3.1598,0.0,0.0,0.0,-3.2214,-3.2653,-3.3205,-3.3205,-3.3371,-3.3496,-3.2707,-3.1891,-3.112,-3.0374,-2.963,-2.9005,-2.9005,-2.9005,-2.9005,-2.9005,-2.9005,-2.9005,-2.9005,-2.9005,-2.8638,-2.7042,-2.6602,-2.6209,-2.4593,-2.4208,-2.419,-2.419,-2.419,-2.419,-2.419,-2.419,-2.419,-2.419,-2.419,-2.419,-2.419,-2.419,-2.419,-2.419,-2.419,-2.419,-2.419,-2.419,-2.3557,-2.1941,-2.18,-2.1473,-2.0728,-2.0696,-2.1096,-2.194,-2.2818,-2.3359,-2.3494,-2.4331,-2.4799,-2.4889,-2.4889,-2.4889,-2.4889,-2.4889,-2.4922,-3.6911,-3.6071,-3.5446,-3.5674,-3.4273,-3.2989,-3.3578,-3.2675,-3.167,-3.1539,-3.1854,-3.2243,-3.2452,-3.3245,-3.4024,-3.4444,-3.4876,-3.5347,-3.5737,-3.63,-3.6708,-3.68,-3.7414,-3.7582,-3.6973,-3.6564,-3.6125,-3.5628,-3.56,-3.56,-3.56,-3.56,-3.5025,-3.3795,-3.3744,-3.3034,-3.1546,-3.1565,-3.143,-3.1232,-3.1274,-3.1334,-3.1408,-3.1481,-3.1462,0.0,0.0,0.0,0.0,-3.2002,-3.2403,-3.28,-3.2945,-3.3099,-3.3084,-3.1747,-3.111,-3.0758,-2.9555,-2.9071,-2.9005,-2.9005,-2.8964,-2.8929,-2.8929,-2.8952,-2.9005,-2.9005,-2.9005,-2.8638,-2.7024,-2.6602,-2.619,-2.4575,-2.419,-2.419,-2.419,-2.419,-2.419,-2.419,-2.419,-2.419,-2.419,-2.419,-2.419,-2.419,-2.419,-2.419,-2.419,-2.419,-2.419,-2.419,-2.419,-2.3557,-2.1941,-2.2299,-2.2032,-2.0643,-2.1644,-2.2389,-2.2664,-2.3517,-2.4019,-2.411,-2.449,-2.47,-2.4764,-2.4764,-2.4764,-2.4764,-2.4764,-2.4801,-3.7636,-3.6427,-3.5478,-3.5629,-3.4315,-3.3105,-3.3411,-3.2626,-3.1831,-3.1926,-3.2242,-3.2662,-3.3155,-3.3724,-3.4309,-3.4786,-3.5011,-3.5222,-3.5591,-3.5814,-3.5993,-3.6214,-3.6463,-3.654,-3.6376,-3.6082,-3.5823,-3.5611,-3.56,-3.56,-3.56,-3.56,-3.5042,-3.3846,-3.3829,-3.3102,-3.1633,-3.1633,-3.1481,-3.119,-3.1252,-3.1274,-3.1295,-3.1349,-3.1349,0.0,0.0,0.0,0.0,-3.1747,-3.2144,-3.2488,-3.2605,-3.2768,-3.2731,-3.1154,-3.0621,-3.0492,-2.9125,-2.881,-2.8994,-2.8964,-2.8917,-2.887,-2.8893,-2.8929,-2.8964,-2.8994,-2.9005,-2.8638,-2.7024,-2.6602,-2.619,-2.4575,-2.419,-2.419,-2.417,-2.4161,-2.4161,-2.4141,-2.4113,-2.4113,-2.4113,-2.4113,-2.4113,-2.4113,-2.4113,-2.4113,-2.4113,-2.4113,-2.4113,-2.4113,-2.4113,-2.3601,-2.2282,-2.2676,-2.2547,-2.152,-2.2419,-2.3134,-2.3428,-2.3971,-2.4284,-2.4355,-2.4471,-2.4539,-2.4594,-2.4594,-2.4594,-2.4594,-2.4594,-2.4642,0.0,-3.65,-3.5172,-3.5018,-3.4075,-3.3149,-3.3103,-3.2472,0.0,-3.2508,-3.2586,-3.2961,-3.4219,-3.3978,-3.4053,-3.531,-3.4966,-3.4771,-3.5415,-3.5537,-3.554,-3.5506,-3.5498,-3.5524,-3.5603,-3.5297,-3.5228,-3.5554,-3.56,-3.56,-3.56,-3.56,-3.5301,-3.459,-3.4523,-3.38,-3.231,-3.2242,-3.1887,-3.119,-3.119,-3.1232,-3.1276,-3.1232,-3.1232,0.0,0.0,0.0,0.0,-3.1504,-3.1875,-3.2266,-3.2266,-3.2334,-3.2291,-3.0885,-3.0368,-3.0209,-2.8989,-2.8761,-2.8964,-2.8917,-2.8846,-2.8798,-2.887,-2.8893,-2.8917,-2.8982,-2.9005,-2.8638,-2.7024,-2.6602,-2.619,-2.4575,-2.4208,-2.417,-2.4103,-2.4094,-2.4074,-2.4006,-2.3996,-2.3996,-2.3996,-2.3996,-2.3996,-2.3996,-2.3996,-2.3996,-2.3996,-2.3996,-2.3996,-2.3996,-2.3996,-2.3704,-2.2947,-2.2996,-2.3052,-2.2997,-2.3033,-2.34,-2.4143,-2.4182,-2.4229,-2.4275,-2.4339,-2.4375,-2.4372,-2.4372,-2.4399,-2.4399,-2.4399,-2.4461,-3.8538,0.0,-3.7144,-3.6868,-3.5836,-3.4711,0.0,-3.3241,-3.2549,-3.1911,-3.2557,-3.3365,-3.3664,-3.4442,-3.513,-3.5459,-3.537,-3.5325,-3.5489,-3.5716,-3.581,-3.5596,-3.5514,-3.5502,-3.5509,-3.5168,-3.5111,-3.5498,-3.552,-3.5543,-3.56,-3.56,-3.5515,-3.5346,-3.4793,-3.38,-3.231,-3.1752,-3.136,-3.119,-3.119,-3.121,-3.1213,-3.121,-3.121,0.0,0.0,0.0,-3.1232,-3.1443,-3.1635,-3.1859,-3.1893,-3.1583,-3.0977,-3.0223,-2.9665,-2.9189,-2.8581,-2.8587,-2.8834,-2.8773,-2.8731,-2.8737,-2.8731,-2.8815,-2.8917,-2.8982,-2.9005,-2.8638,-2.7024,-2.6602,-2.619,-2.4575,-2.4161,-2.4113,-2.4103,-2.4064,-2.4016,-2.4006,-2.3996,-2.3996,-2.3996,-2.3996,-2.3996,-2.3996,-2.3996,-2.3996,-2.3996,-2.3996,-2.3996,-2.3996,-2.3996,-2.3923,-2.3722,-2.3742,-2.3496,-2.2884,-2.3423,-2.3853,-2.4036,-2.4046,-2.4056,-2.4075,-2.4142,-2.4171,-2.4172,-2.4228,-2.4247,-2.4247,-2.4247,-2.4294,-3.8311,-3.7703,-3.705,-3.674,-3.5779,-3.4757,-3.4211,-3.3454,-3.2792,-3.2556,-3.2781,-3.323,-3.3844,-3.4292,-3.4786,-3.54,-3.5235,-3.5145,-3.5459,-3.5797,-3.5782,-3.5178,-3.5237,-3.5179,-3.4767,-3.4734,-3.4835,-3.5165,-3.5337,-3.5475,-3.56,-3.56,-3.543,-3.5115,-3.4387,-3.3609,-3.2797,-3.2073,-3.1532,-3.119,-3.119,-3.119,-3.119,-3.119,-3.119,0.0,0.0,0.0,-3.121,-3.1349,-3.1502,-3.1582,-3.1275,-3.0898,-3.04,-2.9488,-2.9025,-2.8752,-2.8312,-2.8414,-2.87,-2.8694,-2.8669,-2.8662,-2.8682,-2.8743,-2.8815,-2.8881,-2.8912,-2.8539,-2.694,-2.6519,-2.6098,-2.4488,-2.4084,-2.4054,-2.4016,-2.3986,-2.3955,-2.3917,-2.3907,-2.3907,-2.3907,-2.3907,-2.3907,-2.3907,-2.3907,-2.3907,-2.3907,-2.3907,-2.3907,-2.3907,-2.3907,-2.3907,-2.3907,-2.3907,-2.3745,-2.3366,-2.3759,-2.3996,-2.3996,-2.3996,-2.3996,-2.3996,-2.4074,-2.4094,-2.4094,-2.417,-2.419,-2.419,-2.419,-2.4209,-3.7817,-3.702,-3.6152,-3.6034,-3.5232,-3.4484,-3.4317,-3.3607,-3.3126,-3.3593,-3.3126,-3.3036,-3.4279,-3.4054,-3.4053,-3.531,-3.5011,-3.4846,-3.5429,-3.5674,-3.5445,-3.4549,-3.475,-3.4589,-3.3803,-3.4102,-3.4456,-3.4738,-3.5048,-3.5297,-3.5532,-3.5554,-3.5222,-3.4484,-3.3736,-3.3334,-3.3237,-3.2513,-3.1819,-3.119,-3.119,-3.119,-3.119,-3.119,-3.119,-3.119,0.0,0.0,-3.121,-3.1254,-3.1281,-3.1221,-3.0609,-3.0218,-2.9877,-2.8767,-2.8397,-2.8425,-2.8113,-2.8264,-2.8574,-2.8662,-2.865,-2.8612,-2.8675,-2.8682,-2.8712,-2.8749,-2.8773,-2.8433,-2.6815,-2.6396,-2.5994,-2.4389,-2.3996,-2.3976,-2.3907,-2.3896,-2.3876,-2.3806,-2.3806,-2.3806,-2.3806,-2.3806,-2.3806,-2.3806,-2.3806,-2.3806,-2.3806,-2.3806,-2.3806,-2.3806,-2.3806,-2.3806,-2.3806,-2.3806,-2.3837,-2.3947,-2.3976,-2.3976,-2.3976,-2.3976,-2.3976,-2.3976,-2.4044,-2.4074,-2.4074,-2.4151,-2.418,-2.418,-2.4208,-2.419,-3.7617,-3.6941,-3.6269,-3.6825,-3.6443,-3.5675,-3.4833,-3.4498,-3.424,-3.3651,-3.344,-3.3574,-3.4369,-3.4429,-3.4608,-3.537,-3.5415,-3.5385,-3.5489,-3.514,-3.4712,-3.4224,-3.3875,-3.3566,-3.3335,-3.3497,-3.3899,-3.4497,-3.4691,-3.4947,-3.5337,-3.5337,-3.5037,-3.4352,-3.3628,-3.298,-3.2479,-3.1752,-3.1309,-3.119,-3.119,-3.119,-3.119,-3.119,-3.119,-3.119,0.0,-3.119,-3.119,-3.121,-3.0857,-3.0298,-3.0197,-2.935,-2.8182,-2.8152,-2.784,-2.7494,-2.7929,-2.8233,-2.8445,-2.8574,-2.8612,-2.86,-2.8612,-2.8612,-2.8612,-2.8625,-2.8712,-2.8433,-2.6815,-2.6396,-2.5994,-2.4389,-2.3966,-2.3907,-2.3907,-2.3865,-2.3806,-2.3806,-2.3806,-2.3806,-2.3806,-2.3806,-2.3806,-2.3806,-2.3806,-2.3806,-2.3806,-2.3806,-2.3806,-2.3806,-2.3806,-2.3806,-2.3806,-2.3806,-2.3806,-2.3827,-2.3827,-2.3827,-2.3827,-2.3827,-2.3827,-2.3827,-2.3896,-2.3927,-2.3927,-2.4046,-2.4132,-2.4132,-2.417,-2.4199,-3.6124,-3.5796,-3.5502,-3.5994,-3.6014,-3.5804,-3.5343,-3.4901,-3.4476,-3.4114,-3.3455,-3.3275,-3.4324,-3.4219,-3.4292,-3.5325,-3.5504,-3.537,-3.4996,-3.473,-3.4269,-3.3351,-3.3106,-3.2852,-3.2475,-3.278,-3.3193,-3.3672,-3.3984,-3.4121,-3.405,-3.4192,-3.3842,-3.2877,-3.2651,-3.2294,-3.1718,-3.136,-3.119,-3.119,-3.119,-3.119,-3.119,-3.119,-3.119,-3.119,0.0,-3.119,-3.119,-3.119,-3.1004,-3.0615,-2.982,-2.9076,-2.8367,-2.7726,-2.7411,-2.7371,-2.7739,-2.8017,-2.8205,-2.834,-2.8419,-2.8445,-2.8471,-2.8523,-2.8562,-2.8587,-2.8637,-2.8324,-2.6702,-2.6295,-2.5895,-2.4278,-2.3876,-2.3855,-2.3855,-2.3816,-2.3806,-2.3806,-2.3806,-2.3806,-2.3806,-2.3806,-2.3806,-2.3806,-2.3806,-2.3806,-2.3806,-2.3806,-2.3806,-2.3806,-2.3806,-2.3806,-2.3806,-2.3806,-2.3806,-2.3806,-2.3806,-2.3806,-2.3806,-2.3806,-2.3806,-2.3806,-2.3876,-2.3896,-2.3907,-2.4026,-2.4094,-2.4094,-2.417,-2.418,-3.4749,-3.4502,-3.4268,-3.4789,-3.5305,-3.5688,-3.5671,-3.5167,-3.4711,-3.4711,-3.3784,-3.3335,-3.4533,-3.4307,-3.4292,-3.534,-3.5504,-3.5265,-3.4593,-3.4369,-3.3814,-3.2647,-3.2451,-3.2254,-3.1829,-3.2191,-3.2586,-3.2922,-3.3166,-3.3198,-3.2943,-3.2982,-3.2564,-3.1571,-3.1748,-3.1629,-3.1168,-3.1151,-3.1171,-3.119,-3.119,-3.119,-3.119,-3.119,-3.119,-3.119,-3.119,-3.119,-3.119,-3.119,-3.1089,-3.0818,-2.9704,-2.9044,-2.857,-2.7368,-2.7087,-2.7341,-2.7522,-2.7701,-2.7911,-2.8035,-2.8146,-2.8228,-2.8309,-2.8388,-2.8443,-2.8357,-2.8328,-2.7984,-2.6584,-2.6059,-2.557,-2.4139,-2.3806,-2.3806,-2.3806,-2.3806,-2.3806,-2.3806,-2.3806,-2.3806,-2.3806,-2.3806,-2.3806,-2.3806,-2.3806,-2.3806,-2.3806,-2.3806,-2.3806,-2.3806,-2.3806,-2.3806,-2.3806,-2.3806,-2.3806,-2.3806,-2.3806,-2.3806,-2.3806,-2.3806,-2.3806,-2.3806,-2.3847,-2.3886,-2.3886,-2.3996,-2.4046,-2.4046,-2.4113,-2.4132,-3.4418,-3.3498,-3.2494,-3.3757,-3.4909,-3.5671,-3.5554,-3.5459,-3.5429,-3.5429,-3.4846,-3.4593,-3.5295,-3.5385,-3.5385,-3.5489,-3.5504,-3.5265,-3.4593,-3.3948,-3.3305,-3.2602,-3.1944,-3.1642,-3.1799,-3.194,-3.2274,-3.2776,-3.2384,-3.2307,-3.2704,-3.22,-3.1741,-3.1325,-3.1391,-3.1302,-3.1032,-3.1015,-3.1092,-3.119,-3.119,-3.119,-3.119,-3.119,-3.119,-3.119,-3.119,-3.119,-3.119,-3.119,-3.0801,-3.0176,-3.0074,-2.9142,-2.779,-2.7013,-2.6842,-2.7056,-2.7198,-2.7371,-2.7572,-2.7686,-2.7829,-2.7954,-2.8075,-2.8264,-2.8275,-2.7658,-2.7495,-2.7278,-2.6421,-2.566,-2.4864,-2.4023,-2.3806,-2.3806,-2.3806,-2.3806,-2.3806,-2.3806,-2.3806,-2.3806,-2.3806,-2.3806,-2.3806,-2.3806,-2.3806,-2.3806,-2.3806,-2.3806,-2.3806,-2.3806,-2.3806,-2.3806,-2.3806,-2.3806,-2.3806,-2.3806,-2.3806,-2.3806,-2.3806,-2.3806,-2.3806,-2.3806,-2.3806,-2.3806,-2.3806,-2.3886,-2.3917,-2.3917,-2.3986,-2.4006,-3.414,-3.3567,-3.2968,-3.3401,-3.4227,-3.4941,-3.4893,-3.4861,-3.4996,-3.5415,-3.4966,-3.4459,-3.4277,-3.4592,-3.4726,-3.4322,-3.4262,-3.4023,-3.335,-3.3036,-3.2647,-3.1959,-3.1645,-3.1539,-3.1597,-3.1769,-3.1786,-3.1579,-3.1536,-3.1212,-3.0563,-3.0539,-3.0371,-2.9955,-3.0243,-3.0504,-3.0679,-3.0855,-3.1032,-3.119,-3.119,-3.119,-3.119,-3.119,-3.119,-3.119,-3.119,-3.119,-3.119,-3.119,-3.1038,-3.0683,-2.977,-2.8467,-2.708,-2.6793,-2.6809,-2.6942,-2.7039,-2.7152,-2.7277,-2.7353,-2.7507,-2.7672,-2.7815,-2.8017,-2.8192,-2.806,-2.7337,-2.6428,-2.5649,-2.5226,-2.4791,-2.3994,-2.3806,-2.3806,-2.3806,-2.3806,-2.3806,-2.3806,-2.3806,-2.3806,-2.3806,-2.3806,-2.3806,-2.3806,-2.3806,-2.3806,-2.3806,-2.3806,-2.3806,-2.3806,-2.3806,-2.3806,-2.3806,-2.3806,-2.3806,-2.3806,-2.3806,-2.3806,-2.3806,-2.3806,-2.3806,-2.3806,-2.3806,-2.3806,-2.3806,-2.3876,-2.3896,-2.3907,-2.3976,-2.3986,-3.4061,-3.3488,-3.2897,-3.2931,-3.341,-3.3858,-3.3858,-3.4337,-3.4936,-3.5415,-3.4966,-3.4369,-3.3888,-3.4039,-3.4023,-3.3559,-3.3499,-3.326,-3.2572,-3.2512,-3.2243,-3.1585,-3.1511,-3.1511,-3.1511,-3.1431,-3.1229,-3.0817,-3.0585,-3.0079,-2.9225,-2.9296,-2.9247,-2.9044,-2.9432,-2.9875,-3.033,-3.0572,-3.081,-3.1052,-3.1052,-3.1092,-3.119,-3.119,-3.119,-3.119,-3.119,-3.119,-3.119,-3.119,-3.1055,-3.07,-2.9211,-2.7977,-2.7012,-2.6776,-2.6758,-2.6842,-2.6875,-2.6941,-2.6972,-2.7021,-2.7182,-2.7373,-2.7491,-2.773,-2.7971,-2.7955,-2.7045,-2.59,-2.5185,-2.4809,-2.4483,-2.3922,-2.3806,-2.3806,-2.3806,-2.3806,-2.3806,-2.3806,-2.3806,-2.3806,-2.3806,-2.3806,-2.3806,-2.3806,-2.3806,-2.3806,-2.3806,-2.3806,-2.3806,-2.3806,-2.3806,-2.3806,-2.3806,-2.3806,-2.3806,-2.3806,-2.3806,-2.3806,-2.3806,-2.3806,-2.3806,-2.3806,-2.3806,-2.3806,-2.3806,-2.3855,-2.3876,-2.3876,-2.3917,-2.3907,-3.4211,-3.3083,-3.1893,-3.2295,-3.2467,-3.2497,-3.2512,-3.4053,-3.5489,-3.5489,-3.4936,-3.4503,-3.4488,-3.3918,-3.3484,-3.3484,-3.3469,-3.3245,-3.2572,-3.2497,-3.2228,-3.1585,-3.1511,-3.1511,-3.1496,-3.0883,-3.0591,-3.0757,-2.955,-2.8899,-2.918,-2.8692,-2.8549,-2.8881,-2.9152,-2.9515,-2.9968,-3.0108,-3.0359,-3.0692,-3.0675,-3.0855,-3.119,-3.119,-3.119,-3.119,-3.119,-3.119,-3.119,-3.119,-3.0751,-2.9939,-2.8398,-2.7807,-2.7705,-2.6962,-2.6691,-2.6691,-2.6691,-2.6691,-2.6691,-2.6691,-2.6842,-2.7024,-2.7166,-2.743,-2.7601,-2.713,-2.6514,-2.5847,-2.5192,-2.4411,-2.3806,-2.3806,-2.3806,-2.3806,-2.3806,-2.3806,-2.3806,-2.3806,-2.3806,-2.3806,-2.3806,-2.3806,-2.3806,-2.3806,-2.3806,-2.3806,-2.3806,-2.3806,-2.3806,-2.3806,-2.3806,-2.3806,-2.3806,-2.3806,-2.3806,-2.3806,-2.3806,-2.3806,-2.3806,-2.3806,-2.3806,-2.3806,-2.3806,-2.3806,-2.3806,-2.3806,-2.3806,-2.3806,-2.3806,-2.3806,-3.4504,-3.3613,-3.2735,-3.2594,-3.2859,-3.308,-3.2617,-3.3335,-3.4083,-3.4083,-3.3933,-3.3649,-3.3185,-3.2931,-3.2647,-3.2168,-3.2079,-3.2019,-3.1824,-3.1795,-3.172,-3.1525,-3.1511,-3.1316,-3.0823,-3.0627,-3.0161,-2.933,-2.8985,-2.8625,-2.8233,-2.816,-2.8152,-2.8259,-2.8525,-2.8803,-2.9081,-2.9409,-2.9458,-2.9223,-2.9465,-3.0111,-3.1055,-3.1055,-3.1112,-3.119,-3.119,-3.119,-3.1157,-3.0632,-2.9649,-2.8432,-2.7976,-2.7486,-2.6996,-2.6776,-2.6691,-2.6691,-2.6691,-2.6691,-2.6691,-2.6691,-2.6809,-2.6959,-2.704,-2.7277,-2.7562,-2.7618,-2.6809,-2.5913,-2.5868,-2.4827,-2.3806,-2.3806,-2.3806,-2.3806,-2.3806,-2.3806,-2.3806,-2.3806,-2.3806,-2.3806,-2.3806,-2.3806,-2.3806,-2.3806,-2.3806,-2.3806,-2.3806,-2.3806,-2.3806,-2.3806,-2.3806,-2.3806,-2.3806,-2.3806,-2.3806,-2.3806,-2.3806,-2.3806,-2.3806,-2.3806,-2.3806,-2.3806,-2.3806,-2.3806,-2.3806,-2.3806,-2.3806,-2.3806,-2.3806,-2.3806,-3.4704,-3.4011,-3.3235,-3.2788,-3.2884,-3.3006,-3.2602,-3.3021,-3.3499,-3.3499,-3.329,-3.2976,-3.2557,-3.2273,-3.1974,-3.157,-3.1511,-3.1511,-3.1511,-3.1511,-3.1511,-3.1511,-3.1256,-3.0928,-3.0552,-3.0043,-2.943,-2.8667,-2.8441,-2.8162,-2.7821,-2.788,-2.793,-2.7995,-2.8201,-2.8405,-2.859,-2.885,-2.8914,-2.8804,-2.8764,-2.9263,-3.0242,-3.0138,-3.0159,-3.033,-3.033,-3.033,-3.0279,-2.9516,-2.8635,-2.7773,-2.7469,-2.7097,-2.6691,-2.6691,-2.6691,-2.6691,-2.6691,-2.6691,-2.6691,-2.6691,-2.6742,-2.6774,-2.6519,-2.6673,-2.6944,-2.6915,-2.6171,-2.5434,-2.5658,-2.4773,-2.3806,-2.3806,-2.3806,-2.3806,-2.3806,-2.3806,-2.3806,-2.3806,-2.3806,-2.3806,-2.3806,-2.3806,-2.3806,-2.3806,-2.3806,-2.3806,-2.3806,-2.3806,-2.3806,-2.3806,-2.3806,-2.3795,-2.3792,-2.3771,-2.3739,-2.3707,-2.3703,-2.3685,-2.3725,-2.3764,-2.3806,-2.3806,-2.3806,-2.3806,-2.3806,-2.3806,-2.3806,-2.3806,-2.3806,-2.3806,-3.4765,-3.4235,-3.3521,-3.2975,-3.2619,-3.2452,-3.2497,-3.2931,-3.332,-3.332,-3.2841,-3.2392,-3.2392,-3.1914,-3.1511,-3.1511,-3.1511,-3.1511,-3.1511,-3.1511,-3.1481,-3.1421,-3.0881,-3.0447,-3.0342,-2.928,-2.8577,-2.8502,-2.7944,-2.765,-2.779,-2.779,-2.784,-2.7955,-2.8088,-2.8186,-2.8323,-2.8398,-2.8575,-2.8887,-2.8376,-2.8361,-2.8796,-2.8699,-2.8772,-2.8991,-2.9077,-2.9027,-2.884,-2.8094,-2.7756,-2.7621,-2.6962,-2.6691,-2.6691,-2.6691,-2.6691,-2.6691,-2.6691,-2.6691,-2.6691,-2.6691,-2.664,-2.6471,-2.5812,-2.578,-2.5912,-2.5502,-2.5009,-2.4647,-2.4913,-2.44,-2.3795,-2.3795,-2.3806,-2.3806,-2.3806,-2.3806,-2.3806,-2.3806,-2.3806,-2.3806,-2.3806,-2.3806,-2.3806,-2.3806,-2.3806,-2.3806,-2.3806,-2.3806,-2.3806,-2.3806,-2.3806,-2.3803,-2.3786,-2.3721,-2.3645,-2.3573,-2.3505,-2.3505,-2.3562,-2.3707,-2.3785,-2.3795,-2.3795,-2.3806,-2.3806,-2.3806,-2.3806,-2.3806,-2.3806,-2.3806,-3.4359,-3.4101,-3.3786,-3.324,-3.2533,-3.2044,-3.2437,-3.2183,-3.1929,-3.1929,-3.1809,-3.172,-3.172,-3.16,-3.1511,-3.1511,-3.1511,-3.1511,-3.1511,-3.1511,-3.1301,-3.0791,-3.0597,-3.0118,-2.9116,-2.8757,-2.8368,-2.7854,-2.7675,0.0,-2.765,-2.765,-2.765,-2.7675,-2.77,-2.775,-2.7775,-2.79,-2.7741,0.0,-2.7527,-2.7221,-2.6476,-2.7738,-2.8493,-2.888,-2.9563,-2.9178,-2.8043,-2.7874,-2.7452,-2.6911,-2.6759,-2.6691,-2.6691,-2.6691,-2.6691,-2.6691,-2.6691,-2.6691,-2.6691,-2.6691,-2.6302,-2.5812,-2.5643,-2.5391,-2.5166,-2.5219,-2.4897,-2.4592,-2.4853,-2.436,-2.3789,-2.3795,-2.3806,-2.3806,-2.3806,-2.3806,-2.3806,-2.3806,-2.3806,-2.3806,-2.3806,-2.3806,-2.3806,-2.3806,-2.3806,-2.3806,-2.3806,-2.3806,-2.3806,-2.3806,-2.3806,-2.3782,-2.3721,-2.3605,-2.3492,-2.3372,-2.3247,-2.3247,-2.336,-2.3582,-2.3754,-2.3797,-2.3803,-2.3806,-2.3806,-2.3806,-2.3806,-2.3806,-2.3806,-2.3806,-3.4264,-3.4074,-3.3616,-3.3056,-3.2453,-3.2002,-3.2032,-3.175,-3.1406,-3.1077,-3.1271,-3.1511,-3.1511,-3.1511,-3.1511,-3.1511,-3.1511,-3.1511,-3.1511,-3.1212,-3.0883,-3.0552,-2.9968,-2.9325,-2.8667,-2.8308,-2.7989,-2.763,-2.76,-2.76,-2.76,-2.76,-2.76,-2.76,-2.76,-2.76,-2.76,-2.7675,-2.756,-2.7278,-2.722,-2.6746,-2.5925,-2.7173,-2.8087,-2.8718,-2.8918,-2.8534,-2.7773,-2.7418,-2.7046,-2.6691,-2.6691,-2.6691,-2.6691,-2.6691,-2.6691,-2.6691,-2.6691,-2.6691,-2.664,-2.6285,-2.5913,-2.5473,-2.4763,-2.4409,-2.4239,-2.4057,-2.3929,-2.389,-2.4164,-2.3983,-2.3765,-2.3785,-2.3803,-2.38,-2.375,-2.3736,-2.3693,-2.3671,-2.3682,-2.3714,-2.3757,-2.3782,-2.3806,-2.3806,-2.3806,-2.3806,-2.3806,-2.3806,-2.3806,-2.3806,-2.3806,-2.3761,-2.3656,-2.3499,-2.333,-2.318,-2.3003,-2.2977,-2.3089,-2.3295,-2.3515,-2.3761,-2.3782,-2.3806,-2.3806,-2.3806,-2.3806,-2.3806,-2.3806,-2.3806,-3.4038,-3.3879,-3.3371,-3.2856,-3.2547,-3.2203,-3.1754,-3.164,-3.1416,-3.0741,-3.0984,-3.1301,-3.1182,-3.1167,-3.1167,-3.1167,-3.1167,-3.1167,-3.1138,-3.0645,-3.027,-3.015,-2.9209,-2.8521,-2.8442,-2.7929,-2.76,-2.76,0.0,-2.76,-2.76,-2.76,-2.76,-2.76,-2.76,-2.76,-2.76,-2.76,-2.765,-2.775,-2.7049,-2.6603,-2.6387,-2.6857,-2.7497,-2.8187,-2.8073,-2.7858,-2.7553,-2.6945,-2.6691,-2.6691,-2.6691,-2.6691,-2.6691,-2.6691,-2.6691,-2.6691,-2.6691,-2.6691,-2.6573,-2.5845,-2.5508,-2.5169,-2.3799,-2.341,-2.3283,-2.2804,-2.2855,-2.3102,-2.3365,-2.3526,-2.3638,-2.3728,-2.3725,-2.37,-2.3678,-2.3589,-2.3528,-2.3441,-2.3499,-2.3618,-2.3689,-2.375,-2.3806,-2.3806,-2.3806,-2.3806,-2.3806,-2.3806,-2.3806,-2.3806,-2.3806,-2.3739,-2.3596,-2.3383,-2.3163,-2.297,-2.2751,-2.2685,-2.2829,-2.297,-2.3199,-2.36,-2.3718,-2.3792,-2.3803,-2.3795,-2.3795,-2.3803,-2.3792,-2.3782,-3.3012,-3.3175,-3.3379,-3.3316,-3.3082,-3.2788,-3.2355,-3.2191,-3.1896,-3.1104,-3.0764,-3.0477,-2.9939,-2.9849,-2.9849,-2.9849,-2.9849,-2.9791,-2.961,-2.9565,-2.9339,-2.8747,-2.8524,-2.8248,-2.7794,-2.7645,-2.76,-2.76,-2.76,-2.76,-2.76,-2.76,-2.76,-2.76,-2.76,-2.76,-2.76,-2.76,-2.7625,-2.761,-2.6477,-2.6482,-2.7458,-2.6867,-2.6599,-2.6681,-2.819,-2.8096,-2.6843,-2.6742,-2.6691,-2.6691,-2.6691,-2.6691,-2.6691,-2.6691,-2.6691,-2.6691,-2.6691,-2.6691,-2.6573,-2.5845,-2.5169,-2.4491,-2.3646,-2.3011,-2.2569,-2.2532,-2.2672,-2.2893,-2.3089,-2.3247,-2.3383,-2.351,-2.3453,-2.3395,-2.3504,-2.3441,-2.3313,-2.3182,-2.3336,-2.3549,-2.3678,-2.375,-2.3806,-2.3806,-2.3806,-2.3806,-2.3806,-2.3806,-2.3806,-2.3806,-2.3806,-2.3728,-2.3539,-2.3283,-2.301,-2.2764,-2.2501,-2.2405,-2.2555,-2.2672,-2.2893,-2.3163,-2.3526,-2.3743,-2.3797,-2.3803,-2.3803,-2.3797,-2.3743,-2.3678,-3.2537,-3.3127,-3.3753,-3.351,-3.3579,-3.3425,-3.2552,-3.22,-3.1696,-3.0333,-2.9856,-2.9648,-2.9619,-2.9606,-2.9606,-2.9606,-2.9606,-2.9537,-2.9372,-2.9101,-2.88,-2.8438,-2.8144,-2.7853,-2.763,-2.76,-2.76,-2.76,-2.76,-2.76,-2.76,-2.76,-2.76,-2.76,-2.76,-2.76,-2.76,-2.76,-2.76,-2.7585,-2.6778,-2.6557,-2.6983,-2.7025,-2.7163,-2.7398,-2.8052,-2.7943,-2.7266,-2.686,-2.6691,-2.6691,-2.6691,-2.6691,-2.6691,-2.6691,-2.6691,-2.6691,-2.6691,-2.6691,-2.6505,-2.5371,-2.4762,-2.4288,-2.3122,-2.2578,-2.2352,-2.2394,-2.2515,-2.2672,-2.2842,-2.2982,-2.3102,-2.3247,-2.3163,-2.3065,-2.3065,-2.3065,-2.3052,-2.3003,-2.3151,-2.3319,-2.3453,-2.356,-2.3638,-2.3638,-2.3638,-2.3638,-2.3638,-2.3638,-2.3638,-2.3638,-2.3638,-2.3549,-2.3348,-2.3114,-2.2889,-2.2659,-2.2432,-2.2352,-2.2432,-2.2542,-2.2699,-2.2932,-2.3365,-2.3645,-2.3732,-2.3782,-2.3782,-2.3732,-2.3645,-2.3533,-3.2391,-3.3001,-3.3578,-3.3386,-3.3552,-3.3559,-3.2737,-3.2364,-3.1791,-3.0353,-2.975,-2.9485,-2.9558,-2.9309,-2.9097,-2.9097,-2.9097,-2.9044,-2.891,-2.8547,-2.826,-2.8155,-2.7786,-2.7549,-2.76,-2.76,-2.76,-2.76,-2.76,-2.76,-2.76,-2.76,-2.76,-2.76,-2.76,-2.76,-2.76,-2.76,-2.76,-2.7585,-2.7015,-2.6714,-2.6639,-2.6963,-2.7377,-2.7833,-2.7811,-2.7689,-2.7469,-2.6928,-2.6691,-2.6691,-2.6691,-2.6691,-2.6691,-2.6691,-2.6691,-2.6691,-2.6691,-2.6691,-2.6488,-2.5202,-2.4778,-2.4541,-2.3241,-2.2868,-2.2868,-2.2868,-2.2802,-2.2774,-2.2911,-2.2876,-2.285,-2.296,-2.2914,-2.279,-2.2672,-2.2699,-2.2764,-2.279,-2.2906,-2.3045,-2.318,-2.3313,-2.3395,-2.3395,-2.3395,-2.3395,-2.3395,-2.3395,-2.3395,-2.3395,-2.3395,-2.3307,-2.3144,-2.2957,-2.2777,-2.2596,-2.2391,-2.2324,-2.2363,-2.2419,-2.2542,-2.2725,-2.3114,-2.34,-2.36,-2.3675,-2.3675,-2.36,-2.3458,-2.333,-3.2524,-3.2499,-3.247,-3.2762,-3.2768,-3.2764,-3.3086,-3.2943,-3.2631,-3.2225,-3.1375,-3.0456,-2.956,-2.848,-2.7705,-2.7705,-2.7705,-2.7654,-2.7531,-2.7476,-2.7446,-2.7446,-2.7416,-2.7463,-2.76,-2.76,-2.76,-2.76,-2.76,-2.76,-2.76,-2.76,-2.76,-2.76,-2.76,-2.76,-2.76,-2.76,-2.76,-2.7585,-2.6926,-2.6838,-2.7242,-2.6445,-2.6375,-2.6912,-2.7538,-2.7401,-2.6742,-2.6708,-2.6691,-2.6691,-2.6691,-2.6691,-2.6691,-2.6691,-2.6691,-2.6691,-2.6691,-2.6691,-2.6573,-2.5795,-2.5541,-2.5406,-2.4626,-2.4389,-2.4389,-2.4389,-2.3926,-2.3456,-2.3525,-2.3083,-2.2632,-2.2699,-2.2672,-2.2609,-2.2528,-2.2422,-2.238,-2.2501,-2.2619,-2.2764,-2.2906,-2.3022,-2.3116,-2.3116,-2.3116,-2.3116,-2.3116,-2.3116,-2.3116,-2.3116,-2.3116,-2.306,-2.2932,-2.279,-2.2646,-2.2515,-2.238,-2.2296,-2.231,-2.231,-2.238,-2.2515,-2.2659,-2.2927,-2.3324,-2.3441,-2.3441,-2.3313,-2.3193,-2.3057,-3.217,-3.2316,-3.2545,-3.2491,-3.2786,-3.3136,-3.3223,-3.3048,-3.2741,-3.2336,-3.1799,-3.1149,-3.009,-2.8861,-2.7965,-2.7865,-2.779,-2.7665,-2.7427,-2.7463,-2.7488,-2.7427,-2.7463,-2.7549,-2.76,-2.76,-2.76,-2.76,0.0,-2.76,-2.76,-2.76,-2.76,-2.76,-2.76,-2.76,-2.76,-2.76,-2.76,-2.76,-2.736,-2.7261,-2.728,-2.6848,-2.6702,-2.6808,-2.6965,-2.6876,-2.664,-2.6691,-2.6691,-2.6691,-2.6691,-2.6691,-2.6691,-2.6691,-2.6691,-2.6691,-2.6691,-2.6691,-2.6573,-2.5845,-2.5592,-2.5456,-2.4728,-2.4491,-2.4491,-2.4491,-2.432,-2.4045,-2.3585,-2.3291,-2.3133,-2.313,-2.3116,-2.3238,-2.3684,-2.3369,-2.2897,-2.2521,-2.2515,-2.2592,-2.2685,-2.2773,-2.2838,-2.2838,-2.2838,-2.2838,-2.2838,-2.2838,-2.2838,-2.2838,-2.2838,-2.2799,-2.2712,-2.2619,-2.2525,-2.2432,-2.2352,-2.2296,-2.2296,-2.2296,-2.2352,-2.2432,-2.2528,-2.2725,-2.3028,-2.3187,-2.3175,-2.3045,-2.2906,-2.2777,-3.2144,-3.2242,-3.2395,-3.21,-3.2371,-3.2733,-3.2871,-3.2718,-3.2508,-3.2331,-3.1938,-3.1343,-3.0583,-2.9462,-2.8534,-2.8171,-2.7965,-2.7765,-2.7488,-2.7549,-2.7575,-2.7488,-2.7733,-2.7944,-2.7944,-2.7944,-2.7944,0.0,0.0,0.0,-2.76,-2.76,-2.76,-2.76,-2.76,-2.76,-2.76,-2.76,-2.76,-2.76,-2.76,-2.7608,-2.7657,-2.7174,-2.7024,-2.7075,-2.6726,-2.6589,-2.6606,-2.6674,-2.6691,-2.6691,-2.6691,-2.6691,-2.6691,-2.6691,-2.6691,-2.6691,-2.6691,-2.6691,-2.6623,-2.6133,-2.5981,-2.5879,-2.5388,-2.5235,-2.5235,-2.5235,-2.5066,-2.4762,-2.4272,-2.3951,-2.378,-2.378,-2.3951,-2.4137,-2.4135,-2.3763,-2.3272,-2.2824,-2.2561,-2.2446,-2.2487,-2.2542,-2.2569,-2.2569,-2.2569,-2.2569,-2.2569,-2.2569,-2.2569,-2.2569,-2.2569,-2.2555,-2.2501,-2.246,-2.2405,-2.238,-2.2324,-2.2296,-2.2296,-2.2296,-2.2324,-2.2366,-2.2405,-2.2528,-2.2699,-2.2889,-2.2914,-2.2803,-2.2685,-2.2569,0.0,0.0,0.0,-3.1578,-3.1406,-3.1441,-3.1978,-3.2018,-3.2029,-3.243,-3.1867,-3.1187,-3.0972,-3.0203,-2.9321,-2.8511,-2.8186,-2.796,-2.7735,-2.7685,-2.7685,-2.767,-2.8244,-2.8622,-2.8622,-2.8622,-2.8622,0.0,-2.8019,-2.763,-2.763,-2.76,-2.76,-2.76,-2.76,-2.76,-2.76,-2.76,-2.76,-2.76,-2.76,-2.7875,-2.8365,-2.7357,-2.7185,-2.7652,-2.6851,-2.6537,-2.6589,-2.6674,-2.6691,-2.6691,-2.6691,-2.6691,-2.6691,-2.6691,-2.6691,-2.6691,-2.6691,-2.6691,-2.6691,-2.6691,-2.6691,-2.6691,-2.6691,-2.6691,-2.6691,-2.6691,-2.6184,-2.5642,-2.5609,-2.505,-2.4508,-2.4525,-2.505,-2.5186,-2.3765,-2.3427,-2.3393,-2.3359,-2.2818,-2.233,-2.2296,-2.2313,-2.233,-2.2296,-2.2296,-2.2296,-2.2296,-2.2296,-2.2296,-2.2296,-2.2296,-2.2296,-2.2296,-2.2296,-2.2296,-2.2296,-2.2296,-2.2296,-2.2296,-2.2296,-2.2296,-2.2296,-2.2296,-2.2296,-2.2296,-2.2569,-2.2646,-2.2579,-2.2511,-2.2419,-3.3063,0.0,0.0,0.0,0.0,0.0,-3.2124,-3.2229,-3.2349,-3.2897,-3.2815,-3.245,-3.1805,-3.1759,-3.1504,-3.0477,-2.9753,-2.9373,-2.9582,-2.9546,-2.9442,-2.9349,-2.9399,-2.9429,-2.9337,-2.931,0.0,0.0,-2.8682,-2.8308,-2.8308,-2.7869,-2.76,-2.76,-2.76,-2.76,-2.76,-2.76,-2.76,-2.76,-2.76,-2.7875,-2.8365,-2.7357,-2.7185,-2.7652,-2.6851,-2.6502,-2.6537,-2.6657,-2.6691,-2.6691,-2.6691,-2.6691,-2.6691,-2.6691,-2.6691,-2.6691,-2.6691,-2.6691,-2.6691,-2.6691,-2.6691,-2.6691,-2.6691,-2.6691,-2.6691,-2.6691,-2.6539,-2.6268,-2.5728,-2.505,-2.4626,-2.5169,-2.5033,-2.4846,-2.4966,-2.4154,-2.3241,-2.2716,-2.2868,-2.2936,-2.2381,-2.275,-2.2919,-2.2381,-2.2296,-2.2296,-2.2296,-2.2296,-2.2296,-2.2296,-2.2296,-2.2296,-2.2296,-2.2296,-2.2296,-2.2296,-2.2296,-2.2296,-2.2296,-2.2296,-2.2296,-2.2296,-2.2296,-2.2296,-2.2296,-2.2363,-2.2391,-2.2377,-2.2349,-2.2338,-3.3292,-3.3096,-3.2734,-3.2196,0.0,0.0,-3.2049,-3.2093,-3.219,-3.2459,-3.252,-3.232,-3.1756,-3.1801,-3.1762,-3.1314,-3.1006,-3.0823,-3.0748,-3.0556,-3.0366,-3.0195,-3.0232,-3.0214,-2.9996,-2.9968,-2.9968,-2.9968,-2.937,-2.8891,-2.8607,-2.7974,-2.76,-2.76,-2.76,-2.76,-2.76,-2.76,-2.76,-2.76,-2.76,-2.7875,-2.8365,-2.7357,-2.7185,-2.7652,-2.6851,-2.6502,-2.6502,-2.664,-2.6691,-2.6691,-2.6691,-2.6691,-2.6691,-2.6691,-2.6691,-2.6691,-2.6691,-2.6691,-2.6691,-2.6691,-2.6691,-2.6691,-2.6691,-2.6691,-2.6691,-2.6691,-2.6691,-2.659,-2.6167,-2.5727,-2.554,-2.5964,-2.549,-2.4983,-2.5101,-2.4222,-2.3359,-2.3241,-2.3308,-2.3359,-2.3241,-2.3325,-2.3241,-2.2835,-2.2499,-2.2296,-2.2296,-2.2296,-2.2296,-2.2296,-2.2296,-2.2296,-2.2296,-2.2296,-2.2296,-2.2296,-2.2296,-2.2296,-2.2296,-2.2296,-2.2296,-2.2296,-2.2296,-2.2296,-2.2296,-2.2296,-2.2296,-2.2296,-2.2296,-2.2296,-3.3108,-3.3161,-3.2911,-3.2478,-3.2315,0.0,-3.193,-3.1874,-3.1856,-3.1711,-3.1618,-3.1504,-3.1291,-3.1125,-3.1098,-3.1417,-3.1994,-3.2157,-3.1493,-3.1243,-3.1029,-3.0748,-3.1002,-3.1058,-3.0751,-3.0696,-3.0668,-3.0668,-2.9996,-2.9295,-2.8637,-2.7974,-2.76,-2.76,-2.76,-2.76,-2.76,-2.76,-2.76,-2.76,-2.76,-2.7875,-2.8326,-2.7335,-2.7164,-2.7615,-2.6814,-2.6485,-2.6502,-2.664,-2.6691,-2.6691,-2.6691,-2.6691,-2.6691,-2.6691,-2.6691,-2.6691,-2.6691,-2.6691,-2.6691,-2.6691,-2.6691,-2.6691,-2.6691,-2.6691,-2.6691,-2.6691,-2.6691,-2.6691,-2.6691,-2.6691,-2.6691,-2.6691,-2.6065,-2.5304,-2.4643,-2.3864,-2.3509,-2.4237,-2.3848,-2.3579,-2.4152,-2.378,-2.3359,-2.3291,-2.2733,-2.2296,-2.2296,-2.2296,-2.2296,-2.2296,-2.2296,-2.2296,-2.2296,-2.2296,-2.2296,-2.2296,-2.2296,-2.2296,-2.2296,-2.2296,-2.2296,-2.2296,-2.2296,-2.2296,-2.2296,-2.2296,-2.2296,-2.2296,-2.2296,-2.2296,-3.1774,-3.2173,-3.2472,-3.2157,-3.2424,0.0,-3.2417,-3.2368,-3.2334,-3.2266,-3.2109,-3.1914,-3.1657,-3.1961,-3.2201,-3.2005,-3.2558,-3.2945,-3.2684,-3.2935,-3.3022,-3.2777,-3.2565,-3.2346,-3.206,-3.1921,-3.1825,-3.17,-3.0403,-2.9295,-2.8637,-2.7974,-2.76,-2.76,-2.76,-2.76,-2.76,-2.76,-2.76,-2.76,-2.76,-2.7825,-2.8189,-2.7132,-2.6977,-2.7497,-2.6634,-2.6346,-2.6502,-2.664,-2.6691,-2.6691,-2.6691,-2.6691,-2.6691,-2.6691,-2.6691,-2.6691,-2.6691,-2.6691,-2.6691,-2.6691,-2.6691,-2.6691,-2.6691,-2.6691,-2.6691,-2.6691,-2.6691,-2.6691,-2.6691,-2.6691,-2.6691,-2.6691,-2.5692,-2.4677,-2.4525,-2.3444,-2.2719,-2.346,-2.3509,-2.3257,-2.2818,-2.3105,-2.319,-2.26,-2.2381,-2.2296,-2.2296,-2.2296,-2.2296,-2.2296,-2.2296,-2.2296,-2.2296,-2.2296,-2.2296,-2.2296,-2.2296,-2.2296,-2.2296,-2.2296,-2.2296,-2.2296,-2.2296,-2.2296,-2.2296,-2.2296,-2.2296,-2.2296,-2.2296,-2.2296,-3.1286,-3.1913,-3.2388,-3.2204,-3.2654,0.0,0.0,-3.2797,-3.2781,-3.2718,-3.2553,-3.2317,-3.2056,-3.2133,-3.2126,-3.1755,-3.2296,-3.2806,-3.3007,-3.345,-3.3754,-3.3758,-3.3491,-3.3161,-3.2815,-3.2614,-3.237,-3.2025,-3.0521,-2.9457,-2.9101,-2.8154,-2.76,-2.76,-2.76,-2.76,-2.76,-2.76,-2.76,-2.76,-2.727,-2.7278,-2.7548,-2.6464,-2.6238,-2.6737,-2.6229,-2.6136,-2.6364,-2.6572,-2.6657,-2.6657,-2.6691,-2.6691,-2.6691,-2.6691,-2.6691,-2.6691,-2.6691,-2.6691,-2.6691,-2.6691,-2.6691,-2.6691,-2.6691,-2.6691,-2.6691,-2.6691,-2.6691,-2.6691,-2.6691,-2.6691,-2.6691,-2.6691,-2.5574,-2.4491,-2.4491,-2.3342,-2.2398,-2.2784,-2.2852,-2.297,-2.3325,-2.3393,-2.3274,-2.2902,-2.2533,-2.2296,-2.2296,-2.2296,-2.2296,-2.2296,-2.2296,-2.2296,-2.2296,-2.2296,-2.2296,-2.2296,-2.2296,-2.2296,-2.2296,-2.2296,-2.2296,-2.2296,-2.2296,-2.2296,-2.2296,-2.2296,-2.2296,-2.2296,-2.2296,-2.2296,-3.076,-3.1591,-3.2258,-3.2151,-3.2811,-3.3433,0.0,0.0,0.0,-3.3144,-3.299,-3.2766,-3.2488,-3.2179,-3.1859,-3.1432,-3.18,0.0,0.0,-3.3278,0.0,-3.4219,-3.4077,-3.3783,-3.3407,-3.3029,-3.2602,-3.2066,-3.0626,-2.9726,-2.9621,-2.8453,-2.7735,-2.76,-2.76,-2.76,-2.76,-2.76,-2.76,-2.7585,-2.7061,-2.6853,-2.6942,-2.5893,-2.5613,-2.5904,-2.5747,-2.5866,-2.617,-2.6434,-2.6555,-2.6606,-2.6657,-2.6691,-2.6691,-2.6691,-2.6691,-2.6691,-2.6691,-2.6691,-2.6691,-2.6691,-2.659,-2.6505,-2.6657,-2.659,-2.6522,-2.6657,-2.6691,-2.6691,-2.6691,-2.6691,-2.6691,-2.6691,-2.5574,-2.4491,-2.4491,-2.3342,-2.2296,-2.2296,-2.2296,-2.2682,-2.3881,-2.3579,-2.319,-2.319,-2.2801,-2.2499,-2.2499,-2.2649,-2.2733,-2.2733,-2.2733,-2.2682,-2.2516,-2.2499,-2.2448,-2.2296,-2.2296,-2.2296,-2.2296,-2.2296,-2.2296,-2.2296,-2.2296,-2.2296,-2.2296,-2.2296,-2.2296,-2.2296,-2.2296,-2.2296,-2.9244,-3.0363,-3.1518,-3.1506,-3.2648,-3.3753,-3.3739,0.0,-3.3694,-3.3625,0.0,-3.3298,-3.2975,0.0,0.0,-3.1732,0.0,0.0,-3.2307,-3.2435,-3.3012,-3.4468,-3.4521,-3.4325,0.0,-3.3282,-3.2614,-3.2219,-3.1074,-3.0163,-2.9636,-2.8891,-2.8203,-2.7615,-2.76,-2.76,-2.76,-2.76,-2.76,-2.76,-2.7525,-2.7255,-2.6805,-2.6129,-2.5768,-2.5629,-2.5381,-2.5532,-2.5954,-2.6225,-2.6434,-2.6589,-2.6606,-2.6606,-2.6623,-2.6674,-2.6691,-2.6691,-2.6691,-2.6691,-2.6691,-2.6691,-2.6251,-2.5845,-2.6488,-2.6234,-2.5862,-2.6522,-2.6691,-2.6691,-2.6691,-2.6691,-2.6691,-2.6691,-2.5574,-2.4491,-2.4491,-2.3342,-2.2296,-2.2296,-2.2296,-2.2347,-2.2516,-2.2482,-2.2415,-2.2415,-2.2919,-2.3274,-2.3274,-2.3848,-2.4254,-2.4254,-2.4254,-2.4,-2.3325,-2.3274,-2.3004,-2.233,-2.2296,-2.2296,-2.2296,-2.2296,-2.2296,-2.2296,-2.2296,-2.2296,-2.2296,-2.2296,-2.2296,-2.2296,-2.2296,-2.2296,-2.9005,-3.0173,-3.1397,-3.1397,-3.2596,-3.3807,-3.3807,-3.3807,-3.378,-3.3712,0.0,0.0,0.0,0.0,0.0,0.0,-3.1895,0.0,0.0,0.0,-3.2773,-3.3729,0.0,0.0,0.0,0.0,0.0,0.0,-3.0631,-2.9684,-2.9041,-2.8742,-2.8278,-2.7615,-2.76,-2.76,-2.76,-2.76,-2.76,-2.76,-2.721,-2.6905,-2.6645,-2.5626,-2.5182,-2.5235,-2.49,-2.5001,-2.5473,-2.585,-2.6137,-2.6382,-2.6537,-2.6623,-2.6657,-2.6674,-2.6691,-2.6691,-2.6691,-2.6691,-2.6691,-2.6691,-2.6488,-2.6302,-2.6607,-2.6471,-2.6302,-2.6607,-2.6691,-2.6691,-2.6691,-2.6691,-2.6691,-2.6691,-2.5574,-2.4491,-2.4491,-2.3678,-2.2936,-2.2936,-2.3274,-2.3579,-2.3579,-2.2868,-2.2448,-2.2868,-2.319,-2.3545,-2.3983,-2.4305,-2.4491,-2.4491,-2.4491,-2.4203,-2.346,-2.3393,-2.3088,-2.2347,-2.2296,-2.2282,-2.224,-2.2225,-2.2225,-2.2225,-2.2225,-2.2254,-2.2296,-2.2296,-2.2296,-2.2296,-2.2296,-2.2296,-2.9005,0.0,0.0,0.0,0.0,0.0,0.0,0.0,0.0,0.0,0.0,0.0,0.0,0.0,-3.299,-3.2587,0.0,-3.223,0.0,-3.2303,0.0,0.0,0.0,0.0,0.0,0.0,0.0,0.0,0.0,-2.9732,-2.924,-2.8992,-2.8562,-2.7899,-2.7705,-2.76,-2.76,-2.76,-2.76,-2.7585,-2.7121,-2.6677,-2.6288,-2.5368,-2.4859,-2.4724,-2.4534,-2.4684,-2.5091,-2.5572,-2.5921,-2.617,-2.6451,-2.6606,-2.6674,-2.6691,-2.6691,-2.6691,-2.6691,-2.6691,-2.6691,-2.6691,-2.6556,-2.6437,-2.664,-2.6556,-2.6437,-2.664,-2.6691,-2.6691,-2.6691,-2.6691,-2.6691,-2.6691,-2.5574,-2.4558,-2.4762,-2.4068,-2.346,-2.3661,-2.4135,-2.4491,-2.4491,-2.3613,-2.3088,-2.3613,-2.3866,-2.4188,-2.4728,-2.4982,-2.51,-2.51,-2.51,-2.4728,-2.378,-2.3712,-2.3291,-2.2347,-2.2296,-2.2268,-2.2214,-2.2228,-2.2228,-2.22,-2.2228,-2.224,-2.2296,-2.2296,-2.2296,-2.2296,-2.2296,-2.2296,0.0,0.0,0.0,-3.1397,0.0,0.0,0.0,0.0,-3.3807,0.0,0.0,0.0,0.0,-3.3577,-3.3386,-3.3111,-3.28,0.0,0.0,0.0,-3.2008,0.0,0.0,0.0,0.0,0.0,0.0,0.0,0.0,0.0,-3.0712,-2.9988,-2.925,-2.8592,-2.7944,-2.76,-2.76,-2.76,-2.76,-2.76,-2.757,-2.6896,-2.5644,-2.5731,-2.5145,-2.4055,-2.4441,-2.4715,-2.4942,-2.5478,-2.5811,-2.6028,-2.6364,-2.6537,-2.6606,-2.6674,-2.6691,-2.6691,-2.6691,-2.6691,-2.6691,-2.6691,-2.6218,-2.5778,-2.6471,-2.6201,-2.5795,-2.6488,-2.6691,-2.6691,-2.6691,-2.6691,-2.6691,-2.6691,-2.5574,-2.4694,-2.5423,-2.4425,-2.3613,-2.4321,-2.4474,-2.4491,-2.4491,-2.4457,-2.444,-2.4457,-2.5067,-2.5541,-2.5559,-2.6184,-2.6623,-2.6623,-2.6623,-2.6048,-2.4592,-2.4457,-2.3848,-2.2381,-2.2296,-2.2268,-2.2214,-2.2254,-2.2285,-2.22,-2.2254,-2.2296,-2.2296,-2.2296,-2.2296,-2.2296,-2.2296,-2.2296,0.0,0.0,-3.0472,-3.0472,0.0,0.0,0.0,0.0,0.0,0.0,0.0,0.0,0.0,-3.3605,-3.3506,-3.3331,-3.3086,-3.2768,0.0,0.0,0.0,-3.2773,-3.322,-3.3651,0.0,0.0,0.0,0.0,-3.1756,0.0,0.0,-3.0238,-2.9699,-2.8637,-2.8368,-2.8064,-2.76,-2.76,-2.76,-2.7585,-2.7151,-2.6741,-2.6363,-2.5514,-2.4986,-2.4719,-2.4534,-2.4614,-2.4859,-2.5211,-2.5513,-2.5754,-2.6063,-2.6241,-2.6365,-2.6624,-2.6691,-2.6691,-2.6691,-2.6691,-2.6691,-2.6691,-2.6522,-2.637,-2.6623,-2.6522,-2.6387,-2.6623,-2.6691,-2.6691,-2.6691,-2.6691,-2.6691,-2.6691,-2.5947,-2.5304,-2.5542,-2.522,-2.4932,-2.5186,-2.5609,-2.5963,-2.5963,-2.5963,-2.5794,-2.5304,-2.5439,-2.5795,-2.6268,-2.6539,-2.6691,-2.6691,-2.6691,-2.6302,-2.5304,-2.4323,-2.3342,-2.2347,-2.2296,-2.2268,-2.2214,-2.2228,-2.2211,-2.22,-2.2228,-2.2225,-2.2225,-2.2225,-2.2225,-2.2225,-2.2225,-2.2254,-2.7846,-2.8552,0.0,-2.935,-3.0223,0.0,-3.2183,0.0,-3.2593,0.0,0.0,0.0,0.0,0.0,0.0,-3.3549,-3.3386,-3.3114,0.0,-3.2511,0.0,-3.2551,-3.2994,-3.3489,-3.3991,-3.3664,-3.3314,-3.3074,-3.2216,0.0,0.0,0.0,-3.0285,-2.9417,-2.8858,-2.8382,-2.7959,-2.772,-2.76,-2.7585,-2.7165,-2.6741,-2.6348,-2.5575,-2.5053,-2.4732,-2.4622,-2.4679,-2.489,-2.5169,-2.54,-2.5621,-2.5881,-2.6081,-2.626,-2.6555,-2.6691,-2.6691,-2.6691,-2.6691,-2.6691,-2.6691,-2.6691,-2.6691,-2.6691,-2.6691,-2.6691,-2.6691,-2.6691,-2.6691,-2.6691,-2.6691,-2.6691,-2.6691,-2.6133,-2.566,-2.593,-2.5795,-2.5693,-2.5947,-2.637,-2.6691,-2.6691,-2.6691,-2.6539,-2.6065,-2.5998,-2.6167,-2.664,-2.6691,-2.6691,-2.6691,-2.6691,-2.6302,-2.5287,-2.4103,-2.3088,-2.2347,-2.2296,-2.2268,-2.2214,-2.2211,-2.2211,-2.22,-2.22,-2.22,-2.22,-2.2152,-2.2152,-2.22,-2.22,-2.2242]},{"header":{"parameterUnit":"m.s-1","parameterCategory":1,"la1":30.6,"la2":29.2853,"lo1":-89.7004,"lo2":-87.6739,"dy":0.0162,"dx":0.0183,"nx":112,"ny":82,"refTime":"2026-05-11T00:00:00:Z","depth":0,"parameterNumber":3,"parameterNumberName":"V-component_of_WINDS"},"data":[0.0,0.0,0.0,0.0,0.0,0.0,0.0,0.0,0.0,0.0,0.0,0.0,0.0,0.0,0.0,0.0,0.0,0.0,0.0,0.0,0.0,0.0,0.0,0.0,0.0,0.0,0.0,0.0,0.0,0.0,0.0,0.0,0.0,0.0,0.0,0.0,0.0,0.0,0.0,0.0,0.0,0.0,0.0,0.0,0.0,0.0,0.0,0.0,0.0,0.0,0.0,0.0,0.0,0.0,0.0,0.0,0.0,0.0,0.0,0.0,0.0,0.0,0.0,0.0,0.0,0.0,0.0,0.0,0.0,0.0,0.0,0.0,0.0,0.0,0.0,0.0,0.0,0.0,0.0,0.0,0.0,0.0,0.0,0.0,0.0,0.0,0.0,0.0,0.0,0.0,-0.0049,-0.0252,-0.2232,-0.3915,-0.4748,-0.6489,-0.7404,-0.7021,0.0,0.0,0.0,0.0,0.0,0.0,0.0,0.0,0.0,0.0,0.0,0.0,0.0,0.0,0.0,0.0,0.0,0.0,0.0,0.0,0.0,0.0,0.0,0.0,0.0,0.0,0.0,0.0,0.0,0.0,0.0,0.0,0.0,0.0,0.0,0.0,0.0,0.0,0.0,0.0,0.0,0.0,0.0,0.0,0.0,0.0,0.0,0.0,0.0,0.0,0.0,0.0,0.0,0.0,0.0,0.0,0.0,0.0,0.0,0.0,0.0,0.0,0.0,0.0,0.0,0.0,0.0,0.0,0.0,0.0,0.0,0.0,0.0,0.0,0.0,0.0,0.0,0.0,0.0,0.0,0.0,0.0,0.0,0.0,0.0,0.0,0.0,0.0,0.0,0.0,0.0,0.0,0.0,0.0,0.0,0.0,0.0,0.0,0.0,0.0,0.0,0.0,0.0,0.0,-0.0346,-0.1258,-0.2616,-0.381,-0.4742,-0.6414,-0.7301,-0.7015,0.0,0.0,0.0,0.0,0.0,0.0,0.0,0.0,0.0,0.0,0.0,0.0,0.0,0.0,0.0,0.0,0.0,0.0,0.0,0.0,0.0,0.0,0.0,0.0,0.0,0.0,0.0,0.0,0.0,0.0,0.0,0.0,0.0,0.0,0.0,0.0,0.0,0.0,0.0,0.0,0.0,0.0,0.0,0.0,0.0,0.0,0.0,0.0,0.0,0.0,0.0,0.0,0.0,0.0,0.0,0.0,0.0,0.0,0.0,0.0,0.0,0.0,0.0,0.0,0.0,0.0,0.0,0.0,0.0,0.0,0.0,0.0,0.0,0.0,0.0,0.0,0.0,0.0,0.0,0.0,0.0,0.0,0.0,0.0,0.0,0.0,0.0,0.0,0.0,0.0,0.0,0.0,0.0,0.0,0.0,0.0,0.0,0.0,0.0,0.0,0.0,0.0,0.0,-0.0347,-0.085,-0.1914,-0.3123,-0.4159,-0.4943,-0.6497,-0.7279,-0.7015,-0.7397,0.0,0.0,0.0,0.0,0.0,0.0,0.0,0.0,0.0,0.0,0.0,0.0,0.0,0.0,0.0,0.0,0.0,0.0,0.0,0.0,0.0,0.0,0.0,0.0,0.0,0.0,0.0,0.0,0.0,0.0,0.0,0.0,0.0,0.0,0.0,0.0,0.0,0.0,0.0,0.0,0.0,0.0,0.0,0.0,0.0,0.0,0.0,0.0,0.0,0.0,0.0,0.0,0.0,0.0,0.0,0.0,0.0,0.0,0.0,0.0,0.0,0.0,0.0,0.0,0.0,0.0,0.0,0.0,0.0,0.0,0.0,0.0,0.0,0.0,0.0,0.0,0.0,0.0,0.0,0.0,0.0,0.0,0.0,0.0,0.0,0.0,0.0,0.0,0.0,0.0,0.0,0.0,0.0,0.0,0.0,0.0,0.0,0.0,0.0,0.0,0.0,0.0,-0.0806,-0.1413,-0.2471,-0.3622,-0.4602,-0.5244,-0.655,-0.72,-0.6967,-0.7265,0.0,0.0,0.0,0.0,0.0,0.0,0.0,0.0,0.0,0.0,0.0,0.0,0.0,0.0,0.0,0.0,0.0,0.0,0.0,0.0,0.0,0.0,0.0,0.0,0.0,0.0,0.0,0.0,0.0,0.0,0.0,0.0,0.0,0.0,0.0,0.0,0.0,0.0,0.0,0.0,0.0,0.0,0.0,0.0,0.0,0.0,0.0,0.0,0.0,0.0,0.0,0.0,0.0,0.0,0.0,0.0,0.0,0.0,0.0,0.0,0.0,0.0,0.0,0.0,0.0,0.0,0.0,0.0,0.0,0.0,0.0,0.0,0.0,0.0,0.0,0.0,0.0,0.0,0.0,0.0,0.0,0.0,0.0,0.0,0.0,0.0,0.0,0.0,0.0,0.0,0.0,0.0,0.0,0.0,0.0,0.0,0.0,0.0,0.0,0.0,0.0,0.0,-0.1248,-0.1966,-0.3022,-0.4135,-0.4991,-0.5536,-0.6446,-0.6964,-0.6818,-0.7018,0.0,0.0,0.0,0.0,0.0,0.0,0.0,0.0,0.0,0.0,0.0,0.0,0.0,0.0,0.0,0.0,0.0,0.0,0.0,0.0,0.0,0.0,0.0,0.0,0.0,0.0,0.0,0.0,0.0,0.0,0.0,0.0,0.0,0.0,0.0,0.0,0.0,0.0,0.0,0.0,0.0,0.0,0.0,0.0,0.0,0.0,0.0,0.0,0.0,0.0,0.0,0.0,0.0,0.0,0.0,0.0,0.0,0.0,0.0,0.0,0.0,0.0,0.0,0.0,0.0,0.0,0.0,0.0,0.0,0.0,0.0,0.0,0.0,0.0,0.0,0.0,0.0,0.0,0.0,0.0,0.0,0.0,0.0,0.0,0.0,0.0,0.0,0.0,0.0,0.0,0.0,0.0,0.0,0.0,0.0,0.0,0.0,0.0,0.0,0.0,0.0,0.0,-0.1247,-0.2017,-0.3077,-0.4182,-0.5012,-0.5499,-0.6439,-0.6903,-0.6682,0.0,0.0,0.0,0.0,0.0,0.0,0.0,0.0,0.0,0.0,0.0,0.0,0.0,0.0,0.0,0.0,0.0,0.0,0.0,0.0,0.0,0.0,0.0,0.0,0.0,0.0,0.0,0.0,0.0,0.0,0.0,0.0,0.0,0.0,0.0,0.0,0.0,0.0,0.0,0.0,0.0,0.0,0.0,0.0,0.0,0.0,0.0,0.0,0.0,0.0,0.0,0.0,0.0,0.0,0.0,0.0,0.0,0.0,0.0,0.0,0.0,0.0,0.0,0.0,0.0,0.0,0.0,0.0,0.0,0.0,0.0,0.0,0.0,0.0,0.0,0.0,0.0,0.0,0.0,0.0,0.0,0.0,0.0,0.0,0.0,0.0,0.0,0.0,0.0,0.0,0.0,0.0,0.0,0.0,0.0,0.0,0.0,0.0,0.0,0.0,0.0,0.0,-0.0728,-0.1292,-0.2012,-0.3052,-0.4145,-0.4954,-0.5446,-0.6317,-0.677,-0.6539,0.0,0.0,0.0,0.0,0.0,0.0,0.0,0.0,0.0,0.0,0.0,0.0,0.0,0.0,0.0,0.0,0.0,0.0,0.0,0.0,0.0,0.0,0.0,0.0,0.0,0.0,0.0,0.0,0.0,0.0,0.0,0.0,0.0,0.0,0.0,0.0,0.0,0.0,0.0,0.0,0.0,0.0,0.0,0.0,0.0,0.0,0.0,0.0,0.0,0.0,0.0,0.0,0.0,0.0,0.0,0.0,0.0,0.0,0.0,0.0,0.0,0.0,0.0,0.0,0.0,0.0,0.0,0.0,0.0,0.0,0.0,0.0,0.0,0.0,0.0,0.0,0.0,0.0,0.0,0.0,0.0,0.0,0.0,0.0,0.0,0.0,0.0,0.0,0.0,0.0,0.0,0.0,0.0,0.0,0.0,0.0,0.0,0.0,0.0,0.0,0.0,0.0,-0.0715,-0.1281,-0.2,-0.2991,-0.4062,-0.4903,-0.5337,-0.6157,-0.653,0.0,0.0,0.0,0.0,0.0,0.0,0.0,0.0,0.0,0.0,0.0,0.0,0.0,0.0,0.0,0.0,0.0,0.0,0.0,0.0,0.0,0.0,0.0,0.0,0.0,0.0,0.0,0.0,0.0,0.0,0.0,0.0,0.0,0.0,0.0,0.0,0.0,0.0,0.0,0.0,0.0,0.0,0.0,0.0,0.0,0.0,0.0,0.0,0.0,0.0,0.0,0.0,0.0,0.0,0.0,0.0,0.0,0.0,0.0,0.0,0.0,0.0,0.0,0.0,0.0,0.0,0.0,0.0,0.0,0.0,0.0,0.0,0.0,0.0,0.0,0.0,0.0,0.0,0.0,0.0,0.0,0.0,0.0,0.0,0.0,0.0,0.0,0.0,0.0,0.0,0.0,0.0,0.0,0.0,0.0,0.0,0.0,0.0,0.0,0.0,0.0,0.0,0.0,-0.0457,-0.0804,-0.1402,-0.245,-0.3454,-0.4332,-0.4904,-0.5972,-0.6493,-0.6266,0.0,0.0,0.0,0.0,0.0,0.0,0.0,0.0,0.0,0.0,0.0,0.0,0.0,0.0,0.0,0.0,0.0,0.0,0.0,0.0,0.0,0.0,0.0,0.0,0.0,0.0,0.0,0.0,0.0,0.0,0.0,0.0,0.0,0.0,0.0,0.0,0.0,0.0,0.0,0.0,0.0,0.0,0.0,0.0,0.0,0.0,0.0,0.0,0.0,0.0,0.0,0.0,0.0,0.0,0.0,0.0,0.0,0.0,0.0,0.0,0.0,0.0,0.0,0.0,0.0,0.0,0.0,0.0,0.0,0.0,0.0,0.0,0.0,0.0,0.0,0.0,0.0,0.0,0.0,0.0,0.0,0.0,0.0,0.0,0.0,0.0,0.0,0.0,0.0,0.0,0.0,0.0,0.0,0.0,0.0,0.0,0.0,0.0,0.0,0.0,0.0,0.0,-0.0224,-0.0372,-0.0855,-0.1837,-0.2821,-0.3776,-0.4528,-0.5652,-0.621,-0.6005,0.0,0.0,0.0,0.0,0.0,0.0,0.0,0.0,0.0,0.0,0.0,0.0,0.0,0.0,0.0,0.0,0.0,0.0,0.0,0.0,0.0,0.0,0.0,0.0,0.0,0.0,0.0,0.0,0.0,0.0,0.0,0.0,0.0,0.0,0.0,0.0,0.0,0.0,0.0,0.0,0.0,0.0,0.0,0.0,0.0,0.0,0.0,0.0,0.0,0.0,0.0,0.0,0.0,0.0,0.0,0.0,0.0,0.0,0.0,0.0,0.0,0.0,0.0,0.0,0.0,0.0,0.0,0.0,0.0,0.0,0.0,0.0,0.0,0.0,0.0,0.0,0.0,0.0,0.0,0.0,0.0,0.0,0.0,0.0,0.0,0.0,0.0,0.0,0.0,0.0,0.0,0.0,0.0,0.0,0.0,0.0,0.0,0.0,0.0,0.0,0.0,0.0,0.0,0.0,-0.0376,-0.1291,-0.2254,-0.3193,-0.416,-0.5213,-0.5789,-0.5657,0.0,0.0,0.0,0.0,0.0,0.0,0.0,0.0,0.0,0.0,0.0,0.0,0.0,0.0,0.0,0.0,0.0,0.0,0.0,0.0,0.0,0.0,0.0,0.0,0.0,0.0,0.0,0.0,0.0,0.0,0.0,0.0,0.0,0.0,0.0,0.0,0.0,0.0,0.0,0.0,0.0,0.0,0.0,0.0,0.0,0.0,0.0,0.0,0.0,0.0,0.0,0.0,0.0,0.0,0.0,0.0,0.0,0.0,0.0,0.0,0.7988,0.0,0.0,0.0,0.0,0.0,0.0,0.0,0.0,0.0,0.0,0.0,0.0,0.0,0.0,0.0,0.0,0.0,0.0,0.0,0.0,0.0,0.0,0.0,0.0,0.0,0.0,0.0,0.0,0.0,0.0,0.0,0.0,0.0,0.0,0.0,0.0,0.0,0.0,0.0,0.0,0.0,0.0,0.0,-0.031,-0.1101,-0.183,-0.2635,-0.3502,-0.4651,-0.5326,-0.5319,-0.5708,0.0,0.0,0.0,0.0,0.0,0.0,0.0,0.0,0.0,0.0,0.0,0.0,0.0,0.0,0.0,0.0,0.0,0.0,0.0,0.0,0.0,0.0,0.0,0.0,0.0,0.0,0.0,0.0,0.0,0.0,0.0,0.0,0.0,0.0,0.0,0.0,0.0,0.0,0.0,0.0,0.0,0.0,0.0,0.0,0.0,0.0,0.0,0.0,0.0,0.0,0.0,0.0,0.0,0.0,0.0,0.0,0.0,0.0,0.0,0.0,0.7942,0.0,0.0,0.0,0.0,0.0,0.0,0.0,0.0,0.0,0.0,0.0,0.0,0.0,0.0,0.0,0.0,0.0,0.0,0.0,0.0,0.0,0.0,0.0,0.0,0.0,0.0,0.0,0.0,0.0,0.0,0.0,0.0,0.0,0.0,0.0,0.0,0.0,0.0,0.0,0.0,0.0,0.0,-0.0214,-0.0856,-0.1425,-0.2118,-0.3036,-0.4014,-0.4656,-0.4912,-0.529,0.0,0.0,0.0,0.0,0.0,0.0,0.0,0.0,0.0,0.0,0.0,0.0,0.0,0.0,0.0,0.0,0.0,0.0,0.0,0.0,0.0,0.0,0.0,0.0,0.0,0.0,0.0,0.0,0.0,0.0,0.0,0.0,0.0,0.0,0.0,0.0,0.0,0.0,0.0,0.0,0.0,0.0,0.0,0.0,0.0,0.0,0.0,0.0,0.0,0.0,0.0,0.0,0.0,0.879,0.8524,0.8521,0.8394,0.8211,0.8088,0.8038,0.7992,0.7889,0.7412,0.0,0.0,0.0,0.0,0.0,0.0,0.0,0.0,0.0,0.0,0.0,0.0,0.0,0.0,0.0,0.0,0.0,0.0,0.0,0.0,0.0,0.0,0.0,0.0,0.2089,0.1668,0.0,0.0,0.0,0.0,0.0,0.0,0.0,0.0,0.0,0.0,0.0,0.0,0.0,0.0,-0.0167,-0.0586,-0.1007,-0.1636,-0.2505,-0.3238,-0.3885,-0.4355,-0.4755,-0.4961,0.0,0.0,0.0,0.0,0.0,0.0,0.0,0.0,0.0,0.0,0.0,0.0,0.0,0.0,0.0,0.0,0.0,0.0,0.0,0.0,0.0,0.0,0.0,0.0,0.0,0.0,0.0,0.0,0.0,0.0,0.0,0.0,1.6675,1.6975,0.0,0.0,0.0,0.0,0.0,0.0,0.0,0.0,0.0,0.0,0.0,0.0,0.0,1.1845,1.1699,1.1153,1.0903,1.0798,0.9812,0.9329,0.9325,0.8679,0.8354,0.8333,0.8088,0.0,0.7637,0.7459,0.0,0.0,0.0,0.0,0.0,0.0,0.0,0.0,0.0,0.0,0.0,0.0,0.0,0.0,0.0,0.0,0.0,0.0,0.0,0.0,0.0,0.0,0.3766,0.3191,0.2751,0.2344,0.0,0.1157,0.0589,0.0589,0.0432,0.0,0.0,0.0,0.0,0.0,0.0,0.0,0.0,0.0,-0.0123,-0.0409,-0.0666,-0.1043,-0.1716,-0.24,-0.298,-0.3508,-0.4215,-0.459,-0.462,-0.4856,0.0,0.0,0.0,0.0,0.0,0.0,0.0,0.0,0.0,0.0,0.0,0.0,0.0,0.0,0.0,0.0,0.0,0.0,0.0,0.0,0.0,0.0,0.0,0.0,0.0,0.0,0.0,0.0,0.0,1.7633,1.7506,1.7342,1.6842,1.6453,0.0,0.0,0.0,0.0,0.0,0.0,0.0,0.0,0.0,1.4243,1.4249,1.4096,1.3746,1.3236,1.2679,1.2164,1.1226,1.058,1.0078,0.9291,0.8821,0.8577,0.8184,0.7892,0.7713,0.7501,0.7385,0.7301,0.0,0.0,0.0,0.0,0.5978,0.5615,0.5201,0.5061,0.0,0.5022,0.0,0.0,0.0,0.0,0.0,0.0,0.0,0.0,0.0,0.0,0.4539,0.4045,0.3601,0.3104,0.2549,0.18,0.1236,0.0,0.0786,0.0628,0.0628,0.0,0.0,0.0,0.0,0.0,0.0,0.0,-0.0038,-0.0153,-0.0271,-0.0507,-0.1015,-0.1562,-0.2149,-0.286,-0.3599,-0.4071,-0.4258,-0.4572,-0.4486,0.0,0.0,0.0,0.0,0.0,0.0,0.0,0.0,0.0,0.0,0.0,0.0,0.0,0.0,0.0,0.0,0.0,0.0,0.0,0.0,0.0,0.0,0.0,0.0,0.0,0.0,0.0,0.0,1.886,1.8633,1.8139,1.7535,1.7015,0.0,0.0,0.0,0.0,0.0,0.0,1.5684,1.5654,1.5749,1.601,1.6017,1.5758,1.5291,1.4779,1.4163,1.3392,1.248,1.1701,1.1002,0.9964,0.9275,0.8897,0.8266,0.791,0.7801,0.7568,0.7482,0.7526,0.7145,0.6979,0.6836,0.6653,0.6479,0.6346,0.6121,0.6074,0.6068,0.6039,0.0,0.5647,0.5492,0.0,0.0,0.0,0.0,0.4347,0.4729,0.5149,0.5336,0.4908,0.4442,0.391,0.3151,0.2454,0.1866,0.0,0.1123,0.0886,0.0886,0.0,0.0,0.0,0.0,0.0,0.0,0.0,0.0,0.0,0.0,-0.0147,-0.0487,-0.0899,-0.1434,-0.2193,-0.2912,-0.3403,-0.368,-0.4029,-0.4003,-0.3525,0.0,0.0,0.0,0.0,0.0,0.0,0.0,0.0,0.0,0.0,0.0,0.0,0.0,0.0,0.0,0.0,0.0,0.0,0.0,0.0,0.0,0.0,0.0,0.0,0.0,0.0,0.0,0.0,0.0,1.9627,1.8902,0.0,0.0,0.0,0.0,1.664,1.6154,1.598,1.6236,1.6098,1.6004,1.6017,1.6017,1.5809,1.5493,1.5145,1.4841,1.4525,1.3237,1.2478,1.217,1.0452,0.9579,0.9303,0.832,0.7893,0.7886,0.7654,0.7519,0.7366,0.7169,0.7102,0.7098,0.7051,0.7051,0.7051,0.7051,0.7051,0.7027,0.6897,0.6649,0.6338,0.5774,0.529,0.0,0.0,0.5018,0.5202,0.549,0.5981,0.6278,0.5677,0.5246,0.4701,0.3764,0.2989,0.227,0.0,0.1154,0.0914,0.0914,0.0,0.0283,0.0291,0.0143,0.0,0.0,0.0,0.0,0.0,0.0,-0.0073,-0.0292,-0.0511,-0.0913,-0.15,-0.2118,-0.2594,-0.2844,-0.326,-0.3249,-0.2755,-0.2424,0.0,0.0,0.0,0.0,0.0,0.0,0.0,0.0,0.0,0.0,0.0,0.0,0.0,0.0,0.0,0.0,0.0,0.0,0.0,0.0,0.0,0.0,0.0,0.0,0.0,0.0,0.0,0.0,2.1081,1.9952,0.0,1.82,1.7182,1.6593,1.67,1.6507,1.653,1.6879,1.6797,1.6825,1.7009,1.6838,1.6688,1.6579,1.6245,1.5858,1.5419,1.4627,1.385,1.3034,1.1905,1.0935,1.0069,0.9245,0.8558,0.7996,0.7636,0.7421,0.7402,0.72,0.7095,0.7095,0.7095,0.7095,0.7095,0.7095,0.7038,0.692,0.6715,0.6563,0.6404,0.5944,0.5595,0.5398,0.5398,0.5433,0.5499,0.5724,0.61,0.6259,0.5762,0.5462,0.5049,0.4222,0.3527,0.2949,0.2449,0.1667,0.1093,0.1093,0.0856,0.0703,0.0674,0.0487,0.0309,0.0312,0.0243,0.0208,0.0208,0.0069,-0.0035,-0.0107,-0.0178,-0.043,-0.0874,-0.1326,-0.1733,-0.2068,-0.2408,-0.2375,-0.2017,-0.1648,-0.1277,0.0,0.0,0.0,0.0,0.0,0.0,0.0,0.0,0.0,0.0,0.0,0.0,0.0,0.0,0.0,0.0,0.0,0.0,0.0,0.0,0.0,0.0,0.0,0.0,0.0,2.347,2.3252,2.2215,2.1075,1.999,1.9059,1.7885,1.7147,1.7154,1.6965,1.6987,1.7333,1.7347,1.7387,1.7435,1.73,1.7105,1.6911,1.666,1.6261,1.5719,1.5199,1.4453,1.357,1.2631,1.1661,1.0724,0.985,0.9121,0.8458,0.8009,0.7788,0.7777,0.7269,0.7095,0.7095,0.7095,0.7095,0.7088,0.7041,0.6896,0.6742,0.6539,0.648,0.6383,0.6126,0.5944,0.5834,0.5834,0.5834,0.587,0.5983,0.6101,0.6118,0.5863,0.5653,0.5362,0.4682,0.4137,0.3659,0.3214,0.2278,0.1527,0.1456,0.1224,0.1037,0.0967,0.0715,0.0506,0.0506,0.0371,0.0303,0.0303,0.0135,0.0,0.0,0.0,-0.014,-0.0461,-0.0733,-0.1037,-0.1383,-0.1627,-0.1612,-0.1344,-0.1009,-0.0673,-0.0336,0.0,0.0,0.0,0.0,0.0,0.0,0.0,0.0,0.0,0.0,0.0,0.0,0.0,0.0,0.0,0.0,0.0,0.0,0.0,0.0,0.0,0.0,0.0,2.4103,2.4402,2.4298,2.314,2.2331,2.1414,2.0264,1.8869,1.8056,1.8048,1.7536,1.734,1.7569,1.7575,1.7494,1.7206,1.7186,1.6898,1.6328,1.6301,1.5959,1.5391,1.4857,1.4339,1.3755,1.2616,1.1806,1.1284,1.0168,0.9568,0.9345,0.8855,0.8675,0.8544,0.7536,0.7139,0.7139,0.7139,0.7092,0.7068,0.6923,0.6719,0.6511,0.6508,0.6412,0.63,0.63,0.63,0.63,0.63,0.63,0.6296,0.6293,0.6142,0.599,0.5979,0.5901,0.5645,0.5114,0.474,0.4362,0.3912,0.2989,0.2186,0.1951,0.158,0.1277,0.1143,0.0774,0.0,0.0505,0.0404,0.0303,0.0303,0.0134,0.0,0.0,0.0,-0.0067,-0.0269,-0.0403,-0.0571,-0.0773,-0.0975,-0.0975,-0.0773,-0.0472,-0.0202,0.0,0.0,0.0,0.0,0.0,0.0,0.0,0.0,0.0,0.0,0.0,0.0,0.0,0.0,0.0,0.0,0.0,0.0,0.0,0.0,0.0,0.0,2.5388,2.5596,2.5237,2.5641,2.5679,2.4945,2.388,2.2755,2.165,2.0118,1.8985,1.8617,1.7928,1.7502,1.7582,1.7434,1.7286,1.7206,1.679,1.6489,1.6321,1.5852,1.5558,1.5391,1.4794,1.4377,1.4073,1.3679,1.3102,1.2283,1.1811,1.1308,1.0722,1.0231,1.0053,0.9923,0.8671,0.8065,0.7889,0.7672,0.7341,0.6906,0.6688,0.6542,0.6494,0.6392,0.633,0.63,0.63,0.63,0.63,0.63,0.63,0.6272,0.6122,0.6023,0.5939,0.5762,0.5677,0.5537,0.5143,0.4879,0.4635,0.4431,0.4023,0.3453,0.2619,0.2149,0.178,0.1512,0.1125,0.0,0.085,0.0706,0.0601,0.0601,0.0411,0.0285,0.0285,0.0323,0.0327,0.0294,0.0166,0.0067,0.0,-0.0202,-0.0269,-0.0236,-0.0135,0.0,0.0,0.0,0.0,0.0,0.0,0.0,0.0,0.0,0.0,0.0,0.0,0.0,0.0,0.0,0.0,0.0,0.0,0.0,0.0,0.0,0.0,0.0,2.6113,2.622,2.622,2.6338,2.6169,2.5528,2.4619,2.3651,2.2702,2.1226,2.0048,1.9398,1.8468,1.7843,1.7624,1.7345,1.7085,1.6844,1.6502,1.6159,1.5905,1.5571,1.5271,1.5023,1.4683,1.4369,1.4163,1.3985,1.3587,0.0,1.2646,1.2233,1.1703,1.1209,1.1038,0.0,0.0,0.0,0.0,0.0,0.7385,0.6712,0.6573,0.6474,0.6409,0.6327,0.63,0.63,0.63,0.63,0.63,0.63,0.6252,0.6142,0.6016,0.5902,0.5803,0.563,0.5542,0.5471,0.5276,0.5078,0.4905,0.4837,0.4661,0.0,0.3558,0.291,0.2397,0.1983,0.1632,0.1362,0.1362,0.1216,0.1079,0.1079,0.0895,0.074,0.0709,0.069,0.0,0.0,0.0,0.0233,0.0168,0.0067,0.0,0.0,0.0,0.0,0.0,0.0,0.0,0.0,-0.0067,-0.0034,0.0,0.0,0.0,0.0,0.0,0.0,0.0,0.0,0.0,0.0,0.0,0.0,0.0,0.0,0.0,0.0,2.6943,2.7125,2.7027,2.6682,2.624,2.5507,2.496,2.4332,2.3578,2.2299,2.1234,2.0388,1.9213,1.8254,1.7739,0.0,0.0,0.0,0.0,1.5959,1.5398,1.5364,1.507,1.4522,1.4489,1.4335,1.4088,1.3864,1.3652,1.3483,1.3045,1.2735,1.2517,1.2028,1.1792,1.1704,1.0895,1.0297,0.9775,0.8539,0.748,0.6628,0.6574,0.0,0.0,0.6338,0.6338,0.63,0.63,0.6286,0.6272,0.6272,0.6125,0.5963,0.5946,0.5786,0.5586,0.5569,0.5494,0.5388,0.5371,0.5226,0.5093,0.5076,0.4975,0.4789,0.446,0.3732,0.3016,0.2569,0.2213,0.1991,0.1991,0.1833,0.1737,0.1737,0.0,0.0,0.1249,0.1102,0.0952,0.0799,0.0442,0.0195,0.0067,0.0033,0.0033,0.0033,0.0163,0.0225,0.0257,0.0376,0.047,0.0547,0.053,0.0504,0.0,0.0,0.0,0.0,0.0,0.0,0.0,0.0,0.0,0.0,0.0,0.0,0.0,0.0,0.0,2.7741,2.8056,2.7962,2.7033,2.693,2.6774,2.6269,2.5751,2.5235,2.4637,2.375,2.2785,2.1785,2.005,1.8818,1.8266,1.71,1.6442,1.6279,1.6039,1.5745,1.5398,1.5209,1.487,1.4516,0.0,0.0,1.4088,1.4039,1.4004,1.3955,1.387,1.3655,1.335,1.3251,1.3095,1.2728,1.1148,1.0289,0.9845,0.89,0.8085,0.7418,0.7161,0.6937,0.6753,0.6602,0.6412,0.63,0.63,0.6173,0.0,0.6074,0.5962,0.582,0.5705,0.5633,0.5559,0.547,0.5416,0.5361,0.5203,0.512,0.5066,0.4951,0.4908,0.4817,0.4542,0.4038,0.353,0.3173,0.2801,0.2547,0.2547,0.2519,0.2476,0.2476,0.2448,0.2306,0.2025,0.1754,0.1514,0.1279,0.0858,0.0531,0.0346,0.0314,0.0314,0.0314,0.0344,0.0436,0.0592,0.0619,0.0743,0.0904,0.061,0.0495,0.0,0.0,0.0,0.0,0.0,0.0,0.0,0.0,0.0,0.0,0.0,2.8582,2.8962,0.0,2.9519,2.944,2.9361,2.9021,2.8216,2.7648,2.7089,2.634,2.5908,2.5538,2.5137,2.447,2.371,2.2752,2.0895,1.9533,1.884,1.7352,1.6407,1.6258,1.596,1.5618,1.5184,1.5082,1.4743,1.4302,1.4155,1.4088,1.4088,1.4088,1.4088,1.4088,1.4088,1.3915,1.358,1.332,1.3106,1.2882,1.1719,1.0993,1.0538,0.9874,0.9174,0.8453,0.8081,0.7706,0.7288,0.6988,0.6548,0.6146,0.6146,0.6037,0.5915,0.5915,0.581,0.5681,0.5606,0.5535,0.5491,0.5412,0.5337,0.5223,0.5113,0.4982,0.4891,0.4819,0.4745,0.4667,0.4529,0.432,0.4016,0.3611,0.3331,0.3154,0.3154,0.3163,0.316,0.316,0.316,0.3019,0.2685,0.2244,0.185,0.1529,0.1284,0.1062,0.0862,0.0863,0.0863,0.0863,0.0851,0.0875,0.0905,0.0891,0.0921,0.0936,0.0766,0.0722,0.0,0.0,0.0,0.0,0.0,0.0,0.0,2.851,2.8655,2.9224,2.9569,2.992,3.0515,3.0864,3.1001,3.0905,3.0546,3.0101,2.9495,2.8462,2.74,2.6428,2.5965,2.5635,2.5391,2.499,2.4381,2.3578,2.1842,2.0385,1.9486,1.7729,1.6573,1.6189,1.5832,1.5411,1.4928,1.4877,1.4609,1.4088,1.4088,1.4088,1.4088,1.4088,1.4055,1.3995,1.3874,1.3687,1.3427,1.2924,1.2697,1.2677,1.2243,1.1802,1.1348,1.0854,1.0182,0.9485,0.9064,0.8537,0.7974,0.7561,0.6874,0.6217,0.6217,0.612,0.5933,0.5933,0.5797,0.5648,0.5648,0.5589,0.5488,0.5456,0.5316,0.5178,0.5088,0.4857,0.468,0.4653,0.4576,0.4491,0.4491,0.4491,0.438,0.399,0.3858,0.3777,0.3777,0.3777,0.3777,0.3777,0.3727,0.3575,0.3184,0.2674,0.2208,0.1829,0.1804,0.1736,0.157,0.1571,0.1571,0.1571,0.1506,0.14,0.1225,0.1166,0.1052,0.0905,0.0905,0.0924,2.9318,2.8961,2.8803,2.8764,2.8618,2.851,0.0,2.851,2.8695,2.9403,2.9971,3.0481,3.1034,3.1717,3.2001,3.1359,3.1338,3.1043,2.9897,2.8863,2.7955,2.7183,2.6245,2.5693,2.5635,2.5586,2.5235,2.443,2.2928,2.1526,2.0249,1.8077,1.6649,1.613,1.5463,1.4903,1.4569,1.4569,1.4409,1.4088,1.4088,1.4088,1.4088,1.4088,1.3941,1.362,1.3166,1.2911,1.2857,1.2492,1.2351,1.2351,1.2274,1.2244,1.2085,1.1303,1.0761,1.0325,0.9916,0.9382,0.8813,0.8399,0.7706,0.7076,0.7076,0.6801,0.6498,0.6364,0.6113,0.5852,0.5852,0.587,0.5785,0.5606,0.5618,0.5498,0.504,0.4805,0.4679,0.4542,0.4501,0.4491,0.4491,0.4491,0.4491,0.4436,0.4408,0.4408,0.4408,0.4408,0.4408,0.4408,0.424,0.3926,0.342,0.3132,0.2882,0.2583,0.2583,0.2559,0.254,0.254,0.254,0.254,0.2254,0.1971,0.1717,0.1432,0.1153,0.0902,0.0902,0.0933,2.9502,2.9223,2.9106,2.887,2.8494,2.8186,2.8053,2.7878,2.8007,2.8961,2.9772,3.0614,3.1434,3.2265,3.2734,3.24,3.2416,3.2111,3.1038,2.9749,2.8645,2.7752,2.6486,2.5693,2.5693,2.5693,2.5382,2.4649,2.3283,2.1899,2.0585,1.8492,1.7026,1.649,1.5728,1.5208,1.4907,1.4783,1.4591,1.4279,1.4166,1.4088,1.4088,1.4088,1.3928,1.3573,1.3045,1.2784,1.2764,1.2425,1.2305,1.2305,1.2305,1.2305,1.2261,1.1929,1.1706,1.1484,1.1074,1.0539,0.9965,0.9599,0.88,0.8023,0.8023,0.7737,0.7342,0.7052,0.673,0.6474,0.6474,0.6363,0.6237,0.6192,0.6012,0.5765,0.5387,0.5047,0.479,0.4746,0.4684,0.4605,0.4605,0.4546,0.4491,0.4491,0.4491,0.4491,0.4491,0.4491,0.4491,0.4491,0.4251,0.3954,0.3661,0.3408,0.3239,0.3116,0.3121,0.315,0.3213,0.3216,0.3216,0.3216,0.291,0.2601,0.2324,0.1989,0.1681,0.1428,0.1346,0.1253,2.9672,2.9358,2.9118,2.8807,2.8248,2.7744,2.7654,2.7415,2.754,2.8729,2.9557,3.0415,3.1552,3.2381,3.283,3.283,3.2968,3.2766,3.1837,3.0396,2.905,2.8128,2.663,2.5693,2.5693,2.5577,2.5285,2.4737,2.3411,2.2144,2.0951,1.9054,1.7663,1.7072,1.6314,1.5763,1.5454,1.5169,1.4844,1.4482,1.4208,1.4088,1.4082,1.3921,1.3681,1.3367,1.2884,1.2663,1.2643,1.2392,1.2305,1.2305,1.2305,1.2305,1.2305,1.2305,1.2305,1.2268,1.1892,1.1434,1.0889,1.0453,0.9699,0.8899,0.8831,0.8539,0.8194,0.7804,0.7451,0.719,0.719,0.7008,0.6782,0.6795,0.6518,0.6164,0.5803,0.5346,0.5007,0.4956,0.4822,0.4691,0.4691,0.4574,0.4491,0.4491,0.4491,0.4491,0.4491,0.4491,0.4457,0.4375,0.4174,0.399,0.3871,0.3676,0.3562,0.3554,0.356,0.3603,0.3695,0.3701,0.3701,0.3701,0.3398,0.3101,0.2805,0.2528,0.2261,0.1988,0.1842,0.1654,2.9792,2.9224,2.8623,2.8623,2.7926,2.7272,2.7458,2.7335,2.7615,2.9079,2.9392,2.9818,3.117,3.1863,3.224,3.224,3.2717,3.2766,3.1837,3.0396,2.905,2.8128,2.663,2.5693,2.5693,2.5342,2.4993,2.4717,2.3508,2.2372,2.1445,1.977,1.8555,1.7878,1.7078,1.6484,1.6072,1.5616,1.5159,1.4699,1.4286,1.4088,1.4068,1.3494,1.3066,1.2797,1.2452,1.2318,1.2311,1.2305,1.2305,1.2305,1.2305,1.2305,1.2305,1.2305,1.2305,1.2268,1.2077,1.1706,1.1292,1.0852,1.026,0.9708,0.9361,0.9118,0.8888,0.8554,0.8236,0.7954,0.7954,0.771,0.7454,0.731,0.7114,0.6798,0.6133,0.5614,0.5254,0.5124,0.4881,0.4691,0.4691,0.4574,0.4491,0.4491,0.4491,0.4491,0.4491,0.4491,0.4378,0.4038,0.411,0.4137,0.4014,0.3998,0.3973,0.3976,0.3976,0.3979,0.3983,0.3983,0.3983,0.3983,0.3711,0.341,0.3076,0.2951,0.2739,0.248,0.2289,0.2043,2.9176,2.8737,2.8238,2.8089,2.7557,2.704,2.698,2.6745,2.6866,2.8077,2.845,2.9038,3.0568,3.1311,3.1788,3.2152,3.2704,3.2891,3.2231,3.0559,2.9172,2.8534,2.6851,2.5693,2.5693,2.5332,2.4951,2.4528,2.3451,2.2326,2.1328,1.994,1.8839,1.817,1.7498,1.6992,1.6706,1.6131,1.5684,1.536,1.4448,1.3851,1.3494,1.3125,1.2884,1.277,1.2432,1.2305,1.2305,1.2305,1.2305,1.2305,1.2305,1.2305,1.2305,1.2305,1.2305,1.2298,1.2231,1.2114,1.1957,1.1605,1.1208,1.0816,1.0503,1.0263,0.9977,0.9594,0.9268,0.9011,0.9011,0.8598,0.8235,0.8221,0.7903,0.7438,0.6852,0.629,0.5828,0.5595,0.5238,0.4963,0.4963,0.4846,0.4763,0.4763,0.4625,0.4491,0.4491,0.4491,0.445,0.4351,0.4185,0.4051,0.3998,0.3839,0.3768,0.3863,0.387,0.3914,0.3991,0.3994,0.3994,0.3994,0.382,0.3621,0.3424,0.3393,0.3268,0.3086,0.2891,0.2659,2.865,2.8235,2.7772,2.7639,2.7293,2.6971,2.6924,2.6849,2.7021,2.7977,2.8125,2.8561,3.0055,3.0758,3.1286,3.1838,3.2742,3.3115,3.2288,3.0709,2.936,2.8545,2.684,2.5693,2.5693,2.5185,2.4717,2.4443,2.3217,2.2154,2.1377,2.0285,1.9375,1.8794,1.8376,1.8014,1.7619,1.7074,1.6316,1.5383,1.442,1.3639,1.3039,1.2878,1.2723,1.2616,1.2385,1.2305,1.2305,1.2305,1.2305,1.2305,1.2305,1.2305,1.2305,1.2305,1.2305,1.2305,1.2305,1.2305,1.2238,1.1844,1.1583,1.1322,1.0955,1.074,1.053,1.0206,0.9913,0.9684,0.9684,0.9254,0.8827,0.888,0.8463,0.7931,0.7429,0.6885,0.6431,0.6168,0.5732,0.5399,0.5371,0.5148,0.4956,0.4897,0.4763,0.4635,0.4582,0.4621,0.4632,0.4582,0.4372,0.4228,0.4147,0.3939,0.3813,0.3825,0.3829,0.3874,0.3952,0.3955,0.3955,0.3955,0.388,0.3785,0.3696,0.384,0.3829,0.368,0.3555,0.3327,2.821,2.7657,2.7278,2.7278,2.7149,2.7055,2.7245,2.7551,2.8014,2.8737,2.8461,2.8423,2.9578,3.0218,3.0758,3.1298,3.2805,3.3401,3.1946,3.0847,2.965,2.8214,2.664,2.5674,2.5654,2.4922,2.4394,2.4355,0.0,2.1824,2.1578,2.0756,2.0069,1.9645,1.9606,1.9329,1.874,1.8198,1.6935,1.4922,1.4173,1.3473,1.2802,1.2802,1.261,1.2305,1.2305,1.2305,1.2305,1.2305,1.2305,1.2305,1.2305,1.2305,1.2305,1.2305,1.2305,1.2305,1.2305,1.2305,1.2204,1.1617,1.1389,1.1282,1.0767,1.0593,1.0561,1.0371,1.0174,1.0015,1.0015,0.964,0.922,0.923,0.8803,0.8289,0.783,0.7429,0.7058,0.6788,0.6354,0.6,0.5855,0.5449,0.5097,0.4956,0.4928,0.4872,0.4722,0.4807,0.4841,0.4718,0.4696,0.4625,0.4427,0.4267,0.4107,0.3913,0.3902,0.3902,0.3902,0.3902,0.3902,0.3902,0.3902,0.3902,0.3902,0.4228,0.4342,0.4207,0.4224,0.3996,2.7645,2.7128,2.67,2.67,2.6979,2.7245,2.7281,2.7672,2.8186,2.8775,2.816,2.7959,2.9515,2.9905,3.0306,3.1235,3.2805,3.3493,3.2364,3.1067,2.9772,2.8641,2.6871,2.5605,2.5273,2.4736,2.415,2.3525,2.249,2.1697,2.1325,2.0681,2.0147,1.9833,1.9676,1.9359,1.8922,1.7868,1.6545,1.5047,1.4453,1.3645,1.2641,1.2641,1.2526,1.2305,1.2305,1.2305,1.2305,1.2305,1.2305,1.2305,1.2305,1.2305,1.2305,1.2305,1.2305,1.2305,1.2305,1.2305,1.2204,1.1617,1.1389,1.1282,1.0767,1.0593,1.0593,1.053,1.0498,1.0466,1.0466,1.0005,0.957,0.9563,0.9121,0.8619,0.8289,0.7937,0.761,0.7354,0.6837,0.6372,0.6127,0.5837,0.5517,0.5238,0.5183,0.5113,0.4872,0.4875,0.4882,0.4845,0.4763,0.4625,0.4427,0.4267,0.4107,0.3913,0.3902,0.3902,0.3902,0.3902,0.3902,0.3902,0.3902,0.3902,0.3902,0.4228,0.4342,0.4207,0.4354,0.4242,2.7165,2.6738,2.6499,2.6499,2.709,2.7645,2.7645,2.8273,2.8863,2.8875,2.8247,2.8009,2.9202,2.9415,2.9842,3.1173,3.2604,3.3227,3.2252,3.1009,2.9739,2.8524,2.6648,2.5352,2.5135,2.4512,2.3789,2.2939,2.2266,2.1699,2.122,2.0692,2.0255,1.9902,1.9784,1.9557,1.9152,1.7912,1.683,1.5926,1.4897,1.3947,1.2996,1.282,1.2562,1.2305,0.0,1.2305,1.2305,1.2305,1.2305,1.2305,1.2305,1.2305,1.2305,1.2305,1.2305,1.2305,1.2305,1.2305,1.2204,1.1617,1.1389,1.1282,1.0767,1.0593,1.0593,1.0593,1.0593,1.0593,1.0593,1.0251,0.984,0.9742,0.9332,0.8877,0.8553,0.8282,0.8043,0.7723,0.7295,0.6918,0.6642,0.6381,0.6087,0.5755,0.57,0.5645,0.55,0.523,0.5069,0.5069,0.5016,0.4861,0.4605,0.45,0.4342,0.4094,0.4078,0.4078,0.4078,0.4078,0.4078,0.4078,0.4078,0.4078,0.4078,0.4419,0.4511,0.4381,0.4649,0.4629,2.6788,2.6499,2.6512,2.6587,2.7329,2.8009,2.8084,2.8863,2.9428,2.8888,2.8386,2.8185,2.8775,2.8888,2.9453,3.1035,3.229,3.2742,3.1741,3.0789,2.9639,2.8181,2.6263,2.5096,2.5028,2.4258,2.3418,2.25,2.209,2.167,2.1132,2.0781,2.0372,1.9902,1.9863,1.9666,1.9301,1.8143,1.7382,1.7006,1.5442,1.431,1.3571,1.3178,1.2783,1.2378,1.2378,0.0,1.2342,1.2342,1.2335,1.2305,1.2305,1.2305,1.2305,1.2305,1.2305,1.2305,1.2305,1.2305,1.2211,1.1663,1.1422,1.1323,1.0814,1.062,1.0593,1.0593,1.0593,1.0593,1.0593,1.0341,1.0047,0.9753,0.9459,0.9103,0.8718,0.8527,0.8368,0.8064,0.7803,0.7542,0.7246,0.6972,0.6701,0.6372,0.6317,0.6317,0.6317,0.5782,0.5407,0.5407,0.5407,0.5282,0.4931,0.4902,0.4725,0.4362,0.4342,0.432,0.4294,0.4294,0.4294,0.4294,0.4294,0.4294,0.4294,0.4609,0.471,0.4601,0.4915,0.5019,2.6788,2.6499,2.66,2.7065,2.7281,2.7544,2.7996,2.826,2.8373,2.8273,2.7808,2.7733,2.87,2.8888,2.9289,3.0557,3.2064,3.2605,3.1177,3.0501,2.9639,2.8181,2.6263,2.4969,2.456,2.4082,2.3291,2.209,2.1924,2.1533,2.0762,2.0644,2.0372,1.9902,1.9754,1.9557,1.9301,1.8276,1.7578,1.7241,1.5958,1.4883,1.3985,1.376,1.3324,1.2783,1.2783,0.0,1.2562,1.2562,1.2452,1.2305,1.2305,1.2305,1.2305,1.2305,1.2305,1.2305,1.2305,1.2305,1.2245,1.1904,1.1623,1.1329,1.1022,1.0787,1.0593,1.0593,1.0593,1.0593,1.0593,1.0341,1.0047,0.9753,0.9459,0.9131,0.8838,0.8752,0.8725,0.8666,0.8427,0.8156,0.7824,0.7536,0.7273,0.6972,0.6945,0.6945,0.6945,0.6431,0.6046,0.6046,0.6046,0.5885,0.55,0.5349,0.5083,0.4574,0.4495,0.4412,0.4294,0.4294,0.4294,0.4294,0.4294,0.4294,0.4294,0.4464,0.457,0.4597,0.4817,0.4931,2.714,2.6713,2.6625,2.7178,2.7281,2.7431,2.7984,2.8109,2.8021,2.7733,2.7469,2.7444,2.7971,2.831,2.8875,3.0005,3.1323,3.1896,3.0917,3.0224,2.9263,2.7807,2.5918,2.456,2.4131,2.3701,2.3018,2.1963,2.1885,2.1504,2.0654,2.0489,2.0333,2.0108,1.9872,1.9612,1.931,1.8516,1.7935,1.7542,1.6447,1.5594,1.4982,1.4661,1.4266,1.3789,1.3571,0.0,1.3069,1.2856,1.2562,1.2305,1.2305,1.2305,1.2305,1.2305,1.2305,1.2305,1.2305,1.2204,1.2051,1.1953,1.167,1.1309,1.0935,1.0707,1.0593,1.0593,1.0593,1.0593,1.0593,1.0486,1.0234,0.9816,0.9345,0.8951,0.8838,0.8804,0.8804,0.8804,0.8639,0.8441,0.8203,0.7996,0.7788,0.7563,0.7503,0.7503,0.7503,0.7257,0.6988,0.6696,0.6674,0.6492,0.6064,0.5834,0.5462,0.4837,0.4644,0.4469,0.4316,0.4294,0.4294,0.4294,0.4294,0.4294,0.4294,0.4432,0.4518,0.4562,0.4874,0.5015,2.7469,2.7002,2.6801,2.7318,2.7281,2.7281,2.7946,2.7921,2.7632,2.7228,2.714,2.7178,2.7291,2.7632,2.8298,2.9428,3.0419,3.0909,3.0507,2.9741,2.8719,2.7316,2.5533,2.4248,2.3828,2.331,2.2652,2.1943,2.175,2.1339,2.0644,2.045,2.0342,2.0303,2.0108,1.9752,1.9297,1.8723,1.8238,1.78,1.6855,1.6237,1.5833,1.548,1.5125,1.4716,1.4366,0.0,0.0,1.3251,1.2783,1.2378,1.2378,1.2342,1.2305,1.2305,1.2265,1.2204,1.2204,1.2017,1.1799,1.1739,1.1523,1.1249,1.0821,1.064,1.0593,1.0593,1.0593,1.0593,1.0593,1.0546,1.0352,0.9733,0.9192,0.8804,0.8804,0.8804,0.8804,0.8804,0.8718,0.8606,0.8507,0.8401,0.8268,0.8123,0.809,0.809,0.809,0.809,0.7937,0.7515,0.7354,0.7069,0.6582,0.632,0.5882,0.5191,0.4901,0.4666,0.4451,0.4463,0.4462,0.4422,0.4437,0.4435,0.4412,0.4509,0.4597,0.4646,0.495,0.51,2.757,2.7243,2.7379,2.7896,2.7268,2.6851,2.7871,2.7331,2.6637,2.6575,2.6562,2.6725,2.7228,2.7318,2.772,2.8825,2.9528,2.9804,2.941,2.8948,2.8165,2.6824,2.5341,2.4248,2.3828,2.3057,2.2383,2.1924,2.1182,2.0693,2.0605,2.0566,2.0489,2.0303,2.0264,1.9946,1.9307,1.8863,1.8374,1.78,1.7136,1.6551,1.6061,1.5833,1.5515,1.5125,1.4903,0.0,0.0,1.3796,1.3251,1.2562,1.2562,1.2452,1.2305,1.2305,1.2138,1.1946,1.1946,1.171,1.1423,1.1162,1.1056,1.1022,1.0969,1.0801,1.0593,1.0593,1.0593,1.0593,1.0593,1.0361,1.0007,0.9391,0.9011,0.8804,0.8804,0.8804,0.8804,0.8804,0.8778,0.8778,0.8752,0.8752,0.8725,0.8725,0.8725,0.8725,0.8725,0.8725,0.8699,0.8646,0.815,0.761,0.7092,0.6858,0.6409,0.5685,0.5393,0.5133,0.4941,0.4997,0.4973,0.4844,0.4898,0.4881,0.4755,0.4771,0.4869,0.5057,0.5094,0.5169,2.8114,2.7602,2.7363,2.8349,2.7519,2.6788,2.7858,2.7291,2.6499,2.6499,2.6499,2.6562,2.6788,2.7331,2.7921,2.836,2.9478,3.0079,2.9512,2.8955,2.8161,2.6933,2.5683,2.464,2.4119,2.3345,2.253,2.1543,2.0918,2.0605,2.0605,2.0605,2.0449,2.0071,2.0061,1.9666,1.887,1.8634,1.8266,1.7732,1.7285,1.6968,1.6751,1.6542,1.6438,1.6394,1.5939,0.0,0.0,1.4553,1.3833,1.3105,1.2893,1.2562,1.2278,1.2104,1.2,1.1879,1.1663,1.141,1.1142,1.1029,1.0875,1.0767,1.0767,1.068,1.0593,1.0593,1.0593,1.0593,1.0593,1.0238,0.9753,0.9311,0.8991,0.8804,0.8804,0.8804,0.8804,0.8804,0.8804,0.8804,0.8804,0.8804,0.8804,0.8804,0.8804,0.8804,0.8804,0.8804,0.8804,0.8804,0.8586,0.8197,0.7634,0.7392,0.6923,0.6122,0.5996,0.5879,0.5672,0.5681,0.561,0.5376,0.5211,0.5026,0.4804,0.4804,0.484,0.4918,0.5057,0.5121,2.8179,2.7866,2.7703,2.8587,2.7772,2.6989,2.7896,2.7291,2.6499,2.6499,2.6499,2.6549,2.6713,2.7344,2.7971,2.8298,2.934,2.9932,2.9496,2.8976,2.8284,2.7192,2.6303,2.5442,2.4544,2.3503,2.236,2.1134,2.0742,2.0605,2.0605,2.0605,2.0361,1.9922,1.9912,1.9465,1.8607,1.8511,1.8193,1.7706,1.7467,1.7304,1.7201,1.7107,1.7107,1.7166,1.6751,0.0,0.0,1.5267,1.441,1.3571,1.3295,1.2893,1.2448,1.2157,1.1994,1.1872,1.1464,1.1142,1.0868,1.0868,1.076,1.0593,1.0593,1.0593,1.0593,1.0593,1.0593,1.0553,1.0378,1.0023,0.9586,0.9178,0.8931,0.8804,0.8804,0.8804,0.8804,0.8804,0.8804,0.8804,0.8804,0.8804,0.8804,0.8804,0.8804,0.8804,0.8804,0.8804,0.8804,0.8804,0.8804,0.8545,0.7959,0.7732,0.7308,0.6575,0.6556,0.6533,0.6435,0.642,0.6279,0.6007,0.5766,0.5491,0.5212,0.5212,0.5212,0.5217,0.5357,0.5395,2.7423,2.7938,2.8586,2.8599,2.7938,2.7419,2.7984,2.7291,2.6499,2.6499,2.6499,2.6663,2.7168,2.7281,2.7645,2.87,2.89,2.8949,2.9108,2.8919,2.8445,2.7615,2.7243,2.6557,2.5237,2.3278,2.1707,2.0683,2.0605,0.0,2.0605,2.0605,2.0361,1.9922,1.9912,1.9465,1.8607,1.8598,1.8313,1.7706,1.7706,1.7501,1.7201,1.7392,1.7392,1.7201,0.0,0.0,0.0,1.593,1.501,1.3796,1.3796,1.3441,1.2858,1.2514,1.2242,1.1907,1.1394,1.0931,1.0593,1.0593,1.0593,1.0593,1.0593,1.0593,1.0593,1.0593,1.0593,1.0459,0.9876,0.9715,0.9539,0.8951,0.8811,0.8804,0.8804,0.8804,0.8804,0.8804,0.8804,0.8804,0.8804,0.8804,0.8804,0.8804,0.8804,0.8804,0.8804,0.8804,0.8804,0.8804,0.8804,0.8545,0.7959,0.7773,0.7525,0.7112,0.7025,0.7059,0.7182,0.7195,0.703,0.6709,0.6691,0.6529,0.6177,0.6177,0.6177,0.6177,0.6177,0.6127,2.7313,2.7553,2.7881,2.8568,2.7816,2.7073,2.7741,2.7055,2.6339,2.6465,2.6788,2.7115,2.7291,2.7896,2.8487,2.8838,2.9264,2.9463,2.9328,2.9004,2.8615,2.8047,2.6687,2.5349,2.4183,2.2792,2.1599,2.0673,2.0605,2.0605,2.0605,2.0605,2.0273,1.9512,1.9482,1.9072,1.8213,1.8178,1.81,1.7896,1.7784,1.7638,1.7545,1.7495,1.7529,0.0,0.0,0.0,0.0,1.6438,1.5586,1.4732,1.4453,1.4049,1.3577,1.3028,1.2728,1.2505,1.1568,1.0978,1.0593,1.0593,1.0649,1.0744,1.0744,1.0681,1.0593,1.0593,1.0593,1.0459,0.9869,0.9715,0.9532,0.8945,0.8804,0.8804,0.8804,0.8804,0.8804,0.8804,0.8804,0.8804,0.8804,0.8804,0.8804,0.8804,0.8804,0.8804,0.8804,0.8804,0.8804,0.8804,0.8804,0.8545,0.7959,0.8061,0.7937,0.7412,0.7745,0.7983,0.8026,0.8011,0.7862,0.7515,0.7341,0.7112,0.681,0.681,0.681,0.681,0.681,0.6674,2.617,2.6587,2.6978,2.7711,2.7296,2.6808,2.7298,2.6776,2.6298,2.6611,2.6995,2.7406,2.7821,2.8298,2.8725,2.9189,2.9377,2.949,2.9535,2.9326,2.8888,2.804,2.6371,2.4763,2.3454,2.2383,2.1419,2.0664,2.0605,2.0605,2.0605,2.0605,2.0282,1.9541,1.9531,1.9111,1.8217,1.8217,1.813,1.8008,1.7862,1.7784,1.7706,1.7691,1.7691,0.0,0.0,0.0,0.0,1.6925,1.6158,1.5409,1.5161,1.4804,1.4359,1.3627,1.3235,1.2943,1.1804,1.1059,1.0624,1.0649,1.0776,1.0902,1.0839,1.0744,1.0649,1.0624,1.0593,1.0459,0.9869,0.9715,0.9532,0.8945,0.8804,0.8804,0.8857,0.8883,0.8883,0.8936,0.8956,0.8956,0.8956,0.8956,0.8956,0.8956,0.8956,0.8956,0.8956,0.8956,0.8956,0.8956,0.8956,0.8765,0.8276,0.8337,0.8234,0.7859,0.8188,0.8449,0.8556,0.8489,0.8362,0.809,0.7863,0.7649,0.7402,0.7402,0.7402,0.7402,0.7402,0.7241,0.0,2.5203,2.6085,2.6388,2.6622,2.6784,2.6747,2.6471,0.0,2.6858,2.7162,2.7657,2.865,2.8511,2.8574,2.9628,2.934,2.9176,2.9716,2.9753,2.9167,2.7678,2.6267,2.4759,2.3066,2.2056,2.1272,2.0683,2.0605,2.0605,2.0605,2.0605,2.0381,1.9971,1.9932,1.9465,1.8607,1.8568,1.8364,1.8008,1.8008,1.7896,1.774,1.7896,1.7896,0.0,0.0,0.0,0.0,1.7373,1.6682,1.5868,1.5868,1.564,1.5186,1.432,1.376,1.3253,1.2082,1.1185,1.0649,1.0776,1.0965,1.109,1.0902,1.0839,1.0776,1.0656,1.0593,1.0459,0.9869,0.9715,0.9532,0.8945,0.8811,0.8857,0.8982,0.9008,0.9061,0.9185,0.9211,0.9211,0.9211,0.9211,0.9211,0.9211,0.9211,0.9211,0.9211,0.9211,0.9211,0.9211,0.9211,0.9099,0.8837,0.8598,0.8447,0.8427,0.844,0.8575,0.8817,0.8712,0.858,0.8448,0.8321,0.8156,0.7978,0.7978,0.7957,0.7957,0.7957,0.783,2.3385,0.0,2.6495,2.691,2.725,2.7425,0.0,2.6918,2.6593,2.6599,2.7318,2.7996,2.8247,2.89,2.9478,2.9754,2.9679,2.9641,2.9779,2.9507,2.8805,2.7562,2.6279,2.4859,2.3281,2.2297,2.1464,2.0858,2.0819,2.078,2.0605,2.0605,2.0556,2.0458,2.0088,1.9465,1.8607,1.8286,1.8105,1.8008,1.8008,1.7974,1.793,1.7974,1.7974,0.0,0.0,0.0,1.7896,1.7564,1.7132,1.6629,1.6647,1.6354,1.5869,1.5151,1.4429,1.3611,1.2539,1.1622,1.0996,1.1153,1.1209,1.1247,1.1209,1.0989,1.0776,1.0656,1.0593,1.0459,0.9869,0.9715,0.9532,0.8945,0.8883,0.8956,0.8982,0.9087,0.9159,0.9185,0.9211,0.9211,0.9211,0.9211,0.9211,0.9211,0.9211,0.9211,0.9211,0.9211,0.9211,0.9211,0.9211,0.9183,0.9106,0.9054,0.8931,0.8727,0.8904,0.9037,0.9106,0.908,0.9054,0.9001,0.8877,0.8798,0.8738,0.8639,0.8586,0.8586,0.8586,0.8454,2.342,2.4602,2.5643,2.6086,2.6839,2.7462,2.7396,2.709,2.6912,2.7076,2.7446,2.7883,2.8398,2.8775,2.9189,2.9704,2.9566,2.949,2.9754,2.9378,2.859,2.7177,2.6193,2.4977,2.334,2.2503,2.1873,2.1339,2.1128,2.0896,2.0605,2.0605,2.0507,2.0273,1.9853,1.9404,1.8936,1.8471,1.8159,1.8008,1.8008,1.8008,1.8008,1.8008,1.8008,0.0,0.0,0.0,1.7974,1.7691,1.7417,1.7148,1.6937,1.6689,1.6377,1.5473,1.4709,1.3985,1.2902,1.1988,1.1341,1.1303,1.1365,1.1435,1.1334,1.1178,1.0989,1.087,1.0846,1.067,1.0039,0.9882,0.9725,0.9125,0.9035,0.9113,0.9159,0.9237,0.9316,0.9361,0.9387,0.9387,0.9387,0.9387,0.9387,0.9387,0.9387,0.9387,0.9387,0.9387,0.9387,0.9387,0.9387,0.9387,0.9387,0.9387,0.9264,0.8999,0.912,0.9211,0.9211,0.9211,0.9211,0.9211,0.9061,0.9008,0.9008,0.8857,0.8804,0.8804,0.8804,0.8692,2.3918,2.4503,2.4847,2.529,2.6429,2.7429,2.7419,2.7336,2.7368,2.7753,2.7612,2.772,2.87,2.8512,2.8574,2.9628,2.9377,2.9239,2.9729,2.9342,2.8448,2.6872,2.6127,2.513,2.3505,2.2894,2.2429,2.1918,2.153,2.1156,2.0722,2.0683,2.0438,1.9959,1.9576,1.9294,1.9189,1.8724,1.8325,1.8008,1.8008,1.8008,1.8008,1.8008,1.8008,1.8008,0.0,0.0,1.7974,1.7818,1.7653,1.744,1.7054,1.6793,1.6561,1.5538,1.4861,1.425,1.3147,1.229,1.1654,1.1435,1.1466,1.156,1.1404,1.1334,1.131,1.1216,1.1153,1.095,1.026,1.0099,0.9946,0.9332,0.9211,0.9263,0.9387,0.9413,0.9465,0.9588,0.9588,0.9588,0.9588,0.9588,0.9588,0.9588,0.9588,0.9588,0.9588,0.9588,0.9588,0.9588,0.9588,0.9588,0.9588,0.9588,0.951,0.9283,0.9263,0.9263,0.9263,0.9263,0.9263,0.9263,0.914,0.9061,0.9061,0.891,0.8831,0.8831,0.8811,0.8745,2.4196,2.5389,2.6472,2.7002,2.7838,2.8504,2.8397,2.8375,2.8288,2.8111,2.7998,2.8172,2.8775,2.8825,2.8976,2.9679,2.9716,2.9691,2.9779,2.9161,2.8298,2.7223,2.6466,2.5524,2.4164,2.3838,2.3298,2.2402,2.2101,2.1731,2.1128,2.1128,2.0793,2.0185,1.9759,1.9282,1.8705,1.8286,1.8076,1.8008,1.8008,1.8008,1.8008,1.8008,1.8008,1.8008,0.0,1.8008,1.8008,1.7974,1.7726,1.7405,1.7346,1.686,1.6148,1.5685,1.5077,1.4312,1.2986,1.2313,1.1965,1.1654,1.156,1.1591,1.156,1.156,1.156,1.1529,1.131,1.095,1.026,1.0099,0.9946,0.9332,0.929,0.9387,0.9387,0.9491,0.9588,0.9588,0.9588,0.9588,0.9588,0.9588,0.9588,0.9588,0.9588,0.9588,0.9588,0.9588,0.9588,0.9588,0.9588,0.9588,0.9588,0.9588,0.9588,0.9536,0.9536,0.9536,0.9536,0.9536,0.9536,0.9536,0.9413,0.9335,0.9335,0.908,0.8962,0.8962,0.8857,0.8778,2.391,2.5357,2.6752,2.7557,2.8455,2.9123,2.9069,2.8898,2.8737,2.8562,2.8072,2.7921,2.8737,2.865,2.8775,2.9641,2.9792,2.9679,2.9365,2.9013,2.8375,2.7371,2.6868,2.6249,2.5372,2.4814,2.4227,2.3522,2.3139,2.2584,2.1797,2.1574,2.0993,1.995,1.957,1.9023,1.8266,1.8105,1.8008,1.8008,1.8008,1.8008,1.8008,1.8008,1.8008,1.8008,0.0,1.8008,1.8008,1.8008,1.79,1.7676,1.7217,1.6787,1.6336,1.5567,1.4883,1.421,1.3342,1.2842,1.2521,1.2212,1.2027,1.1965,1.1903,1.1778,1.1685,1.1622,1.1498,1.1229,1.0552,1.0358,1.02,0.9563,0.9465,0.9517,0.9517,0.9562,0.9588,0.9588,0.9588,0.9588,0.9588,0.9588,0.9588,0.9588,0.9588,0.9588,0.9588,0.9588,0.9588,0.9588,0.9588,0.9588,0.9588,0.9588,0.9588,0.9588,0.9588,0.9588,0.9588,0.9588,0.9588,0.9588,0.9465,0.9413,0.9387,0.9133,0.9008,0.9008,0.8857,0.8831,2.3715,2.5182,2.6533,2.761,2.8653,2.9419,2.947,2.9313,2.9126,2.9126,2.8348,2.7971,2.8913,2.8787,2.8775,2.9654,2.9792,2.9591,2.8963,2.8775,2.8373,2.7394,2.7049,2.6706,2.6238,2.5606,2.5004,2.4528,2.3931,2.3245,2.2377,2.1934,2.1147,1.9872,1.9551,1.8957,1.8086,1.8076,1.8042,1.8008,1.8008,1.8008,1.8008,1.8008,1.8008,1.8008,1.8008,1.8008,1.8008,1.8008,1.7949,1.7793,1.7106,1.6726,1.6453,1.5445,1.4784,1.4309,1.3872,1.3511,1.3164,1.285,1.2605,1.2421,1.2236,1.205,1.1818,1.1565,1.1481,1.1342,1.0741,1.0528,1.0331,0.9753,0.9588,0.9588,0.9588,0.9588,0.9588,0.9588,0.9588,0.9588,0.9588,0.9588,0.9588,0.9588,0.9588,0.9588,0.9588,0.9588,0.9588,0.9588,0.9588,0.9588,0.9588,0.9588,0.9588,0.9588,0.9588,0.9588,0.9588,0.9588,0.9588,0.9588,0.9484,0.9439,0.9439,0.9211,0.908,0.908,0.8956,0.8962,2.3988,2.5128,2.6196,2.7275,2.8458,2.947,2.9702,2.9754,2.9729,2.9729,2.9239,2.8963,2.9616,2.9691,2.9691,2.9779,2.9792,2.9591,2.8963,2.8486,2.7946,2.7356,2.6864,2.6433,2.6213,2.598,2.55,2.4755,2.4073,2.3419,2.2793,2.2079,2.1259,2.0294,2.0047,1.9418,1.8279,1.8269,1.8178,1.8008,1.8008,1.8008,1.8008,1.8008,1.8008,1.8008,1.8008,1.8008,1.8008,1.8008,1.7783,1.7422,1.7363,1.6868,1.6085,1.5556,1.5186,1.4882,1.4538,1.421,1.386,1.3541,1.3199,1.2887,1.2573,1.229,1.1966,1.1315,1.1144,1.1056,1.0675,1.0368,1.0046,0.9676,0.9588,0.9588,0.9588,0.9588,0.9588,0.9588,0.9588,0.9588,0.9588,0.9588,0.9588,0.9588,0.9588,0.9588,0.9588,0.9588,0.9588,0.9588,0.9588,0.9588,0.9588,0.9588,0.9588,0.9588,0.9588,0.9588,0.9588,0.9588,0.9588,0.9588,0.9588,0.9588,0.9588,0.9439,0.9361,0.9361,0.9237,0.9185,2.3464,2.4838,2.6166,2.6688,2.7965,2.9125,2.9214,2.9252,2.9365,2.9716,2.934,2.885,2.8762,2.9026,2.9139,2.88,2.875,2.8549,2.7984,2.772,2.7394,2.6876,2.6612,2.6465,2.6396,2.6188,2.5797,2.5119,2.4638,2.4004,2.3083,2.2495,2.1763,2.0829,2.0303,1.9621,1.8754,1.8539,1.8279,1.8008,1.8008,1.8008,1.8008,1.8008,1.8008,1.8008,1.8008,1.8008,1.8008,1.8008,1.792,1.7715,1.7187,1.6436,1.5635,1.5469,1.5284,1.5088,1.4872,1.4666,1.4389,1.4201,1.3902,1.3571,1.323,1.2842,1.2405,1.1874,1.1324,1.0812,1.0395,1.0192,1.0016,0.9694,0.9588,0.9588,0.9588,0.9588,0.9588,0.9588,0.9588,0.9588,0.9588,0.9588,0.9588,0.9588,0.9588,0.9588,0.9588,0.9588,0.9588,0.9588,0.9588,0.9588,0.9588,0.9588,0.9588,0.9588,0.9588,0.9588,0.9588,0.9588,0.9588,0.9588,0.9588,0.9588,0.9588,0.9465,0.9413,0.9387,0.9263,0.9237,2.292,2.4219,2.5529,2.5961,2.7237,2.8411,2.8411,2.8812,2.9315,2.9716,2.934,2.8775,2.8436,2.8499,2.8549,2.816,2.8109,2.7908,2.7392,2.7281,2.7115,2.6562,2.6499,2.6499,2.6499,2.6199,2.58,2.5347,2.4767,2.4087,2.3247,2.2683,2.2039,2.1198,2.0656,2.0009,1.9276,1.8965,1.865,1.8245,1.8245,1.8178,1.8008,1.8008,1.8008,1.8008,1.8008,1.8008,1.8008,1.8008,1.793,1.7725,1.6865,1.6152,1.5596,1.5459,1.5332,1.5264,1.5167,1.5049,1.4913,1.4824,1.4567,1.4249,1.3932,1.345,1.2895,1.2264,1.1515,1.0761,1.024,1.0024,0.9892,0.9665,0.9588,0.9588,0.9588,0.9588,0.9588,0.9588,0.9588,0.9588,0.9588,0.9588,0.9588,0.9588,0.9588,0.9588,0.9588,0.9588,0.9588,0.9588,0.9588,0.9588,0.9588,0.9588,0.9588,0.9588,0.9588,0.9588,0.9588,0.9588,0.9588,0.9588,0.9588,0.9588,0.9588,0.9517,0.9465,0.9465,0.9361,0.9387,2.2376,2.3273,2.4142,2.5062,2.6291,2.7329,2.7281,2.8574,2.9779,2.9779,2.9315,2.8888,2.8875,2.8461,2.8097,2.8097,2.8084,2.7896,2.7392,2.7268,2.7102,2.6562,2.6499,2.6499,2.6487,2.5971,2.5498,2.5298,2.4305,2.3559,2.3211,2.2568,2.1956,2.142,2.1083,2.0571,1.9835,1.9693,1.9341,1.8808,1.8798,1.8539,1.8008,1.8008,1.8008,1.8008,1.8008,1.8008,1.8008,1.8008,1.7754,1.7285,1.6437,1.6095,1.6036,1.5566,1.541,1.541,1.541,1.541,1.541,1.541,1.5225,1.4941,1.4597,1.4052,1.3313,1.2293,1.1563,1.0938,1.0274,0.9863,0.9588,0.9588,0.9588,0.9588,0.9588,0.9588,0.9588,0.9588,0.9588,0.9588,0.9588,0.9588,0.9588,0.9588,0.9588,0.9588,0.9588,0.9588,0.9588,0.9588,0.9588,0.9588,0.9588,0.9588,0.9588,0.9588,0.9588,0.9588,0.9588,0.9588,0.9588,0.9588,0.9588,0.9588,0.9588,0.9588,0.9588,0.9588,0.9588,0.9588,2.2247,2.3264,2.4223,2.4898,2.649,2.7758,2.7369,2.7971,2.8599,2.8599,2.8473,2.8235,2.7846,2.7632,2.7394,2.7052,2.6977,2.6927,2.6763,2.6738,2.6675,2.6512,2.6499,2.6336,2.5921,2.5699,2.5252,2.4448,2.3947,2.3492,2.3016,2.2702,2.2494,2.2328,2.1987,2.1557,2.108,2.0688,2.0104,1.9297,1.8998,1.8633,1.8202,1.8202,1.8144,1.8008,1.8008,1.8008,1.7988,1.7686,1.7161,1.6457,1.6193,1.5909,1.5586,1.5459,1.541,1.541,1.541,1.541,1.541,1.541,1.5284,1.5098,1.4911,1.4389,1.3704,1.2915,1.2006,1.1133,1.0583,1.0031,0.9588,0.9588,0.9588,0.9588,0.9588,0.9588,0.9588,0.9588,0.9588,0.9588,0.9588,0.9588,0.9588,0.9588,0.9588,0.9588,0.9588,0.9588,0.9588,0.9588,0.9588,0.9588,0.9588,0.9588,0.9588,0.9588,0.9588,0.9588,0.9588,0.9588,0.9588,0.9588,0.9588,0.9588,0.9588,0.9588,0.9588,0.9588,0.9588,0.9588,2.1897,2.2995,2.4036,2.4707,2.6334,2.7695,2.7356,2.7708,2.8109,2.8109,2.7934,2.767,2.7379,2.714,2.6889,2.6549,2.6499,2.6499,2.6499,2.6499,2.6499,2.6499,2.6285,2.6009,2.5636,2.5209,2.4695,2.4054,2.3654,2.3318,2.2934,2.283,2.2769,2.272,2.2432,2.2142,2.1839,2.1494,2.0911,2.0122,1.9631,1.9094,1.8532,1.8064,1.7721,1.7467,1.7467,1.7467,1.7438,1.7041,1.6574,1.6075,1.5899,1.5644,1.541,1.541,1.541,1.541,1.541,1.541,1.541,1.541,1.5362,1.5225,1.5003,1.4482,1.3803,1.2982,1.1996,1.1059,1.053,1.0009,0.9588,0.9588,0.9588,0.9588,0.9588,0.9588,0.9588,0.9588,0.9588,0.9588,0.9588,0.9588,0.9588,0.9588,0.9588,0.9588,0.9588,0.9588,0.9588,0.9588,0.9588,0.9614,0.9673,0.9725,0.9803,0.988,0.994,0.9932,0.9888,0.9692,0.9588,0.9588,0.9588,0.9588,0.9588,0.9588,0.9588,0.9588,0.9588,0.9588,2.1356,2.2553,2.3635,2.4456,2.5946,2.7231,2.7268,2.7632,2.7959,2.7959,2.7557,2.7241,2.7241,2.6839,2.6499,2.6499,2.6499,2.6499,2.6499,2.6499,2.6474,2.6424,2.5912,2.5548,2.546,2.4569,2.3979,2.3916,2.3396,2.3047,2.2909,2.2909,2.2848,2.2739,2.2543,2.242,2.2278,2.2087,2.1729,2.1181,2.0522,1.9767,1.888,1.776,1.7075,1.6738,1.6746,1.6716,1.6609,1.6261,1.6065,1.5987,1.5566,1.541,1.541,1.541,1.541,1.541,1.541,1.541,1.541,1.541,1.5381,1.5283,1.4902,1.4364,1.3669,1.2715,1.1762,1.0909,1.0287,0.9889,0.9614,0.9614,0.9588,0.9588,0.9588,0.9588,0.9588,0.9588,0.9588,0.9588,0.9588,0.9588,0.9588,0.9588,0.9588,0.9588,0.9588,0.9588,0.9588,0.9588,0.9588,0.9647,0.9792,0.9947,1.0128,1.0342,1.0496,1.0496,1.0368,0.988,0.964,0.9614,0.9614,0.9588,0.9588,0.9588,0.9588,0.9588,0.9588,0.9588,2.0594,2.1935,2.322,2.4095,2.5361,2.6592,2.7157,2.7065,2.6851,2.6851,2.6751,2.6675,2.6675,2.6575,2.6499,2.6499,2.6499,2.6499,2.6499,2.6499,2.6323,2.5837,2.5674,2.5272,2.4431,2.413,2.3803,2.3321,2.317,0.0,2.3047,2.3047,2.3047,2.3017,2.2987,2.2927,2.2896,2.2744,2.2414,0.0,2.1266,2.0281,1.9016,1.8143,1.7461,1.6969,1.7154,1.6846,1.6232,1.6134,1.5889,1.5537,1.5449,1.541,1.541,1.541,1.541,1.541,1.541,1.541,1.541,1.541,1.5186,1.4902,1.4842,1.422,1.3451,1.2885,1.2042,1.1175,1.0581,1.009,0.9732,0.9614,0.9588,0.9588,0.9588,0.9588,0.9588,0.9588,0.9588,0.9588,0.9588,0.9588,0.9588,0.9588,0.9588,0.9588,0.9588,0.9588,0.9588,0.9588,0.9588,0.9699,0.9947,1.0172,1.0429,1.0744,1.0964,1.0964,1.0769,1.0223,0.987,0.9766,0.9647,0.9588,0.9588,0.9588,0.9588,0.9588,0.9588,0.9588,1.9832,2.1137,2.2567,2.4182,2.5241,2.6089,2.6759,2.67,2.6411,2.6135,2.6298,2.6499,2.6499,2.6499,2.6499,2.6499,2.6499,2.6499,2.6499,2.6248,2.5971,2.5636,2.5146,2.4607,2.4054,2.3753,2.3434,2.3133,2.3108,2.3108,2.3108,2.3108,2.3108,2.3108,2.3108,2.3108,2.3108,2.3017,2.282,2.2486,2.1846,2.0616,1.8879,1.79,1.7339,1.7128,1.6865,1.6515,1.6075,1.587,1.5615,1.541,1.541,1.541,1.541,1.541,1.541,1.541,1.541,1.541,1.5381,1.5176,1.4961,1.4707,1.4297,1.3775,1.3195,1.2624,1.1931,1.1204,1.0601,1.018,0.9844,0.964,0.9647,0.9706,0.9777,0.9862,0.9966,1.0017,0.9991,0.9914,0.981,0.9699,0.9588,0.9588,0.9588,0.9588,0.9588,0.9588,0.9588,0.9588,0.9588,0.9751,1.0102,1.0462,1.0786,1.115,1.1469,1.1519,1.1293,1.0863,1.0377,0.9903,0.9699,0.9588,0.9588,0.9588,0.9588,0.9588,0.9588,0.9588,1.8965,2.0407,2.1983,2.4257,2.5087,2.5558,2.6176,2.6314,2.6186,2.5624,2.5941,2.6323,2.6223,2.621,2.621,2.621,2.621,2.621,2.6244,2.5829,2.5456,2.5355,2.4563,2.3985,2.3866,2.3384,2.3108,2.3108,0.0,2.3108,2.3108,2.3108,2.3108,2.3108,2.3108,2.3108,2.3108,2.3108,2.3047,2.2927,2.2149,2.0832,1.904,1.7776,1.7141,1.7062,1.6454,1.6124,1.5948,1.5557,1.541,1.541,1.541,1.541,1.541,1.541,1.541,1.541,1.541,1.541,1.5342,1.4922,1.4764,1.4531,1.374,1.3279,1.2906,1.2317,1.1803,1.1267,1.071,1.0352,1.0095,0.9829,0.9888,0.9999,1.0051,1.0257,1.0445,1.059,1.0462,1.0239,1.0025,0.9777,0.9588,0.9588,0.9588,0.9588,0.9588,0.9588,0.9588,0.9588,0.9588,0.9803,1.029,1.0718,1.1141,1.1578,1.2002,1.2126,1.1852,1.1578,1.1065,1.0231,0.9855,0.9673,0.9647,0.9614,0.9614,0.9647,0.9673,0.9699,1.7831,1.9835,2.2041,2.3654,2.4312,2.4707,2.5335,2.5606,2.5599,2.5244,2.5473,2.5573,2.5121,2.5046,2.5046,2.5046,2.5046,2.5053,2.5178,2.514,2.4893,2.4444,2.4254,2.3914,2.3271,2.3145,2.3108,2.3108,2.3108,2.3108,2.3108,2.3108,2.3108,2.3108,2.3108,2.3108,2.3108,2.3108,2.3078,2.3065,2.1923,2.1112,2.0551,1.8769,1.7315,1.627,1.6523,1.618,1.5498,1.5439,1.541,1.541,1.541,1.541,1.541,1.541,1.541,1.541,1.541,1.541,1.5342,1.4922,1.4531,1.4104,1.3652,1.3152,1.2704,1.249,1.215,1.1728,1.1293,1.0964,1.0718,1.0437,1.0565,1.0693,1.0403,1.059,1.0871,1.1057,1.0727,1.03,1.0051,0.9777,0.9588,0.9588,0.9588,0.9588,0.9588,0.9588,0.9588,0.9588,0.9588,0.9829,1.0419,1.0888,1.141,1.1977,1.2505,1.2676,1.2406,1.215,1.1728,1.1141,1.0352,0.9895,0.9766,0.9647,0.9647,0.9766,0.9895,1.0051,1.7804,1.9611,2.1245,2.2233,2.297,2.3568,2.3977,2.4319,2.4431,2.402,2.4177,2.4494,2.4743,2.4788,2.4788,2.4788,2.4788,2.484,2.4975,2.469,2.4381,2.4234,2.3826,2.3475,2.3133,2.3108,2.3108,2.3108,2.3108,2.3108,2.3108,2.3108,2.3108,2.3108,2.3108,2.3108,2.3108,2.3108,2.3108,2.3095,2.2172,2.1362,2.0564,1.9188,1.8021,1.7079,1.6565,1.6133,1.5782,1.5508,1.541,1.541,1.541,1.541,1.541,1.541,1.541,1.541,1.541,1.541,1.5303,1.4611,1.426,1.3987,1.335,1.3003,1.2808,1.2735,1.248,1.215,1.1828,1.1553,1.1267,1.0964,1.1141,1.1343,1.1343,1.1343,1.1368,1.1469,1.1167,1.0812,1.0565,1.0275,1.0095,1.0095,1.0095,1.0095,1.0095,1.0095,1.0095,1.0095,1.0095,1.03,1.0794,1.1242,1.1694,1.2175,1.2627,1.2808,1.2627,1.2431,1.2101,1.1653,1.071,1.0128,0.9921,0.9699,0.9699,0.9921,1.0128,1.0385,1.7908,1.9246,2.0226,2.0912,2.1633,2.2265,2.2711,2.3139,2.3364,2.3134,2.3244,2.3611,2.4204,2.4322,2.4362,2.4362,2.4362,2.4425,2.4583,2.4166,2.3871,2.3994,2.3523,2.3168,2.3108,2.3108,2.3108,2.3108,2.3108,2.3108,2.3108,2.3108,2.3108,2.3108,2.3108,2.3108,2.3108,2.3108,2.3108,2.3095,2.2468,2.1633,2.0626,1.941,1.8509,1.7817,1.6628,1.6026,1.5899,1.5547,1.541,1.541,1.541,1.541,1.541,1.541,1.541,1.541,1.541,1.541,1.5293,1.4513,1.427,1.4133,1.3418,1.3203,1.3203,1.3203,1.2966,1.2656,1.2407,1.21,1.1769,1.151,1.1644,1.1927,1.215,1.2101,1.1977,1.1927,1.1703,1.1427,1.115,1.0871,1.0693,1.0693,1.0693,1.0693,1.0693,1.0693,1.0693,1.0693,1.0693,1.0837,1.1226,1.1603,1.1952,1.2332,1.27,1.2856,1.2749,1.2652,1.2431,1.2051,1.1242,1.0633,1.0231,0.9958,0.9958,1.0231,1.0506,1.0786,1.7705,1.8434,1.9031,2.0027,2.0426,2.0873,2.1847,2.2377,2.2795,2.3199,2.3269,2.316,2.3043,2.3114,2.3195,2.3195,2.3195,2.3256,2.3462,2.3466,2.3441,2.3441,2.3416,2.33,2.3108,2.3108,2.3108,2.3108,2.3108,2.3108,2.3108,2.3108,2.3108,2.3108,2.3108,2.3108,2.3108,2.3108,2.3108,2.3095,2.2543,2.1976,2.1284,1.9524,1.8382,1.7728,1.6588,1.586,1.5439,1.542,1.541,1.541,1.541,1.541,1.541,1.541,1.541,1.541,1.541,1.541,1.5342,1.4893,1.4746,1.4668,1.4182,1.4046,1.4046,1.4046,1.3675,1.3237,1.3074,1.2664,1.2224,1.2101,1.215,1.2308,1.2455,1.2686,1.2759,1.2505,1.2249,1.1977,1.1703,1.1385,1.115,1.115,1.115,1.115,1.115,1.115,1.115,1.115,1.115,1.1309,1.1653,1.1927,1.22,1.248,1.2759,1.2905,1.2881,1.2881,1.2759,1.248,1.2175,1.1619,1.0845,1.059,1.059,1.0871,1.1124,1.1402,1.6791,1.7638,1.8273,1.8996,1.9457,1.9861,2.0359,2.0751,2.1161,2.1811,2.2111,2.2219,2.2215,2.2447,2.2696,2.2818,2.2909,2.306,2.3373,2.33,2.3271,2.3373,2.33,2.3168,2.3108,2.3108,2.3108,2.3108,0.0,2.3108,2.3108,2.3108,2.3108,2.3108,2.3108,2.3108,2.3108,2.3108,2.3108,2.3108,2.2907,2.2323,2.1361,1.9866,1.8697,1.7744,1.6403,1.5752,1.5575,1.5449,1.541,1.541,1.541,1.541,1.541,1.541,1.541,1.541,1.541,1.541,1.5342,1.4922,1.4813,1.4697,1.4241,1.4104,1.4104,1.4104,1.397,1.3743,1.3446,1.3211,1.3055,1.302,1.3045,1.3147,1.3468,1.339,1.3153,1.2709,1.248,1.2298,1.2126,1.1918,1.1794,1.1794,1.1794,1.1794,1.1794,1.1794,1.1794,1.1794,1.1794,1.1868,1.2076,1.2249,1.2421,1.2627,1.2808,1.2905,1.2905,1.2905,1.2808,1.2627,1.2455,1.2051,1.1418,1.1091,1.1116,1.1427,1.1703,1.1952,1.5939,1.6739,1.7452,1.8069,1.8501,1.8851,1.9314,1.961,2.0068,2.0896,2.114,2.1291,2.1464,2.1652,2.1944,2.2408,2.2696,2.2939,2.3271,2.3168,2.3138,2.3271,2.3374,2.3396,2.3396,2.3396,2.3396,0.0,0.0,0.0,2.3108,2.3108,2.3108,2.3108,2.3108,2.3108,2.3108,2.3108,2.3108,2.3108,2.3108,2.2607,2.1608,2.0246,1.9055,1.8048,1.6458,1.574,1.5672,1.5478,1.541,1.541,1.541,1.541,1.541,1.541,1.541,1.541,1.541,1.541,1.5371,1.5088,1.5,1.4941,1.4621,1.4533,1.4533,1.4533,1.4436,1.426,1.4014,1.3828,1.3695,1.3695,1.3828,1.3936,1.3899,1.3685,1.3402,1.3045,1.2797,1.2603,1.2529,1.2431,1.2382,1.2382,1.2382,1.2382,1.2382,1.2382,1.2382,1.2382,1.2382,1.2406,1.2505,1.2578,1.2676,1.2759,1.2856,1.2905,1.2905,1.2905,1.2856,1.2783,1.2676,1.2455,1.2101,1.1694,1.1644,1.1902,1.2126,1.2382,0.0,0.0,0.0,1.7279,1.7588,1.7924,1.879,1.9143,1.9579,2.0561,2.0498,2.0398,2.0793,2.0709,2.0914,2.1877,2.242,2.2794,2.3067,2.3128,2.3128,2.3115,2.3647,2.4017,2.4017,2.4017,2.4017,0.0,2.3459,2.3133,2.3133,2.3108,2.3108,2.3108,2.3108,2.3108,2.3108,2.3108,2.3108,2.3108,2.3108,2.2775,2.2161,2.0522,1.9436,1.8695,1.6738,1.5827,1.5701,1.5478,1.541,1.541,1.541,1.541,1.541,1.541,1.541,1.541,1.541,1.541,1.541,1.541,1.541,1.541,1.541,1.541,1.541,1.541,1.5117,1.4805,1.4785,1.4463,1.4114,1.4124,1.4463,1.4541,1.3721,1.3525,1.3506,1.3486,1.3174,1.2925,1.2905,1.2915,1.2925,1.2905,1.2905,1.2905,1.2905,1.2905,1.2905,1.2905,1.2905,1.2905,1.2905,1.2905,1.2905,1.2905,1.2905,1.2905,1.2905,1.2905,1.2905,1.2905,1.2905,1.2905,1.2905,1.2382,1.22,1.2323,1.2446,1.2652,1.4034,0.0,0.0,0.0,0.0,0.0,1.85,1.8748,1.9007,1.9767,1.9864,1.9788,1.9682,2.0087,2.0557,2.0897,2.1816,2.2743,2.3426,2.366,2.3789,2.3872,2.4181,2.4421,2.4562,2.4594,0.0,0.0,2.4067,2.3753,2.3753,2.3333,2.3108,2.3108,2.3108,2.3108,2.3108,2.3108,2.3108,2.3108,2.3108,2.2775,2.2161,2.0522,1.9436,1.8695,1.6738,1.5885,1.5827,1.5507,1.541,1.541,1.541,1.541,1.541,1.541,1.541,1.541,1.541,1.541,1.541,1.541,1.541,1.541,1.541,1.541,1.541,1.541,1.5322,1.5166,1.4891,1.4463,1.4182,1.4531,1.4453,1.4309,1.4414,1.3945,1.3418,1.3115,1.3203,1.3242,1.2954,1.3135,1.3232,1.2954,1.2905,1.2905,1.2905,1.2905,1.2905,1.2905,1.2905,1.2905,1.2905,1.2905,1.2905,1.2905,1.2905,1.2905,1.2905,1.2905,1.2905,1.2905,1.2905,1.2905,1.2905,1.2749,1.27,1.2725,1.2774,1.2832,1.3324,1.4006,1.4832,1.5877,0.0,0.0,1.7719,1.7881,1.8027,1.8505,1.8634,1.8707,1.8706,1.9202,1.9751,2.0239,2.1161,2.2138,2.3065,2.3447,2.3725,2.3911,2.4427,2.4851,2.5114,2.5146,2.5146,2.5146,2.4644,2.4243,2.4004,2.3421,2.3108,2.3108,2.3108,2.3108,2.3108,2.3108,2.3108,2.3108,2.3108,2.2775,2.2161,2.0522,1.9436,1.8695,1.6738,1.5885,1.5885,1.5536,1.541,1.541,1.541,1.541,1.541,1.541,1.541,1.541,1.541,1.541,1.541,1.541,1.541,1.541,1.541,1.541,1.541,1.541,1.541,1.5352,1.5107,1.4853,1.4708,1.499,1.4717,1.4424,1.4492,1.3984,1.3486,1.3418,1.3457,1.3486,1.3418,1.3467,1.3418,1.3184,1.3023,1.2905,1.2905,1.2905,1.2905,1.2905,1.2905,1.2905,1.2905,1.2905,1.2905,1.2905,1.2905,1.2905,1.2905,1.2905,1.2905,1.2905,1.2905,1.2905,1.2905,1.2905,1.2905,1.2905,1.2905,1.2905,1.2833,1.344,1.414,1.5016,1.5544,0.0,1.6577,1.6726,1.676,1.695,1.7123,1.7373,1.7794,1.8197,1.8778,1.9823,2.0481,2.1234,2.2309,2.2856,2.3276,2.3647,2.4495,2.5207,2.5519,2.5586,2.5619,2.5619,2.5114,2.4582,2.4029,2.3421,2.3108,2.3108,2.3108,2.3108,2.3108,2.3108,2.3108,2.3108,2.3108,2.2775,2.218,2.0552,1.9465,1.8715,1.6796,1.5914,1.5885,1.5536,1.541,1.541,1.541,1.541,1.541,1.541,1.541,1.541,1.541,1.541,1.541,1.541,1.541,1.541,1.541,1.541,1.541,1.541,1.541,1.541,1.541,1.541,1.541,1.541,1.5049,1.4609,1.4192,1.3743,1.3539,1.3958,1.3734,1.3613,1.3909,1.3695,1.3486,1.3447,1.3125,1.2905,1.2905,1.2905,1.2905,1.2905,1.2905,1.2905,1.2905,1.2905,1.2905,1.2905,1.2905,1.2905,1.2905,1.2905,1.2905,1.2905,1.2905,1.2905,1.2905,1.2905,1.2905,1.2905,1.2905,1.2905,1.1722,1.227,1.2955,1.3567,1.4183,0.0,1.5376,1.5525,1.5596,1.5781,1.6053,1.6437,1.701,1.7716,1.8405,1.9089,1.9611,2.0437,2.2098,2.3008,2.3663,2.4033,2.4484,2.4932,2.5331,2.5505,2.5656,2.5842,2.5174,2.4582,2.4029,2.3421,2.3108,2.3108,2.3108,2.3108,2.3108,2.3108,2.3108,2.3108,2.3108,2.2836,2.2322,2.0819,1.969,1.8854,1.7009,1.6105,1.5885,1.5536,1.541,1.541,1.541,1.541,1.541,1.541,1.541,1.541,1.541,1.541,1.541,1.541,1.541,1.541,1.541,1.541,1.541,1.541,1.541,1.541,1.541,1.541,1.541,1.541,1.4796,1.4211,1.4124,1.3535,1.315,1.3545,1.3539,1.3428,1.3174,1.334,1.3389,1.3081,1.2954,1.2905,1.2905,1.2905,1.2905,1.2905,1.2905,1.2905,1.2905,1.2905,1.2905,1.2905,1.2905,1.2905,1.2905,1.2905,1.2905,1.2905,1.2905,1.2905,1.2905,1.2905,1.2905,1.2905,1.2905,1.2905,1.1349,1.1852,1.2473,1.2889,1.3442,0.0,0.0,1.4645,1.4681,1.4867,1.518,1.5631,1.6245,1.6906,1.7579,1.8241,1.8787,1.9615,2.0927,2.1827,2.2607,2.3364,2.3779,2.4204,2.4671,2.4969,2.5347,2.5875,2.5215,2.4662,2.4418,2.3572,2.3108,2.3108,2.3108,2.3108,2.3108,2.3108,2.3108,2.3108,2.2832,2.2486,2.2061,2.0629,1.9638,1.8852,1.7238,1.6371,1.6077,1.5691,1.5546,1.5546,1.5449,1.541,1.541,1.541,1.541,1.541,1.541,1.541,1.541,1.541,1.541,1.541,1.541,1.541,1.541,1.541,1.541,1.541,1.541,1.541,1.541,1.541,1.4728,1.4104,1.4104,1.3477,1.2964,1.3154,1.3193,1.3262,1.3467,1.3506,1.3437,1.3223,1.3042,1.2905,1.2905,1.2905,1.2905,1.2905,1.2905,1.2905,1.2905,1.2905,1.2905,1.2905,1.2905,1.2905,1.2905,1.2905,1.2905,1.2905,1.2905,1.2905,1.2905,1.2905,1.2905,1.2905,1.2905,1.2905,1.1196,1.1654,1.2101,1.2382,1.2842,1.3339,0.0,0.0,0.0,1.3941,1.4302,1.476,1.5409,1.6,1.6629,1.7423,1.8083,0.0,0.0,2.0194,0.0,2.2435,2.2931,2.3327,2.3829,2.4384,2.5016,2.5793,2.5303,2.4888,2.48,2.3822,2.3221,2.3108,2.3108,2.3108,2.3108,2.3108,2.3108,2.3095,2.2656,2.2234,2.1817,2.0596,1.9654,1.8907,1.7572,1.6758,1.6353,1.5961,1.5759,1.5672,1.5507,1.5449,1.5449,1.541,1.541,1.541,1.541,1.541,1.541,1.541,1.5352,1.5303,1.5391,1.5352,1.5312,1.5391,1.541,1.541,1.541,1.541,1.541,1.541,1.4728,1.4104,1.4104,1.3477,1.2905,1.2905,1.2905,1.3096,1.3753,1.3613,1.3389,1.3389,1.3164,1.3023,1.3023,1.3076,1.3125,1.3125,1.3125,1.3096,1.3032,1.3023,1.2993,1.2905,1.2905,1.2905,1.2905,1.2905,1.2905,1.2905,1.2905,1.2905,1.2905,1.2905,1.2905,1.2905,1.2905,1.2905,1.068,1.1089,1.1511,1.1545,1.2004,1.2452,1.2489,0.0,1.2556,1.2739,0.0,1.3622,1.4338,0.0,0.0,1.6828,0.0,0.0,1.8652,1.8821,1.9689,2.1906,2.2365,2.2665,0.0,2.407,2.4969,2.5571,2.5558,2.531,2.4813,2.4243,2.3665,2.312,2.3108,2.3108,2.3108,2.3108,2.3108,2.3108,2.3045,2.2668,2.2047,2.1301,2.0314,1.9181,1.8063,1.7262,1.6694,1.6228,1.5923,1.5701,1.5672,1.5672,1.5643,1.5478,1.541,1.541,1.541,1.541,1.541,1.541,1.5156,1.4922,1.5293,1.5146,1.4932,1.5312,1.541,1.541,1.541,1.541,1.541,1.541,1.4728,1.4104,1.4104,1.3477,1.2905,1.2905,1.2905,1.2935,1.3032,1.3013,1.2974,1.2974,1.3232,1.3437,1.3437,1.3734,1.3968,1.3968,1.3968,1.3821,1.3467,1.3437,1.3281,1.2925,1.2905,1.2905,1.2905,1.2905,1.2905,1.2905,1.2905,1.2905,1.2905,1.2905,1.2905,1.2905,1.2905,1.2905,1.0593,1.0982,1.1389,1.1389,1.1864,1.2305,1.2305,1.2305,1.2378,1.2562,0.0,0.0,0.0,0.0,0.0,0.0,1.6559,0.0,0.0,0.0,1.9017,2.0467,0.0,0.0,0.0,0.0,0.0,0.0,2.5082,2.4908,2.4368,2.4117,2.3728,2.312,2.3108,2.3108,2.3108,2.3108,2.3108,2.3108,2.2782,2.2477,2.221,2.1266,2.0483,1.976,1.8721,1.7957,1.7385,1.6747,1.6332,1.6009,1.5788,1.5643,1.5507,1.5439,1.541,1.541,1.541,1.541,1.541,1.541,1.5293,1.5186,1.5361,1.5283,1.5186,1.5361,1.541,1.541,1.541,1.541,1.541,1.541,1.4728,1.4104,1.4104,1.3636,1.3242,1.3242,1.3437,1.3613,1.3613,1.3203,1.2993,1.3203,1.3389,1.3594,1.3812,1.3997,1.4104,1.4104,1.4104,1.3938,1.3545,1.3506,1.333,1.2935,1.2905,1.2929,1.3002,1.3027,1.3027,1.3027,1.3027,1.2978,1.2905,1.2905,1.2905,1.2905,1.2905,1.2905,1.0593,0.0,0.0,0.0,0.0,0.0,0.0,0.0,0.0,0.0,0.0,0.0,0.0,0.0,1.4302,1.5152,0.0,1.6378,0.0,1.7906,0.0,0.0,0.0,0.0,0.0,0.0,0.0,0.0,0.0,2.4728,2.4373,2.4274,2.3966,2.3358,2.3195,2.3108,2.3108,2.3108,2.3108,2.3095,2.2706,2.2385,2.2058,2.124,2.0538,1.9932,1.9039,1.839,1.7897,1.7168,1.6673,1.6353,1.5933,1.5633,1.5478,1.541,1.541,1.541,1.541,1.541,1.541,1.541,1.5332,1.5264,1.5381,1.5332,1.5264,1.5381,1.541,1.541,1.541,1.541,1.541,1.541,1.4728,1.4143,1.426,1.386,1.3545,1.3627,1.3899,1.4104,1.4104,1.3633,1.333,1.3633,1.3779,1.3965,1.4241,1.4387,1.4455,1.4455,1.4455,1.4241,1.3695,1.3656,1.3447,1.2935,1.2905,1.2954,1.3085,1.3061,1.3061,1.3109,1.3061,1.3002,1.2905,1.2905,1.2905,1.2905,1.2905,1.2905,0.0,0.0,0.0,1.1389,0.0,0.0,0.0,0.0,1.2305,0.0,0.0,0.0,0.0,1.2973,1.3404,1.397,1.4732,0.0,0.0,0.0,1.7834,0.0,0.0,0.0,0.0,0.0,0.0,0.0,0.0,0.0,2.5261,2.4941,2.4544,2.3991,2.3396,2.3108,2.3108,2.3108,2.3108,2.3108,2.3083,2.2518,2.1518,2.1353,2.059,1.9393,1.8839,1.8414,1.8038,1.7307,1.6842,1.6542,1.6077,1.5827,1.5672,1.5478,1.541,1.541,1.541,1.541,1.541,1.541,1.5137,1.4883,1.5283,1.5127,1.4893,1.5293,1.541,1.541,1.541,1.541,1.541,1.541,1.4728,1.4221,1.4678,1.4102,1.3633,1.4007,1.4094,1.4104,1.4104,1.4085,1.4075,1.4085,1.4473,1.4746,1.4793,1.5117,1.5371,1.5371,1.5371,1.5001,1.4163,1.4085,1.3734,1.2954,1.2905,1.2954,1.3085,1.2978,1.2964,1.3109,1.2978,1.2905,1.2905,1.2905,1.2905,1.2905,1.2905,1.2905,0.0,0.0,1.1469,1.1469,0.0,0.0,0.0,0.0,0.0,0.0,0.0,0.0,0.0,1.29,1.3156,1.3593,1.4129,1.4804,0.0,0.0,0.0,1.8307,1.9374,2.037,0.0,0.0,0.0,0.0,2.4257,0.0,0.0,2.5037,2.4921,2.4029,2.3803,2.3496,2.3108,2.3108,2.3108,2.3095,2.2732,2.2339,2.1877,2.1126,2.0415,1.9751,1.9039,1.8548,1.8186,1.7694,1.729,1.6965,1.6524,1.6239,1.6038,1.5565,1.541,1.541,1.541,1.541,1.541,1.541,1.5312,1.5225,1.5371,1.5312,1.5234,1.5371,1.541,1.541,1.541,1.541,1.541,1.541,1.498,1.4609,1.4784,1.4561,1.4394,1.4541,1.4785,1.4952,1.4952,1.4952,1.4855,1.4609,1.4687,1.4893,1.5166,1.5322,1.541,1.541,1.541,1.5186,1.4609,1.4043,1.3477,1.2935,1.2905,1.2954,1.3085,1.3061,1.3051,1.3109,1.3061,1.3027,1.3027,1.3027,1.3027,1.3027,1.3027,1.2978,1.1215,1.15,0.0,1.1821,1.2058,0.0,1.2354,0.0,1.2593,0.0,0.0,0.0,0.0,0.0,0.0,1.3046,1.3404,1.4013,0.0,1.5857,0.0,1.699,1.843,1.9727,2.0525,2.124,2.1998,2.2945,2.3676,0.0,0.0,0.0,2.5132,2.4466,2.4161,2.3816,2.3409,2.3208,2.3108,2.3095,2.2744,2.2339,2.1865,2.1082,2.0333,1.9672,1.8893,1.8429,1.8209,1.7788,1.7457,1.72,1.6807,1.6495,1.6171,1.5681,1.5449,1.541,1.541,1.541,1.541,1.541,1.541,1.541,1.541,1.541,1.541,1.541,1.541,1.541,1.541,1.541,1.541,1.541,1.5088,1.4852,1.4971,1.4893,1.4834,1.498,1.5225,1.541,1.541,1.541,1.5322,1.5049,1.501,1.5107,1.5381,1.541,1.541,1.541,1.541,1.5186,1.46,1.3916,1.333,1.2935,1.2905,1.2954,1.3085,1.3051,1.3051,1.3109,1.3109,1.3109,1.3109,1.3113,1.3113,1.3109,1.3109,1.3036]}]]